<?xml version="1.0" encoding="UTF-8" standalone="no" ?>
<gpx xmlns="http://www.topografix.com/GPX/1/1" xmlns:xsi="http://www.w3.org/2001/XMLSchema-instance" xsi:schemaLocation="http://www.topografix.com/GPX/1/1 http://www.topografix.com/GPX/1/1/gpx.xsd" version="1.1" creator="VisuGPX - https://www.visugpx.com">
  <metadata>
    <name>raid du castor</name>
    <desc><![CDATA[canoé   CO   VTT\'O, le 14/10/12]]></desc>
  </metadata>
  <trk>
    <name><![CDATA[2012-10-14T08:31:04Z]]></name>
    <trkseg>
      <trkpt lat="45.80071" lon="4.94093">
        <ele>175.9</ele>
        <time>2012-10-14T08:31:04Z</time>
      </trkpt>
      <trkpt lat="45.80064" lon="4.94091">
        <ele>179.4</ele>
        <time>2012-10-14T08:31:10Z</time>
      </trkpt>
      <trkpt lat="45.80062" lon="4.9409">
        <ele>179.4</ele>
        <time>2012-10-14T08:31:11Z</time>
      </trkpt>
      <trkpt lat="45.80057" lon="4.94077">
        <ele>179.4</ele>
        <time>2012-10-14T08:31:14Z</time>
      </trkpt>
      <trkpt lat="45.80053" lon="4.94056">
        <ele>179.2</ele>
        <time>2012-10-14T08:31:18Z</time>
      </trkpt>
      <trkpt lat="45.80051" lon="4.94052">
        <ele>179.2</ele>
        <time>2012-10-14T08:31:19Z</time>
      </trkpt>
      <trkpt lat="45.80049" lon="4.94041">
        <ele>179.2</ele>
        <time>2012-10-14T08:31:21Z</time>
      </trkpt>
      <trkpt lat="45.80048" lon="4.94036">
        <ele>179.2</ele>
        <time>2012-10-14T08:31:22Z</time>
      </trkpt>
      <trkpt lat="45.80048" lon="4.94024">
        <ele>179.2</ele>
        <time>2012-10-14T08:31:24Z</time>
      </trkpt>
      <trkpt lat="45.8005" lon="4.94014">
        <ele>179</ele>
        <time>2012-10-14T08:31:26Z</time>
      </trkpt>
      <trkpt lat="45.80058" lon="4.94">
        <ele>179</ele>
        <time>2012-10-14T08:31:29Z</time>
      </trkpt>
      <trkpt lat="45.8006" lon="4.93996">
        <ele>178.8</ele>
        <time>2012-10-14T08:31:30Z</time>
      </trkpt>
      <trkpt lat="45.80072" lon="4.93977">
        <ele>178.6</ele>
        <time>2012-10-14T08:31:34Z</time>
      </trkpt>
      <trkpt lat="45.80078" lon="4.93968">
        <ele>178.6</ele>
        <time>2012-10-14T08:31:36Z</time>
      </trkpt>
      <trkpt lat="45.80086" lon="4.93955">
        <ele>178.4</ele>
        <time>2012-10-14T08:31:39Z</time>
      </trkpt>
      <trkpt lat="45.80093" lon="4.93951">
        <ele>178.4</ele>
        <time>2012-10-14T08:31:41Z</time>
      </trkpt>
      <trkpt lat="45.80102" lon="4.93954">
        <ele>178.2</ele>
        <time>2012-10-14T08:31:44Z</time>
      </trkpt>
      <trkpt lat="45.80106" lon="4.93956">
        <ele>178</ele>
        <time>2012-10-14T08:31:45Z</time>
      </trkpt>
      <trkpt lat="45.80122" lon="4.93966">
        <ele>177.6</ele>
        <time>2012-10-14T08:31:49Z</time>
      </trkpt>
      <trkpt lat="45.80126" lon="4.9397">
        <ele>177.6</ele>
        <time>2012-10-14T08:31:50Z</time>
      </trkpt>
      <trkpt lat="45.80132" lon="4.9398">
        <ele>177.4</ele>
        <time>2012-10-14T08:31:52Z</time>
      </trkpt>
      <trkpt lat="45.80135" lon="4.93986">
        <ele>177.4</ele>
        <time>2012-10-14T08:31:53Z</time>
      </trkpt>
      <trkpt lat="45.80138" lon="4.93992">
        <ele>177.2</ele>
        <time>2012-10-14T08:31:54Z</time>
      </trkpt>
      <trkpt lat="45.80142" lon="4.94002">
        <ele>177.2</ele>
        <time>2012-10-14T08:31:56Z</time>
      </trkpt>
      <trkpt lat="45.80144" lon="4.94012">
        <ele>177</ele>
        <time>2012-10-14T08:31:58Z</time>
      </trkpt>
      <trkpt lat="45.80146" lon="4.94028">
        <ele>176.6</ele>
        <time>2012-10-14T08:32:01Z</time>
      </trkpt>
      <trkpt lat="45.80148" lon="4.94033">
        <ele>176.6</ele>
        <time>2012-10-14T08:32:02Z</time>
      </trkpt>
      <trkpt lat="45.80149" lon="4.94038">
        <ele>176.4</ele>
        <time>2012-10-14T08:32:03Z</time>
      </trkpt>
      <trkpt lat="45.80157" lon="4.94063">
        <ele>176</ele>
        <time>2012-10-14T08:32:08Z</time>
      </trkpt>
      <trkpt lat="45.80165" lon="4.94088">
        <ele>175.8</ele>
        <time>2012-10-14T08:32:13Z</time>
      </trkpt>
      <trkpt lat="45.8017" lon="4.94107">
        <ele>175.4</ele>
        <time>2012-10-14T08:32:17Z</time>
      </trkpt>
      <trkpt lat="45.80172" lon="4.94112">
        <ele>175.4</ele>
        <time>2012-10-14T08:32:18Z</time>
      </trkpt>
      <trkpt lat="45.80179" lon="4.94132">
        <ele>175.2</ele>
        <time>2012-10-14T08:32:22Z</time>
      </trkpt>
      <trkpt lat="45.8018" lon="4.94136">
        <ele>175.2</ele>
        <time>2012-10-14T08:32:23Z</time>
      </trkpt>
      <trkpt lat="45.80185" lon="4.9415">
        <ele>175</ele>
        <time>2012-10-14T08:32:26Z</time>
      </trkpt>
      <trkpt lat="45.80185" lon="4.94164">
        <ele>174.8</ele>
        <time>2012-10-14T08:32:29Z</time>
      </trkpt>
      <trkpt lat="45.80183" lon="4.94168">
        <ele>174.6</ele>
        <time>2012-10-14T08:32:30Z</time>
      </trkpt>
      <trkpt lat="45.80171" lon="4.94184">
        <ele>174.2</ele>
        <time>2012-10-14T08:32:35Z</time>
      </trkpt>
      <trkpt lat="45.80164" lon="4.942">
        <ele>173.8</ele>
        <time>2012-10-14T08:32:39Z</time>
      </trkpt>
      <trkpt lat="45.80163" lon="4.94205">
        <ele>173.8</ele>
        <time>2012-10-14T08:32:41Z</time>
      </trkpt>
      <trkpt lat="45.80163" lon="4.94205">
        <ele>173.6</ele>
        <time>2012-10-14T08:32:42Z</time>
      </trkpt>
      <trkpt lat="45.80162" lon="4.94205">
        <ele>173.4</ele>
        <time>2012-10-14T08:32:46Z</time>
      </trkpt>
      <trkpt lat="45.80162" lon="4.94204">
        <ele>173</ele>
        <time>2012-10-14T08:32:54Z</time>
      </trkpt>
      <trkpt lat="45.80164" lon="4.94206">
        <ele>172.8</ele>
        <time>2012-10-14T08:32:58Z</time>
      </trkpt>
      <trkpt lat="45.80165" lon="4.94207">
        <ele>172.6</ele>
        <time>2012-10-14T08:33:05Z</time>
      </trkpt>
      <trkpt lat="45.80166" lon="4.94213">
        <ele>172.4</ele>
        <time>2012-10-14T08:33:12Z</time>
      </trkpt>
      <trkpt lat="45.80167" lon="4.94221">
        <ele>172.2</ele>
        <time>2012-10-14T08:33:19Z</time>
      </trkpt>
      <trkpt lat="45.80169" lon="4.94227">
        <ele>172</ele>
        <time>2012-10-14T08:33:24Z</time>
      </trkpt>
      <trkpt lat="45.80171" lon="4.94231">
        <ele>172</ele>
        <time>2012-10-14T08:33:27Z</time>
      </trkpt>
      <trkpt lat="45.80172" lon="4.94233">
        <ele>172</ele>
        <time>2012-10-14T08:33:28Z</time>
      </trkpt>
      <trkpt lat="45.80173" lon="4.94239">
        <ele>172</ele>
        <time>2012-10-14T08:33:31Z</time>
      </trkpt>
      <trkpt lat="45.80173" lon="4.94241">
        <ele>172</ele>
        <time>2012-10-14T08:33:32Z</time>
      </trkpt>
      <trkpt lat="45.80175" lon="4.94252">
        <ele>171.8</ele>
        <time>2012-10-14T08:33:37Z</time>
      </trkpt>
      <trkpt lat="45.80179" lon="4.94259">
        <ele>171.8</ele>
        <time>2012-10-14T08:33:41Z</time>
      </trkpt>
      <trkpt lat="45.8018" lon="4.94261">
        <ele>171.8</ele>
        <time>2012-10-14T08:33:42Z</time>
      </trkpt>
      <trkpt lat="45.80187" lon="4.94271">
        <ele>171.8</ele>
        <time>2012-10-14T08:33:48Z</time>
      </trkpt>
      <trkpt lat="45.80188" lon="4.94272">
        <ele>171.8</ele>
        <time>2012-10-14T08:33:49Z</time>
      </trkpt>
      <trkpt lat="45.80193" lon="4.94276">
        <ele>171.8</ele>
        <time>2012-10-14T08:33:52Z</time>
      </trkpt>
      <trkpt lat="45.80194" lon="4.94277">
        <ele>171.8</ele>
        <time>2012-10-14T08:33:53Z</time>
      </trkpt>
      <trkpt lat="45.80199" lon="4.94279">
        <ele>171.8</ele>
        <time>2012-10-14T08:33:56Z</time>
      </trkpt>
      <trkpt lat="45.80206" lon="4.94282">
        <ele>171.6</ele>
        <time>2012-10-14T08:34:00Z</time>
      </trkpt>
      <trkpt lat="45.80208" lon="4.94283">
        <ele>171.6</ele>
        <time>2012-10-14T08:34:01Z</time>
      </trkpt>
      <trkpt lat="45.80215" lon="4.94286">
        <ele>171.6</ele>
        <time>2012-10-14T08:34:05Z</time>
      </trkpt>
      <trkpt lat="45.80225" lon="4.94289">
        <ele>171.6</ele>
        <time>2012-10-14T08:34:10Z</time>
      </trkpt>
      <trkpt lat="45.80236" lon="4.94294">
        <ele>171.4</ele>
        <time>2012-10-14T08:34:16Z</time>
      </trkpt>
      <trkpt lat="45.80241" lon="4.94297">
        <ele>171.4</ele>
        <time>2012-10-14T08:34:19Z</time>
      </trkpt>
      <trkpt lat="45.80243" lon="4.94298">
        <ele>171.4</ele>
        <time>2012-10-14T08:34:20Z</time>
      </trkpt>
      <trkpt lat="45.80251" lon="4.94302">
        <ele>171.4</ele>
        <time>2012-10-14T08:34:24Z</time>
      </trkpt>
      <trkpt lat="45.80259" lon="4.94306">
        <ele>171.2</ele>
        <time>2012-10-14T08:34:29Z</time>
      </trkpt>
      <trkpt lat="45.80261" lon="4.94307">
        <ele>171.2</ele>
        <time>2012-10-14T08:34:30Z</time>
      </trkpt>
      <trkpt lat="45.80268" lon="4.9431">
        <ele>171.2</ele>
        <time>2012-10-14T08:34:34Z</time>
      </trkpt>
      <trkpt lat="45.80277" lon="4.94316">
        <ele>171.2</ele>
        <time>2012-10-14T08:34:39Z</time>
      </trkpt>
      <trkpt lat="45.80278" lon="4.94316">
        <ele>171.2</ele>
        <time>2012-10-14T08:34:40Z</time>
      </trkpt>
      <trkpt lat="45.8028" lon="4.94317">
        <ele>171.2</ele>
        <time>2012-10-14T08:34:41Z</time>
      </trkpt>
      <trkpt lat="45.80284" lon="4.94318">
        <ele>171</ele>
        <time>2012-10-14T08:34:43Z</time>
      </trkpt>
      <trkpt lat="45.80288" lon="4.9432">
        <ele>171</ele>
        <time>2012-10-14T08:34:45Z</time>
      </trkpt>
      <trkpt lat="45.80291" lon="4.94321">
        <ele>171</ele>
        <time>2012-10-14T08:34:47Z</time>
      </trkpt>
      <trkpt lat="45.80296" lon="4.94325">
        <ele>171</ele>
        <time>2012-10-14T08:34:51Z</time>
      </trkpt>
      <trkpt lat="45.80298" lon="4.94326">
        <ele>171</ele>
        <time>2012-10-14T08:34:52Z</time>
      </trkpt>
      <trkpt lat="45.80304" lon="4.94331">
        <ele>171</ele>
        <time>2012-10-14T08:34:56Z</time>
      </trkpt>
      <trkpt lat="45.80309" lon="4.94336">
        <ele>171</ele>
        <time>2012-10-14T08:35:00Z</time>
      </trkpt>
      <trkpt lat="45.8031" lon="4.94338">
        <ele>170.8</ele>
        <time>2012-10-14T08:35:01Z</time>
      </trkpt>
      <trkpt lat="45.80311" lon="4.9434">
        <ele>170.8</ele>
        <time>2012-10-14T08:35:02Z</time>
      </trkpt>
      <trkpt lat="45.80313" lon="4.94344">
        <ele>170.8</ele>
        <time>2012-10-14T08:35:04Z</time>
      </trkpt>
      <trkpt lat="45.80316" lon="4.94352">
        <ele>170.8</ele>
        <time>2012-10-14T08:35:08Z</time>
      </trkpt>
      <trkpt lat="45.8032" lon="4.9436">
        <ele>170.8</ele>
        <time>2012-10-14T08:35:12Z</time>
      </trkpt>
      <trkpt lat="45.80321" lon="4.94362">
        <ele>170.8</ele>
        <time>2012-10-14T08:35:13Z</time>
      </trkpt>
      <trkpt lat="45.80325" lon="4.94366">
        <ele>170.8</ele>
        <time>2012-10-14T08:35:16Z</time>
      </trkpt>
      <trkpt lat="45.80327" lon="4.94369">
        <ele>170.8</ele>
        <time>2012-10-14T08:35:18Z</time>
      </trkpt>
      <trkpt lat="45.8033" lon="4.94372">
        <ele>170.8</ele>
        <time>2012-10-14T08:35:20Z</time>
      </trkpt>
      <trkpt lat="45.80336" lon="4.94379">
        <ele>170.8</ele>
        <time>2012-10-14T08:35:24Z</time>
      </trkpt>
      <trkpt lat="45.8034" lon="4.94384">
        <ele>170.6</ele>
        <time>2012-10-14T08:35:27Z</time>
      </trkpt>
      <trkpt lat="45.80346" lon="4.94392">
        <ele>170.6</ele>
        <time>2012-10-14T08:35:31Z</time>
      </trkpt>
      <trkpt lat="45.80347" lon="4.94394">
        <ele>170.6</ele>
        <time>2012-10-14T08:35:32Z</time>
      </trkpt>
      <trkpt lat="45.8035" lon="4.94397">
        <ele>170.6</ele>
        <time>2012-10-14T08:35:34Z</time>
      </trkpt>
      <trkpt lat="45.80351" lon="4.94399">
        <ele>170.6</ele>
        <time>2012-10-14T08:35:35Z</time>
      </trkpt>
      <trkpt lat="45.80354" lon="4.94402">
        <ele>170.6</ele>
        <time>2012-10-14T08:35:37Z</time>
      </trkpt>
      <trkpt lat="45.8036" lon="4.94408">
        <ele>170.4</ele>
        <time>2012-10-14T08:35:41Z</time>
      </trkpt>
      <trkpt lat="45.80366" lon="4.94413">
        <ele>170.4</ele>
        <time>2012-10-14T08:35:45Z</time>
      </trkpt>
      <trkpt lat="45.80371" lon="4.9442">
        <ele>170.4</ele>
        <time>2012-10-14T08:35:49Z</time>
      </trkpt>
      <trkpt lat="45.80376" lon="4.94427">
        <ele>170.4</ele>
        <time>2012-10-14T08:35:53Z</time>
      </trkpt>
      <trkpt lat="45.80379" lon="4.94433">
        <ele>170.4</ele>
        <time>2012-10-14T08:35:56Z</time>
      </trkpt>
      <trkpt lat="45.80381" lon="4.94435">
        <ele>170.4</ele>
        <time>2012-10-14T08:35:57Z</time>
      </trkpt>
      <trkpt lat="45.80388" lon="4.94446">
        <ele>170.4</ele>
        <time>2012-10-14T08:36:03Z</time>
      </trkpt>
      <trkpt lat="45.80392" lon="4.94452">
        <ele>170.4</ele>
        <time>2012-10-14T08:36:06Z</time>
      </trkpt>
      <trkpt lat="45.80393" lon="4.94454">
        <ele>170.4</ele>
        <time>2012-10-14T08:36:07Z</time>
      </trkpt>
      <trkpt lat="45.80398" lon="4.94459">
        <ele>170.4</ele>
        <time>2012-10-14T08:36:10Z</time>
      </trkpt>
      <trkpt lat="45.80404" lon="4.94466">
        <ele>170.6</ele>
        <time>2012-10-14T08:36:14Z</time>
      </trkpt>
      <trkpt lat="45.80407" lon="4.94469">
        <ele>170.6</ele>
        <time>2012-10-14T08:36:16Z</time>
      </trkpt>
      <trkpt lat="45.8041" lon="4.94473">
        <ele>170.6</ele>
        <time>2012-10-14T08:36:18Z</time>
      </trkpt>
      <trkpt lat="45.80417" lon="4.9448">
        <ele>170.8</ele>
        <time>2012-10-14T08:36:22Z</time>
      </trkpt>
      <trkpt lat="45.80422" lon="4.94487">
        <ele>170.8</ele>
        <time>2012-10-14T08:36:26Z</time>
      </trkpt>
      <trkpt lat="45.80423" lon="4.94488">
        <ele>171</ele>
        <time>2012-10-14T08:36:27Z</time>
      </trkpt>
      <trkpt lat="45.8043" lon="4.94497">
        <ele>171.2</ele>
        <time>2012-10-14T08:36:32Z</time>
      </trkpt>
      <trkpt lat="45.80435" lon="4.94504">
        <ele>171.4</ele>
        <time>2012-10-14T08:36:36Z</time>
      </trkpt>
      <trkpt lat="45.80437" lon="4.94506">
        <ele>171.4</ele>
        <time>2012-10-14T08:36:37Z</time>
      </trkpt>
      <trkpt lat="45.80441" lon="4.94511">
        <ele>171.6</ele>
        <time>2012-10-14T08:36:40Z</time>
      </trkpt>
      <trkpt lat="45.80444" lon="4.94514">
        <ele>171.6</ele>
        <time>2012-10-14T08:36:42Z</time>
      </trkpt>
      <trkpt lat="45.8045" lon="4.94521">
        <ele>171.8</ele>
        <time>2012-10-14T08:36:46Z</time>
      </trkpt>
      <trkpt lat="45.80455" lon="4.94525">
        <ele>171.8</ele>
        <time>2012-10-14T08:36:49Z</time>
      </trkpt>
      <trkpt lat="45.8046" lon="4.94528">
        <ele>172</ele>
        <time>2012-10-14T08:36:52Z</time>
      </trkpt>
      <trkpt lat="45.80466" lon="4.94534">
        <ele>172</ele>
        <time>2012-10-14T08:36:56Z</time>
      </trkpt>
      <trkpt lat="45.80472" lon="4.9454">
        <ele>172</ele>
        <time>2012-10-14T08:37:00Z</time>
      </trkpt>
      <trkpt lat="45.80477" lon="4.94547">
        <ele>172.2</ele>
        <time>2012-10-14T08:37:04Z</time>
      </trkpt>
      <trkpt lat="45.8048" lon="4.9455">
        <ele>172.2</ele>
        <time>2012-10-14T08:37:06Z</time>
      </trkpt>
      <trkpt lat="45.80483" lon="4.94554">
        <ele>172.2</ele>
        <time>2012-10-14T08:37:08Z</time>
      </trkpt>
      <trkpt lat="45.80489" lon="4.9456">
        <ele>172.2</ele>
        <time>2012-10-14T08:37:12Z</time>
      </trkpt>
      <trkpt lat="45.80495" lon="4.94566">
        <ele>172.2</ele>
        <time>2012-10-14T08:37:16Z</time>
      </trkpt>
      <trkpt lat="45.80496" lon="4.94567">
        <ele>172.2</ele>
        <time>2012-10-14T08:37:17Z</time>
      </trkpt>
      <trkpt lat="45.80502" lon="4.94574">
        <ele>172.2</ele>
        <time>2012-10-14T08:37:21Z</time>
      </trkpt>
      <trkpt lat="45.80507" lon="4.9458">
        <ele>172.2</ele>
        <time>2012-10-14T08:37:25Z</time>
      </trkpt>
      <trkpt lat="45.8051" lon="4.94583">
        <ele>172.2</ele>
        <time>2012-10-14T08:37:27Z</time>
      </trkpt>
      <trkpt lat="45.80513" lon="4.94587">
        <ele>172.2</ele>
        <time>2012-10-14T08:37:29Z</time>
      </trkpt>
      <trkpt lat="45.80519" lon="4.94593">
        <ele>172.2</ele>
        <time>2012-10-14T08:37:33Z</time>
      </trkpt>
      <trkpt lat="45.80525" lon="4.94598">
        <ele>172.2</ele>
        <time>2012-10-14T08:37:37Z</time>
      </trkpt>
      <trkpt lat="45.80531" lon="4.94604">
        <ele>172.2</ele>
        <time>2012-10-14T08:37:41Z</time>
      </trkpt>
      <trkpt lat="45.80538" lon="4.94611">
        <ele>172.2</ele>
        <time>2012-10-14T08:37:46Z</time>
      </trkpt>
      <trkpt lat="45.8054" lon="4.94613">
        <ele>172.2</ele>
        <time>2012-10-14T08:37:47Z</time>
      </trkpt>
      <trkpt lat="45.80546" lon="4.94619">
        <ele>172.2</ele>
        <time>2012-10-14T08:37:51Z</time>
      </trkpt>
      <trkpt lat="45.80552" lon="4.94625">
        <ele>172</ele>
        <time>2012-10-14T08:37:55Z</time>
      </trkpt>
      <trkpt lat="45.80555" lon="4.94629">
        <ele>172</ele>
        <time>2012-10-14T08:37:58Z</time>
      </trkpt>
      <trkpt lat="45.80556" lon="4.94631">
        <ele>172</ele>
        <time>2012-10-14T08:37:59Z</time>
      </trkpt>
      <trkpt lat="45.80562" lon="4.94637">
        <ele>172</ele>
        <time>2012-10-14T08:38:03Z</time>
      </trkpt>
      <trkpt lat="45.80569" lon="4.94645">
        <ele>172</ele>
        <time>2012-10-14T08:38:08Z</time>
      </trkpt>
      <trkpt lat="45.80575" lon="4.94651">
        <ele>172</ele>
        <time>2012-10-14T08:38:12Z</time>
      </trkpt>
      <trkpt lat="45.80576" lon="4.94653">
        <ele>172</ele>
        <time>2012-10-14T08:38:13Z</time>
      </trkpt>
      <trkpt lat="45.80582" lon="4.94659">
        <ele>172</ele>
        <time>2012-10-14T08:38:17Z</time>
      </trkpt>
      <trkpt lat="45.80585" lon="4.94661">
        <ele>172</ele>
        <time>2012-10-14T08:38:19Z</time>
      </trkpt>
      <trkpt lat="45.80586" lon="4.94663">
        <ele>172</ele>
        <time>2012-10-14T08:38:20Z</time>
      </trkpt>
      <trkpt lat="45.80592" lon="4.94667">
        <ele>172</ele>
        <time>2012-10-14T08:38:23Z</time>
      </trkpt>
      <trkpt lat="45.80602" lon="4.94672">
        <ele>172</ele>
        <time>2012-10-14T08:38:30Z</time>
      </trkpt>
      <trkpt lat="45.80608" lon="4.94672">
        <ele>172</ele>
        <time>2012-10-14T08:38:34Z</time>
      </trkpt>
      <trkpt lat="45.80617" lon="4.94674">
        <ele>172</ele>
        <time>2012-10-14T08:38:40Z</time>
      </trkpt>
      <trkpt lat="45.80618" lon="4.94675">
        <ele>172</ele>
        <time>2012-10-14T08:38:41Z</time>
      </trkpt>
      <trkpt lat="45.8062" lon="4.94678">
        <ele>172</ele>
        <time>2012-10-14T08:38:43Z</time>
      </trkpt>
      <trkpt lat="45.80622" lon="4.9468">
        <ele>172</ele>
        <time>2012-10-14T08:38:45Z</time>
      </trkpt>
      <trkpt lat="45.80628" lon="4.94685">
        <ele>172</ele>
        <time>2012-10-14T08:38:49Z</time>
      </trkpt>
      <trkpt lat="45.80635" lon="4.94691">
        <ele>172</ele>
        <time>2012-10-14T08:38:54Z</time>
      </trkpt>
      <trkpt lat="45.80642" lon="4.94696">
        <ele>172</ele>
        <time>2012-10-14T08:38:58Z</time>
      </trkpt>
      <trkpt lat="45.8065" lon="4.94701">
        <ele>172</ele>
        <time>2012-10-14T08:39:03Z</time>
      </trkpt>
      <trkpt lat="45.80653" lon="4.94702">
        <ele>172</ele>
        <time>2012-10-14T08:39:05Z</time>
      </trkpt>
      <trkpt lat="45.80657" lon="4.94703">
        <ele>172</ele>
        <time>2012-10-14T08:39:08Z</time>
      </trkpt>
      <trkpt lat="45.80666" lon="4.94706">
        <ele>172.2</ele>
        <time>2012-10-14T08:39:13Z</time>
      </trkpt>
      <trkpt lat="45.80671" lon="4.94709">
        <ele>172</ele>
        <time>2012-10-14T08:39:16Z</time>
      </trkpt>
      <trkpt lat="45.80673" lon="4.94709">
        <ele>172</ele>
        <time>2012-10-14T08:39:17Z</time>
      </trkpt>
      <trkpt lat="45.80679" lon="4.94713">
        <ele>172</ele>
        <time>2012-10-14T08:39:21Z</time>
      </trkpt>
      <trkpt lat="45.80686" lon="4.94717">
        <ele>172</ele>
        <time>2012-10-14T08:39:25Z</time>
      </trkpt>
      <trkpt lat="45.80688" lon="4.94717">
        <ele>172</ele>
        <time>2012-10-14T08:39:26Z</time>
      </trkpt>
      <trkpt lat="45.80693" lon="4.94719">
        <ele>172</ele>
        <time>2012-10-14T08:39:29Z</time>
      </trkpt>
      <trkpt lat="45.80701" lon="4.94723">
        <ele>172</ele>
        <time>2012-10-14T08:39:34Z</time>
      </trkpt>
      <trkpt lat="45.80707" lon="4.94726">
        <ele>172</ele>
        <time>2012-10-14T08:39:38Z</time>
      </trkpt>
      <trkpt lat="45.80709" lon="4.94726">
        <ele>172</ele>
        <time>2012-10-14T08:39:39Z</time>
      </trkpt>
      <trkpt lat="45.80714" lon="4.94728">
        <ele>172</ele>
        <time>2012-10-14T08:39:42Z</time>
      </trkpt>
      <trkpt lat="45.80717" lon="4.9473">
        <ele>171.8</ele>
        <time>2012-10-14T08:39:44Z</time>
      </trkpt>
      <trkpt lat="45.80721" lon="4.94731">
        <ele>171.8</ele>
        <time>2012-10-14T08:39:46Z</time>
      </trkpt>
      <trkpt lat="45.80725" lon="4.94732">
        <ele>171.8</ele>
        <time>2012-10-14T08:39:48Z</time>
      </trkpt>
      <trkpt lat="45.80726" lon="4.94733">
        <ele>171.8</ele>
        <time>2012-10-14T08:39:49Z</time>
      </trkpt>
      <trkpt lat="45.80733" lon="4.94735">
        <ele>171.8</ele>
        <time>2012-10-14T08:39:53Z</time>
      </trkpt>
      <trkpt lat="45.8074" lon="4.94738">
        <ele>171.8</ele>
        <time>2012-10-14T08:39:57Z</time>
      </trkpt>
      <trkpt lat="45.80743" lon="4.9474">
        <ele>171.6</ele>
        <time>2012-10-14T08:39:59Z</time>
      </trkpt>
      <trkpt lat="45.80747" lon="4.94742">
        <ele>171.6</ele>
        <time>2012-10-14T08:40:01Z</time>
      </trkpt>
      <trkpt lat="45.80752" lon="4.94745">
        <ele>171.6</ele>
        <time>2012-10-14T08:40:04Z</time>
      </trkpt>
      <trkpt lat="45.80753" lon="4.94747">
        <ele>171.6</ele>
        <time>2012-10-14T08:40:05Z</time>
      </trkpt>
      <trkpt lat="45.8076" lon="4.94752">
        <ele>171.6</ele>
        <time>2012-10-14T08:40:09Z</time>
      </trkpt>
      <trkpt lat="45.80763" lon="4.94754">
        <ele>171.6</ele>
        <time>2012-10-14T08:40:12Z</time>
      </trkpt>
      <trkpt lat="45.80763" lon="4.94754">
        <ele>171.6</ele>
        <time>2012-10-14T08:40:14Z</time>
      </trkpt>
      <trkpt lat="45.80765" lon="4.94756">
        <ele>171.6</ele>
        <time>2012-10-14T08:40:18Z</time>
      </trkpt>
      <trkpt lat="45.80766" lon="4.94757">
        <ele>171.6</ele>
        <time>2012-10-14T08:40:19Z</time>
      </trkpt>
      <trkpt lat="45.8077" lon="4.94764">
        <ele>172</ele>
        <time>2012-10-14T08:40:24Z</time>
      </trkpt>
      <trkpt lat="45.80773" lon="4.94764">
        <ele>172.2</ele>
        <time>2012-10-14T08:40:26Z</time>
      </trkpt>
      <trkpt lat="45.80774" lon="4.94771">
        <ele>172.4</ele>
        <time>2012-10-14T08:40:28Z</time>
      </trkpt>
      <trkpt lat="45.80774" lon="4.94775">
        <ele>172.4</ele>
        <time>2012-10-14T08:40:29Z</time>
      </trkpt>
      <trkpt lat="45.80775" lon="4.94786">
        <ele>172.6</ele>
        <time>2012-10-14T08:40:32Z</time>
      </trkpt>
      <trkpt lat="45.80776" lon="4.94789">
        <ele>172.6</ele>
        <time>2012-10-14T08:40:33Z</time>
      </trkpt>
      <trkpt lat="45.80778" lon="4.948">
        <ele>172.6</ele>
        <time>2012-10-14T08:40:36Z</time>
      </trkpt>
      <trkpt lat="45.80782" lon="4.94811">
        <ele>172.6</ele>
        <time>2012-10-14T08:40:40Z</time>
      </trkpt>
      <trkpt lat="45.80782" lon="4.94814">
        <ele>172.6</ele>
        <time>2012-10-14T08:40:41Z</time>
      </trkpt>
      <trkpt lat="45.80784" lon="4.9483">
        <ele>172.8</ele>
        <time>2012-10-14T08:40:47Z</time>
      </trkpt>
      <trkpt lat="45.80787" lon="4.94838">
        <ele>172.8</ele>
        <time>2012-10-14T08:40:49Z</time>
      </trkpt>
      <trkpt lat="45.80792" lon="4.94847">
        <ele>172.6</ele>
        <time>2012-10-14T08:40:52Z</time>
      </trkpt>
      <trkpt lat="45.80794" lon="4.94852">
        <ele>172.6</ele>
        <time>2012-10-14T08:40:54Z</time>
      </trkpt>
      <trkpt lat="45.80795" lon="4.94853">
        <ele>172.6</ele>
        <time>2012-10-14T08:40:56Z</time>
      </trkpt>
      <trkpt lat="45.80792" lon="4.94854">
        <ele>172.4</ele>
        <time>2012-10-14T08:41:03Z</time>
      </trkpt>
      <trkpt lat="45.80791" lon="4.94853">
        <ele>172.2</ele>
        <time>2012-10-14T08:41:04Z</time>
      </trkpt>
      <trkpt lat="45.8079" lon="4.94854">
        <ele>172.2</ele>
        <time>2012-10-14T08:41:05Z</time>
      </trkpt>
      <trkpt lat="45.80789" lon="4.9486">
        <ele>172</ele>
        <time>2012-10-14T08:41:08Z</time>
      </trkpt>
      <trkpt lat="45.8079" lon="4.94863">
        <ele>171.8</ele>
        <time>2012-10-14T08:41:09Z</time>
      </trkpt>
      <trkpt lat="45.80792" lon="4.94865">
        <ele>171.8</ele>
        <time>2012-10-14T08:41:10Z</time>
      </trkpt>
      <trkpt lat="45.80796" lon="4.94869">
        <ele>171.6</ele>
        <time>2012-10-14T08:41:12Z</time>
      </trkpt>
      <trkpt lat="45.80798" lon="4.94871">
        <ele>171.4</ele>
        <time>2012-10-14T08:41:13Z</time>
      </trkpt>
      <trkpt lat="45.80811" lon="4.94881">
        <ele>171</ele>
        <time>2012-10-14T08:41:18Z</time>
      </trkpt>
      <trkpt lat="45.80816" lon="4.94885">
        <ele>170.8</ele>
        <time>2012-10-14T08:41:20Z</time>
      </trkpt>
      <trkpt lat="45.80825" lon="4.94892">
        <ele>170.6</ele>
        <time>2012-10-14T08:41:23Z</time>
      </trkpt>
      <trkpt lat="45.80834" lon="4.949">
        <ele>170.2</ele>
        <time>2012-10-14T08:41:26Z</time>
      </trkpt>
      <trkpt lat="45.8084" lon="4.94905">
        <ele>170.2</ele>
        <time>2012-10-14T08:41:28Z</time>
      </trkpt>
      <trkpt lat="45.80854" lon="4.94913">
        <ele>169.8</ele>
        <time>2012-10-14T08:41:32Z</time>
      </trkpt>
      <trkpt lat="45.80859" lon="4.94916">
        <ele>169.8</ele>
        <time>2012-10-14T08:41:34Z</time>
      </trkpt>
      <trkpt lat="45.8087" lon="4.94922">
        <ele>169.6</ele>
        <time>2012-10-14T08:41:38Z</time>
      </trkpt>
      <trkpt lat="45.80877" lon="4.94924">
        <ele>169.4</ele>
        <time>2012-10-14T08:41:40Z</time>
      </trkpt>
      <trkpt lat="45.80887" lon="4.94936">
        <ele>169.2</ele>
        <time>2012-10-14T08:41:44Z</time>
      </trkpt>
      <trkpt lat="45.80894" lon="4.9495">
        <ele>169.2</ele>
        <time>2012-10-14T08:41:48Z</time>
      </trkpt>
      <trkpt lat="45.80899" lon="4.9496">
        <ele>169</ele>
        <time>2012-10-14T08:41:51Z</time>
      </trkpt>
      <trkpt lat="45.80903" lon="4.94967">
        <ele>169</ele>
        <time>2012-10-14T08:41:53Z</time>
      </trkpt>
      <trkpt lat="45.8091" lon="4.94977">
        <ele>168.8</ele>
        <time>2012-10-14T08:41:58Z</time>
      </trkpt>
      <trkpt lat="45.80911" lon="4.9498">
        <ele>168.8</ele>
        <time>2012-10-14T08:41:59Z</time>
      </trkpt>
      <trkpt lat="45.80912" lon="4.94991">
        <ele>168.6</ele>
        <time>2012-10-14T08:42:02Z</time>
      </trkpt>
      <trkpt lat="45.80919" lon="4.95004">
        <ele>168.6</ele>
        <time>2012-10-14T08:42:06Z</time>
      </trkpt>
      <trkpt lat="45.80929" lon="4.95024">
        <ele>168.4</ele>
        <time>2012-10-14T08:42:12Z</time>
      </trkpt>
      <trkpt lat="45.8093" lon="4.95026">
        <ele>168.4</ele>
        <time>2012-10-14T08:42:13Z</time>
      </trkpt>
      <trkpt lat="45.8094" lon="4.95041">
        <ele>168.4</ele>
        <time>2012-10-14T08:42:18Z</time>
      </trkpt>
      <trkpt lat="45.80944" lon="4.95046">
        <ele>168.4</ele>
        <time>2012-10-14T08:42:20Z</time>
      </trkpt>
      <trkpt lat="45.80948" lon="4.95048">
        <ele>168.4</ele>
        <time>2012-10-14T08:42:23Z</time>
      </trkpt>
      <trkpt lat="45.80947" lon="4.95049">
        <ele>168.8</ele>
        <time>2012-10-14T08:42:31Z</time>
      </trkpt>
      <trkpt lat="45.80944" lon="4.9505">
        <ele>169.4</ele>
        <time>2012-10-14T08:42:42Z</time>
      </trkpt>
      <trkpt lat="45.80942" lon="4.95046">
        <ele>169.6</ele>
        <time>2012-10-14T08:42:46Z</time>
      </trkpt>
      <trkpt lat="45.80936" lon="4.95038">
        <ele>169.8</ele>
        <time>2012-10-14T08:42:50Z</time>
      </trkpt>
      <trkpt lat="45.80933" lon="4.95033">
        <ele>170</ele>
        <time>2012-10-14T08:42:52Z</time>
      </trkpt>
      <trkpt lat="45.80929" lon="4.95028">
        <ele>170</ele>
        <time>2012-10-14T08:42:54Z</time>
      </trkpt>
      <trkpt lat="45.80926" lon="4.95022">
        <ele>170</ele>
        <time>2012-10-14T08:42:56Z</time>
      </trkpt>
      <trkpt lat="45.80924" lon="4.95018">
        <ele>170</ele>
        <time>2012-10-14T08:42:57Z</time>
      </trkpt>
      <trkpt lat="45.80914" lon="4.95006">
        <ele>170</ele>
        <time>2012-10-14T08:43:01Z</time>
      </trkpt>
      <trkpt lat="45.80909" lon="4.95">
        <ele>170</ele>
        <time>2012-10-14T08:43:03Z</time>
      </trkpt>
      <trkpt lat="45.80907" lon="4.94992">
        <ele>170.2</ele>
        <time>2012-10-14T08:43:05Z</time>
      </trkpt>
      <trkpt lat="45.80901" lon="4.94973">
        <ele>170.4</ele>
        <time>2012-10-14T08:43:10Z</time>
      </trkpt>
      <trkpt lat="45.80891" lon="4.9496">
        <ele>170.6</ele>
        <time>2012-10-14T08:43:15Z</time>
      </trkpt>
      <trkpt lat="45.80888" lon="4.94954">
        <ele>170.6</ele>
        <time>2012-10-14T08:43:17Z</time>
      </trkpt>
      <trkpt lat="45.80882" lon="4.94942">
        <ele>170.8</ele>
        <time>2012-10-14T08:43:21Z</time>
      </trkpt>
      <trkpt lat="45.80876" lon="4.94934">
        <ele>171</ele>
        <time>2012-10-14T08:43:24Z</time>
      </trkpt>
      <trkpt lat="45.80871" lon="4.9493">
        <ele>171</ele>
        <time>2012-10-14T08:43:26Z</time>
      </trkpt>
      <trkpt lat="45.80861" lon="4.94918">
        <ele>171</ele>
        <time>2012-10-14T08:43:31Z</time>
      </trkpt>
      <trkpt lat="45.80857" lon="4.94913">
        <ele>171</ele>
        <time>2012-10-14T08:43:33Z</time>
      </trkpt>
      <trkpt lat="45.80848" lon="4.94903">
        <ele>171.4</ele>
        <time>2012-10-14T08:43:38Z</time>
      </trkpt>
      <trkpt lat="45.80846" lon="4.94901">
        <ele>171.4</ele>
        <time>2012-10-14T08:43:39Z</time>
      </trkpt>
      <trkpt lat="45.80838" lon="4.94894">
        <ele>171.2</ele>
        <time>2012-10-14T08:43:43Z</time>
      </trkpt>
      <trkpt lat="45.8083" lon="4.94889">
        <ele>171.2</ele>
        <time>2012-10-14T08:43:46Z</time>
      </trkpt>
      <trkpt lat="45.80823" lon="4.94887">
        <ele>171.2</ele>
        <time>2012-10-14T08:43:49Z</time>
      </trkpt>
      <trkpt lat="45.80814" lon="4.94878">
        <ele>171.4</ele>
        <time>2012-10-14T08:43:53Z</time>
      </trkpt>
      <trkpt lat="45.80813" lon="4.94877">
        <ele>171.4</ele>
        <time>2012-10-14T08:43:54Z</time>
      </trkpt>
      <trkpt lat="45.80809" lon="4.94875">
        <ele>171.6</ele>
        <time>2012-10-14T08:43:56Z</time>
      </trkpt>
      <trkpt lat="45.80806" lon="4.9487">
        <ele>171.4</ele>
        <time>2012-10-14T08:43:58Z</time>
      </trkpt>
      <trkpt lat="45.80801" lon="4.94862">
        <ele>171.8</ele>
        <time>2012-10-14T08:44:02Z</time>
      </trkpt>
      <trkpt lat="45.80799" lon="4.9486">
        <ele>171.8</ele>
        <time>2012-10-14T08:44:03Z</time>
      </trkpt>
      <trkpt lat="45.80789" lon="4.94839">
        <ele>172.8</ele>
        <time>2012-10-14T08:44:10Z</time>
      </trkpt>
      <trkpt lat="45.80783" lon="4.94827">
        <ele>173.2</ele>
        <time>2012-10-14T08:44:14Z</time>
      </trkpt>
      <trkpt lat="45.8078" lon="4.94815">
        <ele>173.6</ele>
        <time>2012-10-14T08:44:18Z</time>
      </trkpt>
      <trkpt lat="45.80779" lon="4.94812">
        <ele>173.6</ele>
        <time>2012-10-14T08:44:19Z</time>
      </trkpt>
      <trkpt lat="45.80774" lon="4.94792">
        <ele>174.2</ele>
        <time>2012-10-14T08:44:25Z</time>
      </trkpt>
      <trkpt lat="45.80773" lon="4.94789">
        <ele>174.2</ele>
        <time>2012-10-14T08:44:26Z</time>
      </trkpt>
      <trkpt lat="45.80771" lon="4.94775">
        <ele>174.8</ele>
        <time>2012-10-14T08:44:30Z</time>
      </trkpt>
      <trkpt lat="45.80769" lon="4.94764">
        <ele>175</ele>
        <time>2012-10-14T08:44:34Z</time>
      </trkpt>
      <trkpt lat="45.80768" lon="4.94764">
        <ele>174.8</ele>
        <time>2012-10-14T08:44:35Z</time>
      </trkpt>
      <trkpt lat="45.80767" lon="4.94765">
        <ele>174.8</ele>
        <time>2012-10-14T08:44:38Z</time>
      </trkpt>
      <trkpt lat="45.80765" lon="4.94763">
        <ele>174.8</ele>
        <time>2012-10-14T08:44:39Z</time>
      </trkpt>
      <trkpt lat="45.80761" lon="4.94755">
        <ele>174.8</ele>
        <time>2012-10-14T08:44:42Z</time>
      </trkpt>
      <trkpt lat="45.80761" lon="4.94754">
        <ele>174.8</ele>
        <time>2012-10-14T08:44:43Z</time>
      </trkpt>
      <trkpt lat="45.80759" lon="4.94752">
        <ele>174.6</ele>
        <time>2012-10-14T08:44:48Z</time>
      </trkpt>
      <trkpt lat="45.80757" lon="4.94748">
        <ele>174.6</ele>
        <time>2012-10-14T08:44:54Z</time>
      </trkpt>
      <trkpt lat="45.80757" lon="4.94747">
        <ele>174.6</ele>
        <time>2012-10-14T08:44:55Z</time>
      </trkpt>
      <trkpt lat="45.80756" lon="4.94743">
        <ele>174.6</ele>
        <time>2012-10-14T08:44:58Z</time>
      </trkpt>
      <trkpt lat="45.80754" lon="4.94735">
        <ele>174.6</ele>
        <time>2012-10-14T08:45:02Z</time>
      </trkpt>
      <trkpt lat="45.80756" lon="4.94726">
        <ele>174.8</ele>
        <time>2012-10-14T08:45:06Z</time>
      </trkpt>
      <trkpt lat="45.80757" lon="4.94722">
        <ele>174.6</ele>
        <time>2012-10-14T08:45:08Z</time>
      </trkpt>
      <trkpt lat="45.80758" lon="4.94718">
        <ele>174.6</ele>
        <time>2012-10-14T08:45:10Z</time>
      </trkpt>
      <trkpt lat="45.80759" lon="4.94709">
        <ele>174.6</ele>
        <time>2012-10-14T08:45:14Z</time>
      </trkpt>
      <trkpt lat="45.8076" lon="4.94699">
        <ele>174.6</ele>
        <time>2012-10-14T08:45:18Z</time>
      </trkpt>
      <trkpt lat="45.8076" lon="4.94697">
        <ele>174.6</ele>
        <time>2012-10-14T08:45:19Z</time>
      </trkpt>
      <trkpt lat="45.80761" lon="4.9469">
        <ele>174.4</ele>
        <time>2012-10-14T08:45:22Z</time>
      </trkpt>
      <trkpt lat="45.80764" lon="4.9468">
        <ele>174.4</ele>
        <time>2012-10-14T08:45:26Z</time>
      </trkpt>
      <trkpt lat="45.80766" lon="4.94672">
        <ele>174.2</ele>
        <time>2012-10-14T08:45:29Z</time>
      </trkpt>
      <trkpt lat="45.80766" lon="4.9467">
        <ele>174.2</ele>
        <time>2012-10-14T08:45:30Z</time>
      </trkpt>
      <trkpt lat="45.80768" lon="4.94661">
        <ele>174.2</ele>
        <time>2012-10-14T08:45:34Z</time>
      </trkpt>
      <trkpt lat="45.80768" lon="4.94653">
        <ele>174</ele>
        <time>2012-10-14T08:45:37Z</time>
      </trkpt>
      <trkpt lat="45.80767" lon="4.94646">
        <ele>174</ele>
        <time>2012-10-14T08:45:40Z</time>
      </trkpt>
      <trkpt lat="45.80767" lon="4.94643">
        <ele>174</ele>
        <time>2012-10-14T08:45:41Z</time>
      </trkpt>
      <trkpt lat="45.80766" lon="4.94633">
        <ele>174</ele>
        <time>2012-10-14T08:45:45Z</time>
      </trkpt>
      <trkpt lat="45.80766" lon="4.94624">
        <ele>173.8</ele>
        <time>2012-10-14T08:45:49Z</time>
      </trkpt>
      <trkpt lat="45.80766" lon="4.94619">
        <ele>173.8</ele>
        <time>2012-10-14T08:45:51Z</time>
      </trkpt>
      <trkpt lat="45.80766" lon="4.94614">
        <ele>173.8</ele>
        <time>2012-10-14T08:45:53Z</time>
      </trkpt>
      <trkpt lat="45.80766" lon="4.94612">
        <ele>173.8</ele>
        <time>2012-10-14T08:45:54Z</time>
      </trkpt>
      <trkpt lat="45.80766" lon="4.94602">
        <ele>173.8</ele>
        <time>2012-10-14T08:45:58Z</time>
      </trkpt>
      <trkpt lat="45.80767" lon="4.94592">
        <ele>173.6</ele>
        <time>2012-10-14T08:46:02Z</time>
      </trkpt>
      <trkpt lat="45.80767" lon="4.94587">
        <ele>173.6</ele>
        <time>2012-10-14T08:46:04Z</time>
      </trkpt>
      <trkpt lat="45.80767" lon="4.94582">
        <ele>173.6</ele>
        <time>2012-10-14T08:46:06Z</time>
      </trkpt>
      <trkpt lat="45.80767" lon="4.9458">
        <ele>173.6</ele>
        <time>2012-10-14T08:46:07Z</time>
      </trkpt>
      <trkpt lat="45.80768" lon="4.94573">
        <ele>173.6</ele>
        <time>2012-10-14T08:46:10Z</time>
      </trkpt>
      <trkpt lat="45.80767" lon="4.94565">
        <ele>173.6</ele>
        <time>2012-10-14T08:46:13Z</time>
      </trkpt>
      <trkpt lat="45.80766" lon="4.94558">
        <ele>173.6</ele>
        <time>2012-10-14T08:46:16Z</time>
      </trkpt>
      <trkpt lat="45.80764" lon="4.94548">
        <ele>173.4</ele>
        <time>2012-10-14T08:46:20Z</time>
      </trkpt>
      <trkpt lat="45.80763" lon="4.94538">
        <ele>173.4</ele>
        <time>2012-10-14T08:46:24Z</time>
      </trkpt>
      <trkpt lat="45.80762" lon="4.94531">
        <ele>173.2</ele>
        <time>2012-10-14T08:46:27Z</time>
      </trkpt>
      <trkpt lat="45.80761" lon="4.94524">
        <ele>173.2</ele>
        <time>2012-10-14T08:46:30Z</time>
      </trkpt>
      <trkpt lat="45.8076" lon="4.94517">
        <ele>173.2</ele>
        <time>2012-10-14T08:46:33Z</time>
      </trkpt>
      <trkpt lat="45.8076" lon="4.94512">
        <ele>173.2</ele>
        <time>2012-10-14T08:46:35Z</time>
      </trkpt>
      <trkpt lat="45.80759" lon="4.94507">
        <ele>173</ele>
        <time>2012-10-14T08:46:37Z</time>
      </trkpt>
      <trkpt lat="45.80759" lon="4.94505">
        <ele>173</ele>
        <time>2012-10-14T08:46:38Z</time>
      </trkpt>
      <trkpt lat="45.80757" lon="4.94498">
        <ele>173</ele>
        <time>2012-10-14T08:46:41Z</time>
      </trkpt>
      <trkpt lat="45.80755" lon="4.94488">
        <ele>173</ele>
        <time>2012-10-14T08:46:45Z</time>
      </trkpt>
      <trkpt lat="45.80755" lon="4.94486">
        <ele>173</ele>
        <time>2012-10-14T08:46:46Z</time>
      </trkpt>
      <trkpt lat="45.80753" lon="4.94479">
        <ele>172.8</ele>
        <time>2012-10-14T08:46:49Z</time>
      </trkpt>
      <trkpt lat="45.80751" lon="4.94469">
        <ele>172.8</ele>
        <time>2012-10-14T08:46:53Z</time>
      </trkpt>
      <trkpt lat="45.80751" lon="4.94466">
        <ele>172.8</ele>
        <time>2012-10-14T08:46:54Z</time>
      </trkpt>
      <trkpt lat="45.80751" lon="4.94461">
        <ele>172.8</ele>
        <time>2012-10-14T08:46:56Z</time>
      </trkpt>
      <trkpt lat="45.80751" lon="4.94459">
        <ele>172.8</ele>
        <time>2012-10-14T08:46:57Z</time>
      </trkpt>
      <trkpt lat="45.80751" lon="4.94449">
        <ele>172.8</ele>
        <time>2012-10-14T08:47:01Z</time>
      </trkpt>
      <trkpt lat="45.80751" lon="4.94439">
        <ele>172.6</ele>
        <time>2012-10-14T08:47:05Z</time>
      </trkpt>
      <trkpt lat="45.8075" lon="4.94435">
        <ele>172.6</ele>
        <time>2012-10-14T08:47:07Z</time>
      </trkpt>
      <trkpt lat="45.8075" lon="4.94432">
        <ele>172.6</ele>
        <time>2012-10-14T08:47:08Z</time>
      </trkpt>
      <trkpt lat="45.80749" lon="4.94425">
        <ele>172.6</ele>
        <time>2012-10-14T08:47:11Z</time>
      </trkpt>
      <trkpt lat="45.80748" lon="4.94417">
        <ele>172.6</ele>
        <time>2012-10-14T08:47:14Z</time>
      </trkpt>
      <trkpt lat="45.80748" lon="4.9441">
        <ele>172.6</ele>
        <time>2012-10-14T08:47:17Z</time>
      </trkpt>
      <trkpt lat="45.80748" lon="4.94408">
        <ele>172.6</ele>
        <time>2012-10-14T08:47:18Z</time>
      </trkpt>
      <trkpt lat="45.80749" lon="4.94403">
        <ele>172.6</ele>
        <time>2012-10-14T08:47:20Z</time>
      </trkpt>
      <trkpt lat="45.80748" lon="4.94398">
        <ele>172.4</ele>
        <time>2012-10-14T08:47:22Z</time>
      </trkpt>
      <trkpt lat="45.80748" lon="4.94396">
        <ele>172.4</ele>
        <time>2012-10-14T08:47:23Z</time>
      </trkpt>
      <trkpt lat="45.80748" lon="4.94389">
        <ele>172.4</ele>
        <time>2012-10-14T08:47:26Z</time>
      </trkpt>
      <trkpt lat="45.80748" lon="4.94381">
        <ele>172.4</ele>
        <time>2012-10-14T08:47:29Z</time>
      </trkpt>
      <trkpt lat="45.80748" lon="4.94376">
        <ele>172.4</ele>
        <time>2012-10-14T08:47:31Z</time>
      </trkpt>
      <trkpt lat="45.80748" lon="4.94372">
        <ele>172.2</ele>
        <time>2012-10-14T08:47:33Z</time>
      </trkpt>
      <trkpt lat="45.80747" lon="4.94364">
        <ele>172.2</ele>
        <time>2012-10-14T08:47:36Z</time>
      </trkpt>
      <trkpt lat="45.80746" lon="4.94357">
        <ele>172.2</ele>
        <time>2012-10-14T08:47:39Z</time>
      </trkpt>
      <trkpt lat="45.80745" lon="4.94354">
        <ele>172.2</ele>
        <time>2012-10-14T08:47:40Z</time>
      </trkpt>
      <trkpt lat="45.80744" lon="4.94349">
        <ele>172.2</ele>
        <time>2012-10-14T08:47:42Z</time>
      </trkpt>
      <trkpt lat="45.80744" lon="4.94346">
        <ele>172.2</ele>
        <time>2012-10-14T08:47:43Z</time>
      </trkpt>
      <trkpt lat="45.80744" lon="4.94339">
        <ele>172.2</ele>
        <time>2012-10-14T08:47:46Z</time>
      </trkpt>
      <trkpt lat="45.80744" lon="4.94329">
        <ele>172.2</ele>
        <time>2012-10-14T08:47:50Z</time>
      </trkpt>
      <trkpt lat="45.80744" lon="4.94327">
        <ele>172.2</ele>
        <time>2012-10-14T08:47:51Z</time>
      </trkpt>
      <trkpt lat="45.80745" lon="4.94322">
        <ele>172.2</ele>
        <time>2012-10-14T08:47:53Z</time>
      </trkpt>
      <trkpt lat="45.80745" lon="4.94315">
        <ele>172.2</ele>
        <time>2012-10-14T08:47:56Z</time>
      </trkpt>
      <trkpt lat="45.80745" lon="4.9431">
        <ele>172.2</ele>
        <time>2012-10-14T08:47:58Z</time>
      </trkpt>
      <trkpt lat="45.80745" lon="4.94307">
        <ele>172.2</ele>
        <time>2012-10-14T08:47:59Z</time>
      </trkpt>
      <trkpt lat="45.80746" lon="4.943">
        <ele>172.2</ele>
        <time>2012-10-14T08:48:02Z</time>
      </trkpt>
      <trkpt lat="45.80746" lon="4.94292">
        <ele>172.2</ele>
        <time>2012-10-14T08:48:05Z</time>
      </trkpt>
      <trkpt lat="45.80746" lon="4.94282">
        <ele>172.4</ele>
        <time>2012-10-14T08:48:09Z</time>
      </trkpt>
      <trkpt lat="45.80747" lon="4.94275">
        <ele>172.4</ele>
        <time>2012-10-14T08:48:12Z</time>
      </trkpt>
      <trkpt lat="45.80747" lon="4.94273">
        <ele>172.4</ele>
        <time>2012-10-14T08:48:13Z</time>
      </trkpt>
      <trkpt lat="45.80746" lon="4.94268">
        <ele>172.4</ele>
        <time>2012-10-14T08:48:15Z</time>
      </trkpt>
      <trkpt lat="45.80744" lon="4.94261">
        <ele>172.4</ele>
        <time>2012-10-14T08:48:18Z</time>
      </trkpt>
      <trkpt lat="45.80743" lon="4.94256">
        <ele>172.4</ele>
        <time>2012-10-14T08:48:20Z</time>
      </trkpt>
      <trkpt lat="45.80742" lon="4.94254">
        <ele>172.4</ele>
        <time>2012-10-14T08:48:21Z</time>
      </trkpt>
      <trkpt lat="45.80741" lon="4.94247">
        <ele>172.6</ele>
        <time>2012-10-14T08:48:24Z</time>
      </trkpt>
      <trkpt lat="45.80741" lon="4.94238">
        <ele>172.6</ele>
        <time>2012-10-14T08:48:28Z</time>
      </trkpt>
      <trkpt lat="45.80741" lon="4.94228">
        <ele>172.6</ele>
        <time>2012-10-14T08:48:32Z</time>
      </trkpt>
      <trkpt lat="45.80742" lon="4.9422">
        <ele>172.6</ele>
        <time>2012-10-14T08:48:36Z</time>
      </trkpt>
      <trkpt lat="45.80743" lon="4.94211">
        <ele>172.6</ele>
        <time>2012-10-14T08:48:40Z</time>
      </trkpt>
      <trkpt lat="45.80744" lon="4.94201">
        <ele>172.6</ele>
        <time>2012-10-14T08:48:44Z</time>
      </trkpt>
      <trkpt lat="45.80746" lon="4.94192">
        <ele>172.6</ele>
        <time>2012-10-14T08:48:48Z</time>
      </trkpt>
      <trkpt lat="45.80748" lon="4.94183">
        <ele>172.6</ele>
        <time>2012-10-14T08:48:52Z</time>
      </trkpt>
      <trkpt lat="45.8075" lon="4.94173">
        <ele>172.6</ele>
        <time>2012-10-14T08:48:56Z</time>
      </trkpt>
      <trkpt lat="45.80751" lon="4.94166">
        <ele>172.8</ele>
        <time>2012-10-14T08:48:59Z</time>
      </trkpt>
      <trkpt lat="45.80752" lon="4.94159">
        <ele>172.8</ele>
        <time>2012-10-14T08:49:02Z</time>
      </trkpt>
      <trkpt lat="45.80752" lon="4.94153">
        <ele>172.8</ele>
        <time>2012-10-14T08:49:05Z</time>
      </trkpt>
      <trkpt lat="45.80753" lon="4.9415">
        <ele>172.8</ele>
        <time>2012-10-14T08:49:06Z</time>
      </trkpt>
      <trkpt lat="45.80753" lon="4.94143">
        <ele>172.8</ele>
        <time>2012-10-14T08:49:09Z</time>
      </trkpt>
      <trkpt lat="45.80752" lon="4.94139">
        <ele>172.8</ele>
        <time>2012-10-14T08:49:11Z</time>
      </trkpt>
      <trkpt lat="45.80752" lon="4.94134">
        <ele>172.8</ele>
        <time>2012-10-14T08:49:13Z</time>
      </trkpt>
      <trkpt lat="45.80752" lon="4.94127">
        <ele>172.8</ele>
        <time>2012-10-14T08:49:16Z</time>
      </trkpt>
      <trkpt lat="45.80751" lon="4.94122">
        <ele>172.8</ele>
        <time>2012-10-14T08:49:18Z</time>
      </trkpt>
      <trkpt lat="45.8075" lon="4.9412">
        <ele>172.8</ele>
        <time>2012-10-14T08:49:19Z</time>
      </trkpt>
      <trkpt lat="45.8075" lon="4.94117">
        <ele>172.8</ele>
        <time>2012-10-14T08:49:20Z</time>
      </trkpt>
      <trkpt lat="45.8075" lon="4.94112">
        <ele>172.8</ele>
        <time>2012-10-14T08:49:22Z</time>
      </trkpt>
      <trkpt lat="45.80751" lon="4.94105">
        <ele>173</ele>
        <time>2012-10-14T08:49:25Z</time>
      </trkpt>
      <trkpt lat="45.80752" lon="4.94098">
        <ele>173</ele>
        <time>2012-10-14T08:49:28Z</time>
      </trkpt>
      <trkpt lat="45.80754" lon="4.94089">
        <ele>173</ele>
        <time>2012-10-14T08:49:32Z</time>
      </trkpt>
      <trkpt lat="45.80754" lon="4.94086">
        <ele>173</ele>
        <time>2012-10-14T08:49:33Z</time>
      </trkpt>
      <trkpt lat="45.80754" lon="4.94081">
        <ele>173.2</ele>
        <time>2012-10-14T08:49:35Z</time>
      </trkpt>
      <trkpt lat="45.80755" lon="4.94072">
        <ele>173.2</ele>
        <time>2012-10-14T08:49:39Z</time>
      </trkpt>
      <trkpt lat="45.80756" lon="4.94062">
        <ele>173.2</ele>
        <time>2012-10-14T08:49:43Z</time>
      </trkpt>
      <trkpt lat="45.80757" lon="4.9406">
        <ele>173.4</ele>
        <time>2012-10-14T08:49:44Z</time>
      </trkpt>
      <trkpt lat="45.80757" lon="4.94055">
        <ele>173.4</ele>
        <time>2012-10-14T08:49:46Z</time>
      </trkpt>
      <trkpt lat="45.80757" lon="4.94053">
        <ele>173.4</ele>
        <time>2012-10-14T08:49:47Z</time>
      </trkpt>
      <trkpt lat="45.80757" lon="4.94045">
        <ele>173.4</ele>
        <time>2012-10-14T08:49:50Z</time>
      </trkpt>
      <trkpt lat="45.80758" lon="4.94043">
        <ele>173.4</ele>
        <time>2012-10-14T08:49:51Z</time>
      </trkpt>
      <trkpt lat="45.80759" lon="4.94036">
        <ele>173.6</ele>
        <time>2012-10-14T08:49:54Z</time>
      </trkpt>
      <trkpt lat="45.80759" lon="4.94034">
        <ele>173.6</ele>
        <time>2012-10-14T08:49:55Z</time>
      </trkpt>
      <trkpt lat="45.80759" lon="4.94027">
        <ele>173.6</ele>
        <time>2012-10-14T08:49:58Z</time>
      </trkpt>
      <trkpt lat="45.8076" lon="4.94016">
        <ele>173.6</ele>
        <time>2012-10-14T08:50:03Z</time>
      </trkpt>
      <trkpt lat="45.80762" lon="4.94007">
        <ele>173.6</ele>
        <time>2012-10-14T08:50:07Z</time>
      </trkpt>
      <trkpt lat="45.80764" lon="4.93998">
        <ele>173.6</ele>
        <time>2012-10-14T08:50:11Z</time>
      </trkpt>
      <trkpt lat="45.80766" lon="4.93991">
        <ele>173.6</ele>
        <time>2012-10-14T08:50:14Z</time>
      </trkpt>
      <trkpt lat="45.80769" lon="4.93982">
        <ele>173.6</ele>
        <time>2012-10-14T08:50:18Z</time>
      </trkpt>
      <trkpt lat="45.8077" lon="4.93977">
        <ele>173.8</ele>
        <time>2012-10-14T08:50:20Z</time>
      </trkpt>
      <trkpt lat="45.80771" lon="4.93973">
        <ele>173.8</ele>
        <time>2012-10-14T08:50:22Z</time>
      </trkpt>
      <trkpt lat="45.80773" lon="4.93968">
        <ele>173.8</ele>
        <time>2012-10-14T08:50:24Z</time>
      </trkpt>
      <trkpt lat="45.80774" lon="4.93964">
        <ele>173.8</ele>
        <time>2012-10-14T08:50:26Z</time>
      </trkpt>
      <trkpt lat="45.80776" lon="4.93956">
        <ele>173.8</ele>
        <time>2012-10-14T08:50:29Z</time>
      </trkpt>
      <trkpt lat="45.80776" lon="4.93954">
        <ele>173.8</ele>
        <time>2012-10-14T08:50:30Z</time>
      </trkpt>
      <trkpt lat="45.80778" lon="4.93943">
        <ele>173.8</ele>
        <time>2012-10-14T08:50:35Z</time>
      </trkpt>
      <trkpt lat="45.80779" lon="4.93936">
        <ele>173.8</ele>
        <time>2012-10-14T08:50:38Z</time>
      </trkpt>
      <trkpt lat="45.8078" lon="4.93931">
        <ele>173.8</ele>
        <time>2012-10-14T08:50:40Z</time>
      </trkpt>
      <trkpt lat="45.80781" lon="4.93929">
        <ele>173.8</ele>
        <time>2012-10-14T08:50:41Z</time>
      </trkpt>
      <trkpt lat="45.80781" lon="4.93926">
        <ele>173.8</ele>
        <time>2012-10-14T08:50:42Z</time>
      </trkpt>
      <trkpt lat="45.80782" lon="4.93914">
        <ele>173.8</ele>
        <time>2012-10-14T08:50:47Z</time>
      </trkpt>
      <trkpt lat="45.80785" lon="4.93905">
        <ele>173.8</ele>
        <time>2012-10-14T08:50:51Z</time>
      </trkpt>
      <trkpt lat="45.80786" lon="4.93899">
        <ele>173.8</ele>
        <time>2012-10-14T08:50:54Z</time>
      </trkpt>
      <trkpt lat="45.80788" lon="4.93894">
        <ele>173.8</ele>
        <time>2012-10-14T08:50:56Z</time>
      </trkpt>
      <trkpt lat="45.80788" lon="4.93892">
        <ele>173.8</ele>
        <time>2012-10-14T08:50:57Z</time>
      </trkpt>
      <trkpt lat="45.8079" lon="4.93883">
        <ele>173.8</ele>
        <time>2012-10-14T08:51:01Z</time>
      </trkpt>
      <trkpt lat="45.80791" lon="4.93878">
        <ele>173.8</ele>
        <time>2012-10-14T08:51:03Z</time>
      </trkpt>
      <trkpt lat="45.80793" lon="4.93874">
        <ele>174</ele>
        <time>2012-10-14T08:51:05Z</time>
      </trkpt>
      <trkpt lat="45.80793" lon="4.93872">
        <ele>174</ele>
        <time>2012-10-14T08:51:06Z</time>
      </trkpt>
      <trkpt lat="45.80794" lon="4.93867">
        <ele>174</ele>
        <time>2012-10-14T08:51:08Z</time>
      </trkpt>
      <trkpt lat="45.80796" lon="4.9386">
        <ele>174</ele>
        <time>2012-10-14T08:51:11Z</time>
      </trkpt>
      <trkpt lat="45.80797" lon="4.93858">
        <ele>174</ele>
        <time>2012-10-14T08:51:12Z</time>
      </trkpt>
      <trkpt lat="45.80799" lon="4.93852">
        <ele>174.2</ele>
        <time>2012-10-14T08:51:15Z</time>
      </trkpt>
      <trkpt lat="45.808" lon="4.9385">
        <ele>174.2</ele>
        <time>2012-10-14T08:51:16Z</time>
      </trkpt>
      <trkpt lat="45.80802" lon="4.93842">
        <ele>174.2</ele>
        <time>2012-10-14T08:51:20Z</time>
      </trkpt>
      <trkpt lat="45.80803" lon="4.9384">
        <ele>174</ele>
        <time>2012-10-14T08:51:21Z</time>
      </trkpt>
      <trkpt lat="45.80807" lon="4.93829">
        <ele>174</ele>
        <time>2012-10-14T08:51:26Z</time>
      </trkpt>
      <trkpt lat="45.8081" lon="4.93823">
        <ele>174</ele>
        <time>2012-10-14T08:51:29Z</time>
      </trkpt>
      <trkpt lat="45.80813" lon="4.93812">
        <ele>174</ele>
        <time>2012-10-14T08:51:34Z</time>
      </trkpt>
      <trkpt lat="45.80815" lon="4.93806">
        <ele>174</ele>
        <time>2012-10-14T08:51:37Z</time>
      </trkpt>
      <trkpt lat="45.80816" lon="4.93805">
        <ele>174</ele>
        <time>2012-10-14T08:51:38Z</time>
      </trkpt>
      <trkpt lat="45.80817" lon="4.93803">
        <ele>174</ele>
        <time>2012-10-14T08:51:39Z</time>
      </trkpt>
      <trkpt lat="45.80819" lon="4.938">
        <ele>174</ele>
        <time>2012-10-14T08:51:44Z</time>
      </trkpt>
      <trkpt lat="45.80827" lon="4.938">
        <ele>173.8</ele>
        <time>2012-10-14T08:51:48Z</time>
      </trkpt>
      <trkpt lat="45.80832" lon="4.93804">
        <ele>174</ele>
        <time>2012-10-14T08:51:50Z</time>
      </trkpt>
      <trkpt lat="45.80836" lon="4.93807">
        <ele>174</ele>
        <time>2012-10-14T08:51:52Z</time>
      </trkpt>
      <trkpt lat="45.80839" lon="4.93807">
        <ele>174</ele>
        <time>2012-10-14T08:51:56Z</time>
      </trkpt>
      <trkpt lat="45.80834" lon="4.93802">
        <ele>174</ele>
        <time>2012-10-14T08:52:03Z</time>
      </trkpt>
      <trkpt lat="45.80833" lon="4.93801">
        <ele>174</ele>
        <time>2012-10-14T08:52:04Z</time>
      </trkpt>
      <trkpt lat="45.80829" lon="4.93797">
        <ele>173.8</ele>
        <time>2012-10-14T08:52:07Z</time>
      </trkpt>
      <trkpt lat="45.80826" lon="4.93793">
        <ele>173.8</ele>
        <time>2012-10-14T08:52:10Z</time>
      </trkpt>
      <trkpt lat="45.80817" lon="4.93785">
        <ele>173.8</ele>
        <time>2012-10-14T08:52:15Z</time>
      </trkpt>
      <trkpt lat="45.80815" lon="4.93783">
        <ele>173.6</ele>
        <time>2012-10-14T08:52:16Z</time>
      </trkpt>
      <trkpt lat="45.80806" lon="4.93773">
        <ele>173.6</ele>
        <time>2012-10-14T08:52:21Z</time>
      </trkpt>
      <trkpt lat="45.80799" lon="4.93769">
        <ele>173.4</ele>
        <time>2012-10-14T08:52:26Z</time>
      </trkpt>
      <trkpt lat="45.80798" lon="4.93769">
        <ele>173.4</ele>
        <time>2012-10-14T08:52:27Z</time>
      </trkpt>
      <trkpt lat="45.80798" lon="4.9377">
        <ele>173.2</ele>
        <time>2012-10-14T08:52:31Z</time>
      </trkpt>
      <trkpt lat="45.80796" lon="4.93771">
        <ele>173</ele>
        <time>2012-10-14T08:52:35Z</time>
      </trkpt>
      <trkpt lat="45.80792" lon="4.9377">
        <ele>172.8</ele>
        <time>2012-10-14T08:52:41Z</time>
      </trkpt>
      <trkpt lat="45.80787" lon="4.93767">
        <ele>172.6</ele>
        <time>2012-10-14T08:52:47Z</time>
      </trkpt>
      <trkpt lat="45.80784" lon="4.93767">
        <ele>172.6</ele>
        <time>2012-10-14T08:52:50Z</time>
      </trkpt>
      <trkpt lat="45.80782" lon="4.93768">
        <ele>172.4</ele>
        <time>2012-10-14T08:52:52Z</time>
      </trkpt>
      <trkpt lat="45.80779" lon="4.93769">
        <ele>172.4</ele>
        <time>2012-10-14T08:52:54Z</time>
      </trkpt>
      <trkpt lat="45.80774" lon="4.9377">
        <ele>172.4</ele>
        <time>2012-10-14T08:52:58Z</time>
      </trkpt>
      <trkpt lat="45.80769" lon="4.93769">
        <ele>172.4</ele>
        <time>2012-10-14T08:53:02Z</time>
      </trkpt>
      <trkpt lat="45.80763" lon="4.93766">
        <ele>172.4</ele>
        <time>2012-10-14T08:53:06Z</time>
      </trkpt>
      <trkpt lat="45.80757" lon="4.93764">
        <ele>172.4</ele>
        <time>2012-10-14T08:53:10Z</time>
      </trkpt>
      <trkpt lat="45.80752" lon="4.93763">
        <ele>172.4</ele>
        <time>2012-10-14T08:53:13Z</time>
      </trkpt>
      <trkpt lat="45.80746" lon="4.93761">
        <ele>172.4</ele>
        <time>2012-10-14T08:53:17Z</time>
      </trkpt>
      <trkpt lat="45.80741" lon="4.93759">
        <ele>172.4</ele>
        <time>2012-10-14T08:53:20Z</time>
      </trkpt>
      <trkpt lat="45.80734" lon="4.93756">
        <ele>172.4</ele>
        <time>2012-10-14T08:53:24Z</time>
      </trkpt>
      <trkpt lat="45.80728" lon="4.93754">
        <ele>172.2</ele>
        <time>2012-10-14T08:53:28Z</time>
      </trkpt>
      <trkpt lat="45.80721" lon="4.93753">
        <ele>172.2</ele>
        <time>2012-10-14T08:53:32Z</time>
      </trkpt>
      <trkpt lat="45.80714" lon="4.93753">
        <ele>172.2</ele>
        <time>2012-10-14T08:53:36Z</time>
      </trkpt>
      <trkpt lat="45.80709" lon="4.93753">
        <ele>172.2</ele>
        <time>2012-10-14T08:53:39Z</time>
      </trkpt>
      <trkpt lat="45.80708" lon="4.93753">
        <ele>172.2</ele>
        <time>2012-10-14T08:53:40Z</time>
      </trkpt>
      <trkpt lat="45.80701" lon="4.93752">
        <ele>172.4</ele>
        <time>2012-10-14T08:53:44Z</time>
      </trkpt>
      <trkpt lat="45.80698" lon="4.93751">
        <ele>172.4</ele>
        <time>2012-10-14T08:53:46Z</time>
      </trkpt>
      <trkpt lat="45.80697" lon="4.9375">
        <ele>172.4</ele>
        <time>2012-10-14T08:53:47Z</time>
      </trkpt>
      <trkpt lat="45.80695" lon="4.9375">
        <ele>172.4</ele>
        <time>2012-10-14T08:53:48Z</time>
      </trkpt>
      <trkpt lat="45.80691" lon="4.93748">
        <ele>172.4</ele>
        <time>2012-10-14T08:53:51Z</time>
      </trkpt>
      <trkpt lat="45.80684" lon="4.93746">
        <ele>172.4</ele>
        <time>2012-10-14T08:53:55Z</time>
      </trkpt>
      <trkpt lat="45.80679" lon="4.93744">
        <ele>172.4</ele>
        <time>2012-10-14T08:53:58Z</time>
      </trkpt>
      <trkpt lat="45.80674" lon="4.93743">
        <ele>172.4</ele>
        <time>2012-10-14T08:54:01Z</time>
      </trkpt>
      <trkpt lat="45.80672" lon="4.93742">
        <ele>172.4</ele>
        <time>2012-10-14T08:54:02Z</time>
      </trkpt>
      <trkpt lat="45.80669" lon="4.93742">
        <ele>172.4</ele>
        <time>2012-10-14T08:54:04Z</time>
      </trkpt>
      <trkpt lat="45.80665" lon="4.93741">
        <ele>172.6</ele>
        <time>2012-10-14T08:54:06Z</time>
      </trkpt>
      <trkpt lat="45.80659" lon="4.93739">
        <ele>172.6</ele>
        <time>2012-10-14T08:54:10Z</time>
      </trkpt>
      <trkpt lat="45.80656" lon="4.93738">
        <ele>172.8</ele>
        <time>2012-10-14T08:54:12Z</time>
      </trkpt>
      <trkpt lat="45.80653" lon="4.93737">
        <ele>172.8</ele>
        <time>2012-10-14T08:54:14Z</time>
      </trkpt>
      <trkpt lat="45.80647" lon="4.93735">
        <ele>172.8</ele>
        <time>2012-10-14T08:54:18Z</time>
      </trkpt>
      <trkpt lat="45.80641" lon="4.93733">
        <ele>173</ele>
        <time>2012-10-14T08:54:22Z</time>
      </trkpt>
      <trkpt lat="45.80637" lon="4.93731">
        <ele>173</ele>
        <time>2012-10-14T08:54:24Z</time>
      </trkpt>
      <trkpt lat="45.80634" lon="4.9373">
        <ele>173</ele>
        <time>2012-10-14T08:54:26Z</time>
      </trkpt>
      <trkpt lat="45.80627" lon="4.93727">
        <ele>172.8</ele>
        <time>2012-10-14T08:54:30Z</time>
      </trkpt>
      <trkpt lat="45.8062" lon="4.93723">
        <ele>172.8</ele>
        <time>2012-10-14T08:54:35Z</time>
      </trkpt>
      <trkpt lat="45.80618" lon="4.93722">
        <ele>172.8</ele>
        <time>2012-10-14T08:54:36Z</time>
      </trkpt>
      <trkpt lat="45.80614" lon="4.9372">
        <ele>172.8</ele>
        <time>2012-10-14T08:54:39Z</time>
      </trkpt>
      <trkpt lat="45.80607" lon="4.93719">
        <ele>172.8</ele>
        <time>2012-10-14T08:54:43Z</time>
      </trkpt>
      <trkpt lat="45.80601" lon="4.93717">
        <ele>172.8</ele>
        <time>2012-10-14T08:54:47Z</time>
      </trkpt>
      <trkpt lat="45.80594" lon="4.93716">
        <ele>172.8</ele>
        <time>2012-10-14T08:54:51Z</time>
      </trkpt>
      <trkpt lat="45.80587" lon="4.93714">
        <ele>172.8</ele>
        <time>2012-10-14T08:54:55Z</time>
      </trkpt>
      <trkpt lat="45.80583" lon="4.93712">
        <ele>172.8</ele>
        <time>2012-10-14T08:54:58Z</time>
      </trkpt>
      <trkpt lat="45.80581" lon="4.93712">
        <ele>172.8</ele>
        <time>2012-10-14T08:54:59Z</time>
      </trkpt>
      <trkpt lat="45.80577" lon="4.93711">
        <ele>172.8</ele>
        <time>2012-10-14T08:55:02Z</time>
      </trkpt>
      <trkpt lat="45.8057" lon="4.9371">
        <ele>172.8</ele>
        <time>2012-10-14T08:55:06Z</time>
      </trkpt>
      <trkpt lat="45.80565" lon="4.9371">
        <ele>173</ele>
        <time>2012-10-14T08:55:09Z</time>
      </trkpt>
      <trkpt lat="45.80563" lon="4.9371">
        <ele>173</ele>
        <time>2012-10-14T08:55:10Z</time>
      </trkpt>
      <trkpt lat="45.80557" lon="4.93709">
        <ele>173</ele>
        <time>2012-10-14T08:55:14Z</time>
      </trkpt>
      <trkpt lat="45.8055" lon="4.93707">
        <ele>173.2</ele>
        <time>2012-10-14T08:55:18Z</time>
      </trkpt>
      <trkpt lat="45.80547" lon="4.93707">
        <ele>173.2</ele>
        <time>2012-10-14T08:55:20Z</time>
      </trkpt>
      <trkpt lat="45.80544" lon="4.93706">
        <ele>173.4</ele>
        <time>2012-10-14T08:55:22Z</time>
      </trkpt>
      <trkpt lat="45.80538" lon="4.93704">
        <ele>173.4</ele>
        <time>2012-10-14T08:55:26Z</time>
      </trkpt>
      <trkpt lat="45.8053" lon="4.93702">
        <ele>173.4</ele>
        <time>2012-10-14T08:55:30Z</time>
      </trkpt>
      <trkpt lat="45.80529" lon="4.93701">
        <ele>173.6</ele>
        <time>2012-10-14T08:55:31Z</time>
      </trkpt>
      <trkpt lat="45.80524" lon="4.93701">
        <ele>173.6</ele>
        <time>2012-10-14T08:55:34Z</time>
      </trkpt>
      <trkpt lat="45.80517" lon="4.937">
        <ele>173.6</ele>
        <time>2012-10-14T08:55:38Z</time>
      </trkpt>
      <trkpt lat="45.8051" lon="4.93699">
        <ele>173.6</ele>
        <time>2012-10-14T08:55:42Z</time>
      </trkpt>
      <trkpt lat="45.80503" lon="4.93696">
        <ele>173.6</ele>
        <time>2012-10-14T08:55:46Z</time>
      </trkpt>
      <trkpt lat="45.80495" lon="4.93693">
        <ele>173.6</ele>
        <time>2012-10-14T08:55:51Z</time>
      </trkpt>
      <trkpt lat="45.80491" lon="4.93692">
        <ele>173.6</ele>
        <time>2012-10-14T08:55:53Z</time>
      </trkpt>
      <trkpt lat="45.80488" lon="4.93691">
        <ele>173.6</ele>
        <time>2012-10-14T08:55:55Z</time>
      </trkpt>
      <trkpt lat="45.80483" lon="4.9369">
        <ele>173.6</ele>
        <time>2012-10-14T08:55:58Z</time>
      </trkpt>
      <trkpt lat="45.80477" lon="4.93687">
        <ele>173.6</ele>
        <time>2012-10-14T08:56:02Z</time>
      </trkpt>
      <trkpt lat="45.80474" lon="4.93685">
        <ele>173.6</ele>
        <time>2012-10-14T08:56:04Z</time>
      </trkpt>
      <trkpt lat="45.80471" lon="4.93683">
        <ele>173.6</ele>
        <time>2012-10-14T08:56:06Z</time>
      </trkpt>
      <trkpt lat="45.80463" lon="4.93682">
        <ele>173.6</ele>
        <time>2012-10-14T08:56:11Z</time>
      </trkpt>
      <trkpt lat="45.80457" lon="4.9368">
        <ele>173.6</ele>
        <time>2012-10-14T08:56:15Z</time>
      </trkpt>
      <trkpt lat="45.80451" lon="4.93678">
        <ele>173.4</ele>
        <time>2012-10-14T08:56:19Z</time>
      </trkpt>
      <trkpt lat="45.80447" lon="4.93678">
        <ele>173.4</ele>
        <time>2012-10-14T08:56:21Z</time>
      </trkpt>
      <trkpt lat="45.80444" lon="4.93677">
        <ele>173.4</ele>
        <time>2012-10-14T08:56:23Z</time>
      </trkpt>
      <trkpt lat="45.80438" lon="4.93676">
        <ele>173.4</ele>
        <time>2012-10-14T08:56:27Z</time>
      </trkpt>
      <trkpt lat="45.80431" lon="4.93675">
        <ele>173.4</ele>
        <time>2012-10-14T08:56:31Z</time>
      </trkpt>
      <trkpt lat="45.80425" lon="4.93673">
        <ele>173.4</ele>
        <time>2012-10-14T08:56:35Z</time>
      </trkpt>
      <trkpt lat="45.80419" lon="4.93671">
        <ele>173.4</ele>
        <time>2012-10-14T08:56:39Z</time>
      </trkpt>
      <trkpt lat="45.80413" lon="4.93668">
        <ele>173.4</ele>
        <time>2012-10-14T08:56:43Z</time>
      </trkpt>
      <trkpt lat="45.80407" lon="4.93665">
        <ele>173.6</ele>
        <time>2012-10-14T08:56:47Z</time>
      </trkpt>
      <trkpt lat="45.80401" lon="4.93663">
        <ele>173.6</ele>
        <time>2012-10-14T08:56:51Z</time>
      </trkpt>
      <trkpt lat="45.80394" lon="4.93662">
        <ele>173.6</ele>
        <time>2012-10-14T08:56:55Z</time>
      </trkpt>
      <trkpt lat="45.80388" lon="4.9366">
        <ele>173.6</ele>
        <time>2012-10-14T08:56:59Z</time>
      </trkpt>
      <trkpt lat="45.80383" lon="4.93658">
        <ele>173.8</ele>
        <time>2012-10-14T08:57:02Z</time>
      </trkpt>
      <trkpt lat="45.80382" lon="4.93658">
        <ele>173.8</ele>
        <time>2012-10-14T08:57:03Z</time>
      </trkpt>
      <trkpt lat="45.80375" lon="4.93655">
        <ele>173.8</ele>
        <time>2012-10-14T08:57:07Z</time>
      </trkpt>
      <trkpt lat="45.80369" lon="4.93653">
        <ele>173.8</ele>
        <time>2012-10-14T08:57:11Z</time>
      </trkpt>
      <trkpt lat="45.80366" lon="4.93651">
        <ele>173.8</ele>
        <time>2012-10-14T08:57:13Z</time>
      </trkpt>
      <trkpt lat="45.80363" lon="4.9365">
        <ele>174</ele>
        <time>2012-10-14T08:57:15Z</time>
      </trkpt>
      <trkpt lat="45.80356" lon="4.93648">
        <ele>174</ele>
        <time>2012-10-14T08:57:19Z</time>
      </trkpt>
      <trkpt lat="45.8035" lon="4.93645">
        <ele>174.2</ele>
        <time>2012-10-14T08:57:23Z</time>
      </trkpt>
      <trkpt lat="45.80349" lon="4.93645">
        <ele>174.2</ele>
        <time>2012-10-14T08:57:24Z</time>
      </trkpt>
      <trkpt lat="45.80344" lon="4.93643">
        <ele>174.2</ele>
        <time>2012-10-14T08:57:27Z</time>
      </trkpt>
      <trkpt lat="45.80337" lon="4.93641">
        <ele>174.2</ele>
        <time>2012-10-14T08:57:31Z</time>
      </trkpt>
      <trkpt lat="45.80332" lon="4.93639">
        <ele>174.2</ele>
        <time>2012-10-14T08:57:34Z</time>
      </trkpt>
      <trkpt lat="45.8033" lon="4.93639">
        <ele>174.2</ele>
        <time>2012-10-14T08:57:35Z</time>
      </trkpt>
      <trkpt lat="45.80327" lon="4.93638">
        <ele>174.2</ele>
        <time>2012-10-14T08:57:37Z</time>
      </trkpt>
      <trkpt lat="45.80323" lon="4.93636">
        <ele>174.2</ele>
        <time>2012-10-14T08:57:40Z</time>
      </trkpt>
      <trkpt lat="45.80319" lon="4.93634">
        <ele>174.2</ele>
        <time>2012-10-14T08:57:43Z</time>
      </trkpt>
      <trkpt lat="45.80319" lon="4.93634">
        <ele>174.2</ele>
        <time>2012-10-14T08:57:44Z</time>
      </trkpt>
      <trkpt lat="45.80318" lon="4.93632">
        <ele>174.2</ele>
        <time>2012-10-14T08:57:48Z</time>
      </trkpt>
      <trkpt lat="45.80316" lon="4.93631">
        <ele>174.2</ele>
        <time>2012-10-14T08:57:49Z</time>
      </trkpt>
      <trkpt lat="45.80313" lon="4.93628">
        <ele>174.2</ele>
        <time>2012-10-14T08:57:51Z</time>
      </trkpt>
      <trkpt lat="45.80305" lon="4.93625">
        <ele>174</ele>
        <time>2012-10-14T08:57:54Z</time>
      </trkpt>
      <trkpt lat="45.80303" lon="4.93624">
        <ele>174</ele>
        <time>2012-10-14T08:57:55Z</time>
      </trkpt>
      <trkpt lat="45.80293" lon="4.93622">
        <ele>174</ele>
        <time>2012-10-14T08:57:59Z</time>
      </trkpt>
      <trkpt lat="45.80276" lon="4.93621">
        <ele>174</ele>
        <time>2012-10-14T08:58:05Z</time>
      </trkpt>
      <trkpt lat="45.80273" lon="4.93621">
        <ele>174</ele>
        <time>2012-10-14T08:58:06Z</time>
      </trkpt>
      <trkpt lat="45.8026" lon="4.93618">
        <ele>174.2</ele>
        <time>2012-10-14T08:58:11Z</time>
      </trkpt>
      <trkpt lat="45.80255" lon="4.93617">
        <ele>174.2</ele>
        <time>2012-10-14T08:58:13Z</time>
      </trkpt>
      <trkpt lat="45.80249" lon="4.93615">
        <ele>174</ele>
        <time>2012-10-14T08:58:16Z</time>
      </trkpt>
      <trkpt lat="45.8025" lon="4.93614">
        <ele>174</ele>
        <time>2012-10-14T08:58:22Z</time>
      </trkpt>
      <trkpt lat="45.80251" lon="4.93618">
        <ele>174</ele>
        <time>2012-10-14T08:58:27Z</time>
      </trkpt>
      <trkpt lat="45.80252" lon="4.9362">
        <ele>173.8</ele>
        <time>2012-10-14T08:58:28Z</time>
      </trkpt>
      <trkpt lat="45.80256" lon="4.93629">
        <ele>173.8</ele>
        <time>2012-10-14T08:58:31Z</time>
      </trkpt>
      <trkpt lat="45.8026" lon="4.93635">
        <ele>173.8</ele>
        <time>2012-10-14T08:58:33Z</time>
      </trkpt>
      <trkpt lat="45.80272" lon="4.93644">
        <ele>173.8</ele>
        <time>2012-10-14T08:58:38Z</time>
      </trkpt>
      <trkpt lat="45.80284" lon="4.93647">
        <ele>173.8</ele>
        <time>2012-10-14T08:58:43Z</time>
      </trkpt>
      <trkpt lat="45.80284" lon="4.93648">
        <ele>173.8</ele>
        <time>2012-10-14T08:58:44Z</time>
      </trkpt>
      <trkpt lat="45.80284" lon="4.93648">
        <ele>173.8</ele>
        <time>2012-10-14T08:58:45Z</time>
      </trkpt>
      <trkpt lat="45.80283" lon="4.93655">
        <ele>173.8</ele>
        <time>2012-10-14T08:58:48Z</time>
      </trkpt>
      <trkpt lat="45.80282" lon="4.93658">
        <ele>173.8</ele>
        <time>2012-10-14T08:58:50Z</time>
      </trkpt>
      <trkpt lat="45.80279" lon="4.93663">
        <ele>173.8</ele>
        <time>2012-10-14T08:58:53Z</time>
      </trkpt>
      <trkpt lat="45.80274" lon="4.93671">
        <ele>173.8</ele>
        <time>2012-10-14T08:58:58Z</time>
      </trkpt>
      <trkpt lat="45.80272" lon="4.93678">
        <ele>173.8</ele>
        <time>2012-10-14T08:59:02Z</time>
      </trkpt>
      <trkpt lat="45.80271" lon="4.9368">
        <ele>173.8</ele>
        <time>2012-10-14T08:59:03Z</time>
      </trkpt>
      <trkpt lat="45.80271" lon="4.93682">
        <ele>173.8</ele>
        <time>2012-10-14T08:59:04Z</time>
      </trkpt>
      <trkpt lat="45.80271" lon="4.93684">
        <ele>173.8</ele>
        <time>2012-10-14T08:59:05Z</time>
      </trkpt>
      <trkpt lat="45.80272" lon="4.93691">
        <ele>173.8</ele>
        <time>2012-10-14T08:59:08Z</time>
      </trkpt>
      <trkpt lat="45.80273" lon="4.93702">
        <ele>174</ele>
        <time>2012-10-14T08:59:13Z</time>
      </trkpt>
      <trkpt lat="45.80274" lon="4.93706">
        <ele>174</ele>
        <time>2012-10-14T08:59:15Z</time>
      </trkpt>
      <trkpt lat="45.80274" lon="4.93711">
        <ele>173.8</ele>
        <time>2012-10-14T08:59:17Z</time>
      </trkpt>
      <trkpt lat="45.80274" lon="4.93713">
        <ele>174</ele>
        <time>2012-10-14T08:59:18Z</time>
      </trkpt>
      <trkpt lat="45.80272" lon="4.93722">
        <ele>174</ele>
        <time>2012-10-14T08:59:22Z</time>
      </trkpt>
      <trkpt lat="45.80271" lon="4.93731">
        <ele>174</ele>
        <time>2012-10-14T08:59:26Z</time>
      </trkpt>
      <trkpt lat="45.80271" lon="4.93733">
        <ele>174</ele>
        <time>2012-10-14T08:59:27Z</time>
      </trkpt>
      <trkpt lat="45.8027" lon="4.9374">
        <ele>174</ele>
        <time>2012-10-14T08:59:30Z</time>
      </trkpt>
      <trkpt lat="45.8027" lon="4.93747">
        <ele>174.2</ele>
        <time>2012-10-14T08:59:33Z</time>
      </trkpt>
      <trkpt lat="45.80268" lon="4.93757">
        <ele>174.2</ele>
        <time>2012-10-14T08:59:37Z</time>
      </trkpt>
      <trkpt lat="45.80268" lon="4.93759">
        <ele>174.2</ele>
        <time>2012-10-14T08:59:38Z</time>
      </trkpt>
      <trkpt lat="45.80267" lon="4.93764">
        <ele>174.2</ele>
        <time>2012-10-14T08:59:40Z</time>
      </trkpt>
      <trkpt lat="45.80266" lon="4.93774">
        <ele>174.2</ele>
        <time>2012-10-14T08:59:44Z</time>
      </trkpt>
      <trkpt lat="45.80264" lon="4.93784">
        <ele>174.4</ele>
        <time>2012-10-14T08:59:48Z</time>
      </trkpt>
      <trkpt lat="45.80264" lon="4.93786">
        <ele>174.4</ele>
        <time>2012-10-14T08:59:49Z</time>
      </trkpt>
      <trkpt lat="45.80262" lon="4.93794">
        <ele>174.4</ele>
        <time>2012-10-14T08:59:52Z</time>
      </trkpt>
      <trkpt lat="45.80261" lon="4.93808">
        <ele>174.4</ele>
        <time>2012-10-14T08:59:58Z</time>
      </trkpt>
      <trkpt lat="45.80261" lon="4.93814">
        <ele>174.4</ele>
        <time>2012-10-14T09:00:00Z</time>
      </trkpt>
      <trkpt lat="45.80261" lon="4.93821">
        <ele>174.4</ele>
        <time>2012-10-14T09:00:03Z</time>
      </trkpt>
      <trkpt lat="45.8026" lon="4.9383">
        <ele>174.6</ele>
        <time>2012-10-14T09:00:07Z</time>
      </trkpt>
      <trkpt lat="45.8026" lon="4.9384">
        <ele>174.6</ele>
        <time>2012-10-14T09:00:11Z</time>
      </trkpt>
      <trkpt lat="45.80259" lon="4.93849">
        <ele>174.8</ele>
        <time>2012-10-14T09:00:15Z</time>
      </trkpt>
      <trkpt lat="45.80258" lon="4.93859">
        <ele>174.8</ele>
        <time>2012-10-14T09:00:19Z</time>
      </trkpt>
      <trkpt lat="45.80258" lon="4.93866">
        <ele>174.8</ele>
        <time>2012-10-14T09:00:22Z</time>
      </trkpt>
      <trkpt lat="45.80257" lon="4.93868">
        <ele>174.8</ele>
        <time>2012-10-14T09:00:23Z</time>
      </trkpt>
      <trkpt lat="45.80256" lon="4.93877">
        <ele>175</ele>
        <time>2012-10-14T09:00:27Z</time>
      </trkpt>
      <trkpt lat="45.80255" lon="4.93887">
        <ele>175.2</ele>
        <time>2012-10-14T09:00:31Z</time>
      </trkpt>
      <trkpt lat="45.80254" lon="4.93892">
        <ele>175.4</ele>
        <time>2012-10-14T09:00:33Z</time>
      </trkpt>
      <trkpt lat="45.80254" lon="4.93897">
        <ele>175.4</ele>
        <time>2012-10-14T09:00:35Z</time>
      </trkpt>
      <trkpt lat="45.80253" lon="4.93907">
        <ele>175.6</ele>
        <time>2012-10-14T09:00:39Z</time>
      </trkpt>
      <trkpt lat="45.80251" lon="4.93914">
        <ele>175.6</ele>
        <time>2012-10-14T09:00:42Z</time>
      </trkpt>
      <trkpt lat="45.80251" lon="4.93917">
        <ele>175.6</ele>
        <time>2012-10-14T09:00:43Z</time>
      </trkpt>
      <trkpt lat="45.80251" lon="4.93919">
        <ele>175.6</ele>
        <time>2012-10-14T09:00:44Z</time>
      </trkpt>
      <trkpt lat="45.8025" lon="4.93926">
        <ele>175.6</ele>
        <time>2012-10-14T09:00:47Z</time>
      </trkpt>
      <trkpt lat="45.80248" lon="4.93936">
        <ele>175.8</ele>
        <time>2012-10-14T09:00:51Z</time>
      </trkpt>
      <trkpt lat="45.80246" lon="4.93945">
        <ele>175.8</ele>
        <time>2012-10-14T09:00:55Z</time>
      </trkpt>
      <trkpt lat="45.80245" lon="4.93952">
        <ele>176</ele>
        <time>2012-10-14T09:00:58Z</time>
      </trkpt>
      <trkpt lat="45.80245" lon="4.93954">
        <ele>175.8</ele>
        <time>2012-10-14T09:00:59Z</time>
      </trkpt>
      <trkpt lat="45.80243" lon="4.93964">
        <ele>176</ele>
        <time>2012-10-14T09:01:03Z</time>
      </trkpt>
      <trkpt lat="45.80242" lon="4.93971">
        <ele>176</ele>
        <time>2012-10-14T09:01:06Z</time>
      </trkpt>
      <trkpt lat="45.80242" lon="4.93973">
        <ele>176</ele>
        <time>2012-10-14T09:01:07Z</time>
      </trkpt>
      <trkpt lat="45.80241" lon="4.9398">
        <ele>176</ele>
        <time>2012-10-14T09:01:10Z</time>
      </trkpt>
      <trkpt lat="45.8024" lon="4.93987">
        <ele>176</ele>
        <time>2012-10-14T09:01:13Z</time>
      </trkpt>
      <trkpt lat="45.80238" lon="4.93997">
        <ele>176.2</ele>
        <time>2012-10-14T09:01:17Z</time>
      </trkpt>
      <trkpt lat="45.80236" lon="4.94006">
        <ele>176.2</ele>
        <time>2012-10-14T09:01:21Z</time>
      </trkpt>
      <trkpt lat="45.80234" lon="4.94015">
        <ele>176.4</ele>
        <time>2012-10-14T09:01:25Z</time>
      </trkpt>
      <trkpt lat="45.80232" lon="4.94022">
        <ele>176.4</ele>
        <time>2012-10-14T09:01:28Z</time>
      </trkpt>
      <trkpt lat="45.80232" lon="4.94025">
        <ele>176.4</ele>
        <time>2012-10-14T09:01:29Z</time>
      </trkpt>
      <trkpt lat="45.8023" lon="4.94034">
        <ele>176.4</ele>
        <time>2012-10-14T09:01:33Z</time>
      </trkpt>
      <trkpt lat="45.80227" lon="4.94044">
        <ele>176.4</ele>
        <time>2012-10-14T09:01:37Z</time>
      </trkpt>
      <trkpt lat="45.80226" lon="4.94048">
        <ele>176.6</ele>
        <time>2012-10-14T09:01:39Z</time>
      </trkpt>
      <trkpt lat="45.80225" lon="4.94053">
        <ele>176.6</ele>
        <time>2012-10-14T09:01:41Z</time>
      </trkpt>
      <trkpt lat="45.80224" lon="4.94055">
        <ele>176.6</ele>
        <time>2012-10-14T09:01:42Z</time>
      </trkpt>
      <trkpt lat="45.80222" lon="4.94062">
        <ele>176.6</ele>
        <time>2012-10-14T09:01:45Z</time>
      </trkpt>
      <trkpt lat="45.8022" lon="4.94071">
        <ele>176.6</ele>
        <time>2012-10-14T09:01:49Z</time>
      </trkpt>
      <trkpt lat="45.8022" lon="4.94073">
        <ele>176.6</ele>
        <time>2012-10-14T09:01:50Z</time>
      </trkpt>
      <trkpt lat="45.80219" lon="4.94078">
        <ele>176.6</ele>
        <time>2012-10-14T09:01:52Z</time>
      </trkpt>
      <trkpt lat="45.80219" lon="4.9408">
        <ele>176.6</ele>
        <time>2012-10-14T09:01:53Z</time>
      </trkpt>
      <trkpt lat="45.80219" lon="4.94085">
        <ele>176.6</ele>
        <time>2012-10-14T09:01:55Z</time>
      </trkpt>
      <trkpt lat="45.80217" lon="4.94092">
        <ele>176.6</ele>
        <time>2012-10-14T09:01:58Z</time>
      </trkpt>
      <trkpt lat="45.80216" lon="4.94098">
        <ele>176.6</ele>
        <time>2012-10-14T09:02:01Z</time>
      </trkpt>
      <trkpt lat="45.80215" lon="4.94101">
        <ele>176.6</ele>
        <time>2012-10-14T09:02:02Z</time>
      </trkpt>
      <trkpt lat="45.80212" lon="4.9411">
        <ele>176.6</ele>
        <time>2012-10-14T09:02:06Z</time>
      </trkpt>
      <trkpt lat="45.8021" lon="4.9412">
        <ele>176.6</ele>
        <time>2012-10-14T09:02:10Z</time>
      </trkpt>
      <trkpt lat="45.80209" lon="4.94122">
        <ele>176.6</ele>
        <time>2012-10-14T09:02:11Z</time>
      </trkpt>
      <trkpt lat="45.80209" lon="4.94126">
        <ele>176.6</ele>
        <time>2012-10-14T09:02:14Z</time>
      </trkpt>
      <trkpt lat="45.80208" lon="4.9413">
        <ele>176.4</ele>
        <time>2012-10-14T09:02:18Z</time>
      </trkpt>
      <trkpt lat="45.80208" lon="4.94131">
        <ele>176.4</ele>
        <time>2012-10-14T09:02:19Z</time>
      </trkpt>
      <trkpt lat="45.80207" lon="4.94135">
        <ele>176.4</ele>
        <time>2012-10-14T09:02:24Z</time>
      </trkpt>
      <trkpt lat="45.80202" lon="4.94145">
        <ele>176.2</ele>
        <time>2012-10-14T09:02:29Z</time>
      </trkpt>
      <trkpt lat="45.80199" lon="4.94152">
        <ele>176.2</ele>
        <time>2012-10-14T09:02:32Z</time>
      </trkpt>
      <trkpt lat="45.80198" lon="4.94154">
        <ele>176</ele>
        <time>2012-10-14T09:02:33Z</time>
      </trkpt>
      <trkpt lat="45.80195" lon="4.94158">
        <ele>175.8</ele>
        <time>2012-10-14T09:02:36Z</time>
      </trkpt>
      <trkpt lat="45.80193" lon="4.9416">
        <ele>175.8</ele>
        <time>2012-10-14T09:02:38Z</time>
      </trkpt>
      <trkpt lat="45.8019" lon="4.94167">
        <ele>175.6</ele>
        <time>2012-10-14T09:02:41Z</time>
      </trkpt>
      <trkpt lat="45.80187" lon="4.94172">
        <ele>175.4</ele>
        <time>2012-10-14T09:02:43Z</time>
      </trkpt>
      <trkpt lat="45.80183" lon="4.94181">
        <ele>175</ele>
        <time>2012-10-14T09:02:47Z</time>
      </trkpt>
      <trkpt lat="45.80182" lon="4.9418">
        <ele>174.8</ele>
        <time>2012-10-14T09:02:53Z</time>
      </trkpt>
      <trkpt lat="45.80182" lon="4.94179">
        <ele>174.6</ele>
        <time>2012-10-14T09:03:00Z</time>
      </trkpt>
      <trkpt lat="45.8018" lon="4.94175">
        <ele>174.4</ele>
        <time>2012-10-14T09:03:07Z</time>
      </trkpt>
      <trkpt lat="45.80176" lon="4.9417">
        <ele>174.4</ele>
        <time>2012-10-14T09:03:11Z</time>
      </trkpt>
      <trkpt lat="45.80174" lon="4.9417">
        <ele>174.4</ele>
        <time>2012-10-14T09:03:12Z</time>
      </trkpt>
      <trkpt lat="45.80165" lon="4.94167">
        <ele>174.4</ele>
        <time>2012-10-14T09:03:16Z</time>
      </trkpt>
      <trkpt lat="45.8016" lon="4.94164">
        <ele>174.4</ele>
        <time>2012-10-14T09:03:18Z</time>
      </trkpt>
      <trkpt lat="45.80147" lon="4.94161">
        <ele>174.8</ele>
        <time>2012-10-14T09:03:23Z</time>
      </trkpt>
      <trkpt lat="45.80134" lon="4.94155">
        <ele>175.4</ele>
        <time>2012-10-14T09:03:29Z</time>
      </trkpt>
      <trkpt lat="45.8013" lon="4.94152">
        <ele>175.8</ele>
        <time>2012-10-14T09:03:31Z</time>
      </trkpt>
      <trkpt lat="45.80124" lon="4.94145">
        <ele>176.2</ele>
        <time>2012-10-14T09:03:34Z</time>
      </trkpt>
      <trkpt lat="45.80121" lon="4.94134">
        <ele>176.8</ele>
        <time>2012-10-14T09:03:37Z</time>
      </trkpt>
      <trkpt lat="45.80123" lon="4.9413">
        <ele>176.8</ele>
        <time>2012-10-14T09:03:38Z</time>
      </trkpt>
      <trkpt lat="45.80128" lon="4.94104">
        <ele>178.2</ele>
        <time>2012-10-14T09:03:45Z</time>
      </trkpt>
      <trkpt lat="45.80121" lon="4.94094">
        <ele>178.8</ele>
        <time>2012-10-14T09:03:49Z</time>
      </trkpt>
      <trkpt lat="45.80114" lon="4.94088">
        <ele>179.2</ele>
        <time>2012-10-14T09:03:52Z</time>
      </trkpt>
      <trkpt lat="45.80106" lon="4.94082">
        <ele>179.4</ele>
        <time>2012-10-14T09:03:56Z</time>
      </trkpt>
      <trkpt lat="45.80099" lon="4.94073">
        <ele>179.6</ele>
        <time>2012-10-14T09:04:00Z</time>
      </trkpt>
      <trkpt lat="45.80099" lon="4.9407">
        <ele>179.6</ele>
        <time>2012-10-14T09:04:01Z</time>
      </trkpt>
      <trkpt lat="45.80099" lon="4.94068">
        <ele>179.8</ele>
        <time>2012-10-14T09:04:02Z</time>
      </trkpt>
      <trkpt lat="45.80101" lon="4.94065">
        <ele>180</ele>
        <time>2012-10-14T09:04:05Z</time>
      </trkpt>
      <trkpt lat="45.80102" lon="4.94065">
        <ele>180</ele>
        <time>2012-10-14T09:04:06Z</time>
      </trkpt>
      <trkpt lat="45.80103" lon="4.94065">
        <ele>180.2</ele>
        <time>2012-10-14T09:04:11Z</time>
      </trkpt>
      <trkpt lat="45.80104" lon="4.94067">
        <ele>181.2</ele>
        <time>2012-10-14T09:04:28Z</time>
      </trkpt>
    </trkseg>
    </trkseg>
      <trkpt lat="45.80101" lon="4.94067">
        <ele>181.2</ele>
        <time>2012-10-14T09:04:45Z</time>
      </trkpt>
      <trkpt lat="45.801" lon="4.94067">
        <ele>181.2</ele>
        <time>2012-10-14T09:04:46Z</time>
      </trkpt>
      <trkpt lat="45.80096" lon="4.94061">
        <ele>181</ele>
        <time>2012-10-14T09:04:49Z</time>
      </trkpt>
      <trkpt lat="45.80086" lon="4.9405">
        <ele>181</ele>
        <time>2012-10-14T09:04:53Z</time>
      </trkpt>
      <trkpt lat="45.80081" lon="4.94049">
        <ele>181</ele>
        <time>2012-10-14T09:04:54Z</time>
      </trkpt>
      <trkpt lat="45.80058" lon="4.9404">
        <ele>180.8</ele>
        <time>2012-10-14T09:04:59Z</time>
      </trkpt>
      <trkpt lat="45.8005" lon="4.94034">
        <ele>180.8</ele>
        <time>2012-10-14T09:05:03Z</time>
      </trkpt>
      <trkpt lat="45.80048" lon="4.94032">
        <ele>180.8</ele>
        <time>2012-10-14T09:05:05Z</time>
      </trkpt>
      <trkpt lat="45.80048" lon="4.94029">
        <ele>180.8</ele>
        <time>2012-10-14T09:05:08Z</time>
      </trkpt>
      <trkpt lat="45.80048" lon="4.94029">
        <ele>180.8</ele>
        <time>2012-10-14T09:05:12Z</time>
      </trkpt>
      <trkpt lat="45.80048" lon="4.94027">
        <ele>182.4</ele>
        <time>2012-10-14T09:05:43Z</time>
      </trkpt>
      <trkpt lat="45.80046" lon="4.94028">
        <ele>182.8</ele>
        <time>2012-10-14T09:05:44Z</time>
      </trkpt>
      <trkpt lat="45.8004" lon="4.94022">
        <ele>183</ele>
        <time>2012-10-14T09:05:47Z</time>
      </trkpt>
      <trkpt lat="45.80038" lon="4.94018">
        <ele>183</ele>
        <time>2012-10-14T09:05:48Z</time>
      </trkpt>
      <trkpt lat="45.80028" lon="4.93998">
        <ele>183</ele>
        <time>2012-10-14T09:05:52Z</time>
      </trkpt>
      <trkpt lat="45.80025" lon="4.93994">
        <ele>183</ele>
        <time>2012-10-14T09:05:53Z</time>
      </trkpt>
      <trkpt lat="45.80013" lon="4.93987">
        <ele>183.2</ele>
        <time>2012-10-14T09:05:56Z</time>
      </trkpt>
      <trkpt lat="45.80009" lon="4.93986">
        <ele>183.2</ele>
        <time>2012-10-14T09:05:57Z</time>
      </trkpt>
      <trkpt lat="45.79994" lon="4.93987">
        <ele>183.2</ele>
        <time>2012-10-14T09:06:00Z</time>
      </trkpt>
      <trkpt lat="45.7999" lon="4.93989">
        <ele>183.2</ele>
        <time>2012-10-14T09:06:01Z</time>
      </trkpt>
      <trkpt lat="45.7995" lon="4.94004">
        <ele>183.4</ele>
        <time>2012-10-14T09:06:09Z</time>
      </trkpt>
      <trkpt lat="45.79917" lon="4.9401">
        <ele>183.4</ele>
        <time>2012-10-14T09:06:16Z</time>
      </trkpt>
      <trkpt lat="45.79913" lon="4.94011">
        <ele>183.4</ele>
        <time>2012-10-14T09:06:17Z</time>
      </trkpt>
      <trkpt lat="45.79896" lon="4.94017">
        <ele>183.4</ele>
        <time>2012-10-14T09:06:21Z</time>
      </trkpt>
      <trkpt lat="45.79885" lon="4.94025">
        <ele>183.4</ele>
        <time>2012-10-14T09:06:24Z</time>
      </trkpt>
      <trkpt lat="45.79882" lon="4.9403">
        <ele>183.4</ele>
        <time>2012-10-14T09:06:25Z</time>
      </trkpt>
      <trkpt lat="45.7988" lon="4.94036">
        <ele>183.4</ele>
        <time>2012-10-14T09:06:26Z</time>
      </trkpt>
      <trkpt lat="45.79876" lon="4.94049">
        <ele>183.4</ele>
        <time>2012-10-14T09:06:28Z</time>
      </trkpt>
      <trkpt lat="45.79873" lon="4.94054">
        <ele>183.4</ele>
        <time>2012-10-14T09:06:29Z</time>
      </trkpt>
      <trkpt lat="45.79861" lon="4.94062">
        <ele>183.4</ele>
        <time>2012-10-14T09:06:32Z</time>
      </trkpt>
      <trkpt lat="45.79856" lon="4.94063">
        <ele>183.4</ele>
        <time>2012-10-14T09:06:33Z</time>
      </trkpt>
      <trkpt lat="45.79852" lon="4.94063">
        <ele>183.4</ele>
        <time>2012-10-14T09:06:34Z</time>
      </trkpt>
      <trkpt lat="45.79843" lon="4.94063">
        <ele>183.4</ele>
        <time>2012-10-14T09:06:36Z</time>
      </trkpt>
      <trkpt lat="45.79834" lon="4.94056">
        <ele>183.2</ele>
        <time>2012-10-14T09:06:38Z</time>
      </trkpt>
      <trkpt lat="45.79816" lon="4.94044">
        <ele>183.2</ele>
        <time>2012-10-14T09:06:42Z</time>
      </trkpt>
      <trkpt lat="45.79812" lon="4.94042">
        <ele>183.2</ele>
        <time>2012-10-14T09:06:43Z</time>
      </trkpt>
      <trkpt lat="45.79803" lon="4.94036">
        <ele>183</ele>
        <time>2012-10-14T09:06:45Z</time>
      </trkpt>
      <trkpt lat="45.79799" lon="4.94023">
        <ele>183</ele>
        <time>2012-10-14T09:06:47Z</time>
      </trkpt>
      <trkpt lat="45.79799" lon="4.94007">
        <ele>183</ele>
        <time>2012-10-14T09:06:49Z</time>
      </trkpt>
      <trkpt lat="45.798" lon="4.94">
        <ele>183</ele>
        <time>2012-10-14T09:06:50Z</time>
      </trkpt>
      <trkpt lat="45.79799" lon="4.93992">
        <ele>183</ele>
        <time>2012-10-14T09:06:51Z</time>
      </trkpt>
      <trkpt lat="45.79797" lon="4.93953">
        <ele>182.8</ele>
        <time>2012-10-14T09:06:56Z</time>
      </trkpt>
      <trkpt lat="45.79797" lon="4.93946">
        <ele>182.8</ele>
        <time>2012-10-14T09:06:57Z</time>
      </trkpt>
      <trkpt lat="45.79796" lon="4.9393">
        <ele>182.8</ele>
        <time>2012-10-14T09:06:59Z</time>
      </trkpt>
      <trkpt lat="45.79795" lon="4.93914">
        <ele>183</ele>
        <time>2012-10-14T09:07:01Z</time>
      </trkpt>
      <trkpt lat="45.79795" lon="4.93906">
        <ele>183</ele>
        <time>2012-10-14T09:07:02Z</time>
      </trkpt>
      <trkpt lat="45.79797" lon="4.93899">
        <ele>183</ele>
        <time>2012-10-14T09:07:03Z</time>
      </trkpt>
      <trkpt lat="45.79801" lon="4.93884">
        <ele>183.2</ele>
        <time>2012-10-14T09:07:05Z</time>
      </trkpt>
      <trkpt lat="45.79811" lon="4.93848">
        <ele>183</ele>
        <time>2012-10-14T09:07:10Z</time>
      </trkpt>
      <trkpt lat="45.79815" lon="4.93835">
        <ele>183</ele>
        <time>2012-10-14T09:07:12Z</time>
      </trkpt>
      <trkpt lat="45.79827" lon="4.93819">
        <ele>182.8</ele>
        <time>2012-10-14T09:07:16Z</time>
      </trkpt>
      <trkpt lat="45.79838" lon="4.93809">
        <ele>182.8</ele>
        <time>2012-10-14T09:07:19Z</time>
      </trkpt>
      <trkpt lat="45.79849" lon="4.93798">
        <ele>182.6</ele>
        <time>2012-10-14T09:07:22Z</time>
      </trkpt>
      <trkpt lat="45.7986" lon="4.93791">
        <ele>182.6</ele>
        <time>2012-10-14T09:07:24Z</time>
      </trkpt>
      <trkpt lat="45.79869" lon="4.93786">
        <ele>182.6</ele>
        <time>2012-10-14T09:07:26Z</time>
      </trkpt>
      <trkpt lat="45.79874" lon="4.93783">
        <ele>182.4</ele>
        <time>2012-10-14T09:07:27Z</time>
      </trkpt>
      <trkpt lat="45.799" lon="4.9377">
        <ele>182.2</ele>
        <time>2012-10-14T09:07:32Z</time>
      </trkpt>
      <trkpt lat="45.79907" lon="4.93768">
        <ele>182.2</ele>
        <time>2012-10-14T09:07:33Z</time>
      </trkpt>
      <trkpt lat="45.79934" lon="4.93758">
        <ele>182.2</ele>
        <time>2012-10-14T09:07:38Z</time>
      </trkpt>
      <trkpt lat="45.79947" lon="4.93753">
        <ele>182</ele>
        <time>2012-10-14T09:07:40Z</time>
      </trkpt>
      <trkpt lat="45.79962" lon="4.93745">
        <ele>182</ele>
        <time>2012-10-14T09:07:43Z</time>
      </trkpt>
      <trkpt lat="45.7998" lon="4.93727">
        <ele>182</ele>
        <time>2012-10-14T09:07:47Z</time>
      </trkpt>
      <trkpt lat="45.79985" lon="4.93723">
        <ele>182</ele>
        <time>2012-10-14T09:07:48Z</time>
      </trkpt>
      <trkpt lat="45.79995" lon="4.93715">
        <ele>182</ele>
        <time>2012-10-14T09:07:50Z</time>
      </trkpt>
      <trkpt lat="45.80008" lon="4.93708">
        <ele>182</ele>
        <time>2012-10-14T09:07:53Z</time>
      </trkpt>
      <trkpt lat="45.80015" lon="4.93702">
        <ele>182</ele>
        <time>2012-10-14T09:07:55Z</time>
      </trkpt>
      <trkpt lat="45.80025" lon="4.93696">
        <ele>182</ele>
        <time>2012-10-14T09:07:58Z</time>
      </trkpt>
      <trkpt lat="45.80039" lon="4.9369">
        <ele>182.2</ele>
        <time>2012-10-14T09:08:02Z</time>
      </trkpt>
      <trkpt lat="45.80047" lon="4.9369">
        <ele>182.2</ele>
        <time>2012-10-14T09:08:04Z</time>
      </trkpt>
      <trkpt lat="45.80051" lon="4.9369">
        <ele>182.4</ele>
        <time>2012-10-14T09:08:05Z</time>
      </trkpt>
      <trkpt lat="45.80061" lon="4.93687">
        <ele>182.6</ele>
        <time>2012-10-14T09:08:08Z</time>
      </trkpt>
      <trkpt lat="45.80064" lon="4.93685">
        <ele>182.6</ele>
        <time>2012-10-14T09:08:09Z</time>
      </trkpt>
      <trkpt lat="45.80081" lon="4.93674">
        <ele>182.8</ele>
        <time>2012-10-14T09:08:14Z</time>
      </trkpt>
      <trkpt lat="45.80085" lon="4.93671">
        <ele>182.8</ele>
        <time>2012-10-14T09:08:15Z</time>
      </trkpt>
      <trkpt lat="45.80112" lon="4.93651">
        <ele>183.2</ele>
        <time>2012-10-14T09:08:21Z</time>
      </trkpt>
      <trkpt lat="45.80121" lon="4.93645">
        <ele>183.2</ele>
        <time>2012-10-14T09:08:23Z</time>
      </trkpt>
      <trkpt lat="45.80137" lon="4.93634">
        <ele>183.4</ele>
        <time>2012-10-14T09:08:27Z</time>
      </trkpt>
      <trkpt lat="45.80157" lon="4.93617">
        <ele>183.4</ele>
        <time>2012-10-14T09:08:32Z</time>
      </trkpt>
      <trkpt lat="45.80162" lon="4.93613">
        <ele>183.4</ele>
        <time>2012-10-14T09:08:33Z</time>
      </trkpt>
      <trkpt lat="45.80182" lon="4.93591">
        <ele>183.4</ele>
        <time>2012-10-14T09:08:38Z</time>
      </trkpt>
      <trkpt lat="45.80186" lon="4.93586">
        <ele>183.4</ele>
        <time>2012-10-14T09:08:39Z</time>
      </trkpt>
      <trkpt lat="45.80195" lon="4.93574">
        <ele>183.4</ele>
        <time>2012-10-14T09:08:41Z</time>
      </trkpt>
      <trkpt lat="45.80203" lon="4.93562">
        <ele>183.4</ele>
        <time>2012-10-14T09:08:43Z</time>
      </trkpt>
      <trkpt lat="45.80214" lon="4.93542">
        <ele>183.4</ele>
        <time>2012-10-14T09:08:46Z</time>
      </trkpt>
      <trkpt lat="45.80224" lon="4.93531">
        <ele>183.4</ele>
        <time>2012-10-14T09:08:48Z</time>
      </trkpt>
      <trkpt lat="45.80229" lon="4.93526">
        <ele>183.4</ele>
        <time>2012-10-14T09:08:49Z</time>
      </trkpt>
      <trkpt lat="45.80245" lon="4.93516">
        <ele>183.4</ele>
        <time>2012-10-14T09:08:52Z</time>
      </trkpt>
      <trkpt lat="45.8025" lon="4.93513">
        <ele>183.4</ele>
        <time>2012-10-14T09:08:53Z</time>
      </trkpt>
      <trkpt lat="45.80258" lon="4.93499">
        <ele>183.4</ele>
        <time>2012-10-14T09:08:56Z</time>
      </trkpt>
      <trkpt lat="45.80252" lon="4.93491">
        <ele>183.2</ele>
        <time>2012-10-14T09:08:59Z</time>
      </trkpt>
      <trkpt lat="45.8025" lon="4.93487">
        <ele>183.2</ele>
        <time>2012-10-14T09:09:00Z</time>
      </trkpt>
      <trkpt lat="45.80244" lon="4.93481">
        <ele>183.2</ele>
        <time>2012-10-14T09:09:02Z</time>
      </trkpt>
      <trkpt lat="45.80241" lon="4.93478">
        <ele>183.2</ele>
        <time>2012-10-14T09:09:04Z</time>
      </trkpt>
      <trkpt lat="45.80237" lon="4.93464">
        <ele>183.2</ele>
        <time>2012-10-14T09:09:06Z</time>
      </trkpt>
      <trkpt lat="45.80236" lon="4.93453">
        <ele>183</ele>
        <time>2012-10-14T09:09:08Z</time>
      </trkpt>
      <trkpt lat="45.80234" lon="4.93433">
        <ele>183</ele>
        <time>2012-10-14T09:09:11Z</time>
      </trkpt>
      <trkpt lat="45.80232" lon="4.93426">
        <ele>183</ele>
        <time>2012-10-14T09:09:12Z</time>
      </trkpt>
      <trkpt lat="45.80228" lon="4.93398">
        <ele>182.8</ele>
        <time>2012-10-14T09:09:16Z</time>
      </trkpt>
      <trkpt lat="45.80226" lon="4.93381">
        <ele>182.6</ele>
        <time>2012-10-14T09:09:19Z</time>
      </trkpt>
      <trkpt lat="45.80223" lon="4.93368">
        <ele>182.6</ele>
        <time>2012-10-14T09:09:22Z</time>
      </trkpt>
      <trkpt lat="45.80221" lon="4.9335">
        <ele>182.4</ele>
        <time>2012-10-14T09:09:26Z</time>
      </trkpt>
      <trkpt lat="45.80218" lon="4.93332">
        <ele>182.4</ele>
        <time>2012-10-14T09:09:29Z</time>
      </trkpt>
      <trkpt lat="45.80215" lon="4.93311">
        <ele>182.2</ele>
        <time>2012-10-14T09:09:32Z</time>
      </trkpt>
      <trkpt lat="45.80209" lon="4.9328">
        <ele>182.2</ele>
        <time>2012-10-14T09:09:36Z</time>
      </trkpt>
      <trkpt lat="45.80206" lon="4.93264">
        <ele>182</ele>
        <time>2012-10-14T09:09:38Z</time>
      </trkpt>
      <trkpt lat="45.802" lon="4.9323">
        <ele>182</ele>
        <time>2012-10-14T09:09:42Z</time>
      </trkpt>
      <trkpt lat="45.80193" lon="4.93196">
        <ele>181.8</ele>
        <time>2012-10-14T09:09:46Z</time>
      </trkpt>
      <trkpt lat="45.80188" lon="4.93178">
        <ele>181.8</ele>
        <time>2012-10-14T09:09:48Z</time>
      </trkpt>
      <trkpt lat="45.80183" lon="4.93152">
        <ele>181.6</ele>
        <time>2012-10-14T09:09:51Z</time>
      </trkpt>
      <trkpt lat="45.80183" lon="4.93134">
        <ele>181.6</ele>
        <time>2012-10-14T09:09:53Z</time>
      </trkpt>
      <trkpt lat="45.80183" lon="4.93125">
        <ele>181.6</ele>
        <time>2012-10-14T09:09:54Z</time>
      </trkpt>
      <trkpt lat="45.80183" lon="4.93116">
        <ele>181.6</ele>
        <time>2012-10-14T09:09:55Z</time>
      </trkpt>
      <trkpt lat="45.80184" lon="4.93107">
        <ele>181.8</ele>
        <time>2012-10-14T09:09:56Z</time>
      </trkpt>
      <trkpt lat="45.80185" lon="4.93089">
        <ele>181.6</ele>
        <time>2012-10-14T09:09:58Z</time>
      </trkpt>
      <trkpt lat="45.80188" lon="4.93071">
        <ele>181.6</ele>
        <time>2012-10-14T09:10:00Z</time>
      </trkpt>
      <trkpt lat="45.80194" lon="4.93056">
        <ele>181.6</ele>
        <time>2012-10-14T09:10:02Z</time>
      </trkpt>
      <trkpt lat="45.80203" lon="4.93039">
        <ele>181.6</ele>
        <time>2012-10-14T09:10:05Z</time>
      </trkpt>
      <trkpt lat="45.80198" lon="4.93014">
        <ele>181.6</ele>
        <time>2012-10-14T09:10:09Z</time>
      </trkpt>
      <trkpt lat="45.80183" lon="4.9297">
        <ele>181.4</ele>
        <time>2012-10-14T09:10:15Z</time>
      </trkpt>
      <trkpt lat="45.80177" lon="4.92948">
        <ele>181.2</ele>
        <time>2012-10-14T09:10:18Z</time>
      </trkpt>
      <trkpt lat="45.80174" lon="4.92938">
        <ele>181.2</ele>
        <time>2012-10-14T09:10:20Z</time>
      </trkpt>
      <trkpt lat="45.8017" lon="4.92942">
        <ele>181</ele>
        <time>2012-10-14T09:10:24Z</time>
      </trkpt>
      <trkpt lat="45.80165" lon="4.92944">
        <ele>181</ele>
        <time>2012-10-14T09:10:26Z</time>
      </trkpt>
      <trkpt lat="45.80163" lon="4.92946">
        <ele>180.8</ele>
        <time>2012-10-14T09:10:27Z</time>
      </trkpt>
      <trkpt lat="45.80156" lon="4.92958">
        <ele>180.8</ele>
        <time>2012-10-14T09:10:30Z</time>
      </trkpt>
      <trkpt lat="45.80154" lon="4.92961">
        <ele>180.8</ele>
        <time>2012-10-14T09:10:31Z</time>
      </trkpt>
      <trkpt lat="45.80152" lon="4.92966">
        <ele>180.8</ele>
        <time>2012-10-14T09:10:34Z</time>
      </trkpt>
      <trkpt lat="45.80152" lon="4.92973">
        <ele>179.6</ele>
        <time>2012-10-14T09:11:01Z</time>
      </trkpt>
      <trkpt lat="45.80146" lon="4.92985">
        <ele>179.6</ele>
        <time>2012-10-14T09:11:04Z</time>
      </trkpt>
      <trkpt lat="45.80143" lon="4.9299">
        <ele>179.6</ele>
        <time>2012-10-14T09:11:05Z</time>
      </trkpt>
      <trkpt lat="45.80139" lon="4.93001">
        <ele>179.6</ele>
        <time>2012-10-14T09:11:07Z</time>
      </trkpt>
      <trkpt lat="45.80132" lon="4.93016">
        <ele>179.8</ele>
        <time>2012-10-14T09:11:10Z</time>
      </trkpt>
      <trkpt lat="45.80128" lon="4.93023">
        <ele>180</ele>
        <time>2012-10-14T09:11:12Z</time>
      </trkpt>
      <trkpt lat="45.80124" lon="4.93029">
        <ele>180.6</ele>
        <time>2012-10-14T09:11:14Z</time>
      </trkpt>
      <trkpt lat="45.8012" lon="4.93035">
        <ele>181</ele>
        <time>2012-10-14T09:11:16Z</time>
      </trkpt>
      <trkpt lat="45.80107" lon="4.93055">
        <ele>182</ele>
        <time>2012-10-14T09:11:23Z</time>
      </trkpt>
      <trkpt lat="45.80101" lon="4.93064">
        <ele>182.4</ele>
        <time>2012-10-14T09:11:24Z</time>
      </trkpt>
      <trkpt lat="45.80098" lon="4.9307">
        <ele>182.6</ele>
        <time>2012-10-14T09:11:25Z</time>
      </trkpt>
      <trkpt lat="45.80095" lon="4.93076">
        <ele>183</ele>
        <time>2012-10-14T09:11:26Z</time>
      </trkpt>
      <trkpt lat="45.80093" lon="4.93083">
        <ele>183.2</ele>
        <time>2012-10-14T09:11:28Z</time>
      </trkpt>
      <trkpt lat="45.80085" lon="4.93117">
        <ele>184.6</ele>
        <time>2012-10-14T09:11:32Z</time>
      </trkpt>
      <trkpt lat="45.80085" lon="4.93123">
        <ele>185</ele>
        <time>2012-10-14T09:11:33Z</time>
      </trkpt>
      <trkpt lat="45.80084" lon="4.93145">
        <ele>185.6</ele>
        <time>2012-10-14T09:11:38Z</time>
      </trkpt>
      <trkpt lat="45.80077" lon="4.93166">
        <ele>185.8</ele>
        <time>2012-10-14T09:11:42Z</time>
      </trkpt>
      <trkpt lat="45.80072" lon="4.93172">
        <ele>185.8</ele>
        <time>2012-10-14T09:11:44Z</time>
      </trkpt>
      <trkpt lat="45.80069" lon="4.93174">
        <ele>185.6</ele>
        <time>2012-10-14T09:11:45Z</time>
      </trkpt>
      <trkpt lat="45.80064" lon="4.9318">
        <ele>185.6</ele>
        <time>2012-10-14T09:11:47Z</time>
      </trkpt>
      <trkpt lat="45.80048" lon="4.93202">
        <ele>185.6</ele>
        <time>2012-10-14T09:11:53Z</time>
      </trkpt>
      <trkpt lat="45.80045" lon="4.93208">
        <ele>185.6</ele>
        <time>2012-10-14T09:11:54Z</time>
      </trkpt>
      <trkpt lat="45.80033" lon="4.93232">
        <ele>185.8</ele>
        <time>2012-10-14T09:11:59Z</time>
      </trkpt>
      <trkpt lat="45.80032" lon="4.93235">
        <ele>186</ele>
        <time>2012-10-14T09:12:02Z</time>
      </trkpt>
      <trkpt lat="45.80033" lon="4.93241">
        <ele>185.8</ele>
        <time>2012-10-14T09:12:14Z</time>
      </trkpt>
      <trkpt lat="45.8003" lon="4.93247">
        <ele>185.8</ele>
        <time>2012-10-14T09:12:17Z</time>
      </trkpt>
      <trkpt lat="45.80026" lon="4.93256">
        <ele>185.8</ele>
        <time>2012-10-14T09:12:19Z</time>
      </trkpt>
      <trkpt lat="45.80022" lon="4.93267">
        <ele>186</ele>
        <time>2012-10-14T09:12:20Z</time>
      </trkpt>
      <trkpt lat="45.8002" lon="4.93272">
        <ele>186</ele>
        <time>2012-10-14T09:12:22Z</time>
      </trkpt>
      <trkpt lat="45.80008" lon="4.93304">
        <ele>185.8</ele>
        <time>2012-10-14T09:12:27Z</time>
      </trkpt>
      <trkpt lat="45.79997" lon="4.9333">
        <ele>185.8</ele>
        <time>2012-10-14T09:12:31Z</time>
      </trkpt>
      <trkpt lat="45.7999" lon="4.93342">
        <ele>185.6</ele>
        <time>2012-10-14T09:12:32Z</time>
      </trkpt>
      <trkpt lat="45.79986" lon="4.93347">
        <ele>185.6</ele>
        <time>2012-10-14T09:12:34Z</time>
      </trkpt>
      <trkpt lat="45.79968" lon="4.93365">
        <ele>185.4</ele>
        <time>2012-10-14T09:12:38Z</time>
      </trkpt>
      <trkpt lat="45.79956" lon="4.93379">
        <ele>185</ele>
        <time>2012-10-14T09:12:41Z</time>
      </trkpt>
      <trkpt lat="45.79948" lon="4.93387">
        <ele>184.8</ele>
        <time>2012-10-14T09:12:43Z</time>
      </trkpt>
      <trkpt lat="45.79935" lon="4.93401">
        <ele>184.8</ele>
        <time>2012-10-14T09:12:46Z</time>
      </trkpt>
      <trkpt lat="45.79928" lon="4.93411">
        <ele>184.6</ele>
        <time>2012-10-14T09:12:48Z</time>
      </trkpt>
      <trkpt lat="45.79925" lon="4.93416">
        <ele>184.6</ele>
        <time>2012-10-14T09:12:49Z</time>
      </trkpt>
      <trkpt lat="45.79912" lon="4.93439">
        <ele>184.4</ele>
        <time>2012-10-14T09:12:54Z</time>
      </trkpt>
      <trkpt lat="45.79904" lon="4.93451">
        <ele>184.2</ele>
        <time>2012-10-14T09:12:56Z</time>
      </trkpt>
      <trkpt lat="45.79899" lon="4.93454">
        <ele>184.2</ele>
        <time>2012-10-14T09:12:59Z</time>
      </trkpt>
      <trkpt lat="45.79898" lon="4.93454">
        <ele>184</ele>
        <time>2012-10-14T09:13:03Z</time>
      </trkpt>
      <trkpt lat="45.79897" lon="4.93455">
        <ele>184</ele>
        <time>2012-10-14T09:13:18Z</time>
      </trkpt>
      <trkpt lat="45.79898" lon="4.93461">
        <ele>184</ele>
        <time>2012-10-14T09:13:20Z</time>
      </trkpt>
      <trkpt lat="45.79894" lon="4.93479">
        <ele>184</ele>
        <time>2012-10-14T09:13:24Z</time>
      </trkpt>
      <trkpt lat="45.79881" lon="4.93486">
        <ele>184.2</ele>
        <time>2012-10-14T09:13:27Z</time>
      </trkpt>
      <trkpt lat="45.79876" lon="4.93489">
        <ele>184.2</ele>
        <time>2012-10-14T09:13:28Z</time>
      </trkpt>
      <trkpt lat="45.79857" lon="4.93503">
        <ele>184.4</ele>
        <time>2012-10-14T09:13:32Z</time>
      </trkpt>
      <trkpt lat="45.79851" lon="4.93504">
        <ele>184.4</ele>
        <time>2012-10-14T09:13:34Z</time>
      </trkpt>
      <trkpt lat="45.7985" lon="4.93503">
        <ele>184.4</ele>
        <time>2012-10-14T09:13:35Z</time>
      </trkpt>
      <trkpt lat="45.79849" lon="4.93502">
        <ele>184.6</ele>
        <time>2012-10-14T09:13:39Z</time>
      </trkpt>
      <trkpt lat="45.7985" lon="4.93503">
        <ele>185.2</ele>
        <time>2012-10-14T09:13:52Z</time>
      </trkpt>
      <trkpt lat="45.79848" lon="4.93502">
        <ele>184.8</ele>
        <time>2012-10-14T09:13:58Z</time>
      </trkpt>
      <trkpt lat="45.79842" lon="4.93502">
        <ele>184.8</ele>
        <time>2012-10-14T09:14:00Z</time>
      </trkpt>
      <trkpt lat="45.79832" lon="4.93509">
        <ele>184.6</ele>
        <time>2012-10-14T09:14:02Z</time>
      </trkpt>
      <trkpt lat="45.79828" lon="4.93511">
        <ele>184.6</ele>
        <time>2012-10-14T09:14:04Z</time>
      </trkpt>
      <trkpt lat="45.79817" lon="4.93508">
        <ele>184.4</ele>
        <time>2012-10-14T09:14:07Z</time>
      </trkpt>
      <trkpt lat="45.79817" lon="4.93504">
        <ele>184.4</ele>
        <time>2012-10-14T09:14:08Z</time>
      </trkpt>
      <trkpt lat="45.79815" lon="4.93494">
        <ele>184.2</ele>
        <time>2012-10-14T09:14:10Z</time>
      </trkpt>
      <trkpt lat="45.79812" lon="4.93485">
        <ele>184</ele>
        <time>2012-10-14T09:14:12Z</time>
      </trkpt>
      <trkpt lat="45.79807" lon="4.93469">
        <ele>183.8</ele>
        <time>2012-10-14T09:14:16Z</time>
      </trkpt>
      <trkpt lat="45.79803" lon="4.93458">
        <ele>183.6</ele>
        <time>2012-10-14T09:14:18Z</time>
      </trkpt>
      <trkpt lat="45.798" lon="4.93454">
        <ele>183.6</ele>
        <time>2012-10-14T09:14:19Z</time>
      </trkpt>
      <trkpt lat="45.79797" lon="4.93451">
        <ele>183.6</ele>
        <time>2012-10-14T09:14:20Z</time>
      </trkpt>
      <trkpt lat="45.79786" lon="4.93449">
        <ele>183.4</ele>
        <time>2012-10-14T09:14:23Z</time>
      </trkpt>
      <trkpt lat="45.7978" lon="4.93443">
        <ele>183.2</ele>
        <time>2012-10-14T09:14:25Z</time>
      </trkpt>
      <trkpt lat="45.79774" lon="4.93424">
        <ele>183</ele>
        <time>2012-10-14T09:14:28Z</time>
      </trkpt>
      <trkpt lat="45.79769" lon="4.93411">
        <ele>182.8</ele>
        <time>2012-10-14T09:14:32Z</time>
      </trkpt>
      <trkpt lat="45.79763" lon="4.93387">
        <ele>182.4</ele>
        <time>2012-10-14T09:14:38Z</time>
      </trkpt>
      <trkpt lat="45.79762" lon="4.93381">
        <ele>182.4</ele>
        <time>2012-10-14T09:14:39Z</time>
      </trkpt>
      <trkpt lat="45.79761" lon="4.93374">
        <ele>182.2</ele>
        <time>2012-10-14T09:14:40Z</time>
      </trkpt>
      <trkpt lat="45.7976" lon="4.93359">
        <ele>182.2</ele>
        <time>2012-10-14T09:14:42Z</time>
      </trkpt>
      <trkpt lat="45.79758" lon="4.93351">
        <ele>182</ele>
        <time>2012-10-14T09:14:43Z</time>
      </trkpt>
      <trkpt lat="45.79759" lon="4.93338">
        <ele>182</ele>
        <time>2012-10-14T09:14:45Z</time>
      </trkpt>
      <trkpt lat="45.79758" lon="4.93331">
        <ele>182</ele>
        <time>2012-10-14T09:14:46Z</time>
      </trkpt>
      <trkpt lat="45.7976" lon="4.9332">
        <ele>182</ele>
        <time>2012-10-14T09:14:48Z</time>
      </trkpt>
      <trkpt lat="45.79761" lon="4.93314">
        <ele>181.8</ele>
        <time>2012-10-14T09:14:50Z</time>
      </trkpt>
      <trkpt lat="45.79762" lon="4.93312">
        <ele>181.8</ele>
        <time>2012-10-14T09:14:51Z</time>
      </trkpt>
      <trkpt lat="45.79767" lon="4.933">
        <ele>181.6</ele>
        <time>2012-10-14T09:14:55Z</time>
      </trkpt>
      <trkpt lat="45.79767" lon="4.93276">
        <ele>181.4</ele>
        <time>2012-10-14T09:15:00Z</time>
      </trkpt>
      <trkpt lat="45.79767" lon="4.93269">
        <ele>181.4</ele>
        <time>2012-10-14T09:15:01Z</time>
      </trkpt>
      <trkpt lat="45.79766" lon="4.93252">
        <ele>181.4</ele>
        <time>2012-10-14T09:15:04Z</time>
      </trkpt>
      <trkpt lat="45.79764" lon="4.93246">
        <ele>181.2</ele>
        <time>2012-10-14T09:15:07Z</time>
      </trkpt>
      <trkpt lat="45.79765" lon="4.93238">
        <ele>181</ele>
        <time>2012-10-14T09:15:24Z</time>
      </trkpt>
      <trkpt lat="45.79771" lon="4.93226">
        <ele>181</ele>
        <time>2012-10-14T09:15:28Z</time>
      </trkpt>
      <trkpt lat="45.79773" lon="4.9322">
        <ele>181</ele>
        <time>2012-10-14T09:15:30Z</time>
      </trkpt>
      <trkpt lat="45.79773" lon="4.93217">
        <ele>181</ele>
        <time>2012-10-14T09:15:32Z</time>
      </trkpt>
      <trkpt lat="45.79772" lon="4.9321">
        <ele>180.8</ele>
        <time>2012-10-14T09:15:37Z</time>
      </trkpt>
      <trkpt lat="45.79772" lon="4.93207">
        <ele>180.8</ele>
        <time>2012-10-14T09:15:38Z</time>
      </trkpt>
      <trkpt lat="45.79775" lon="4.93203">
        <ele>180.8</ele>
        <time>2012-10-14T09:15:41Z</time>
      </trkpt>
      <trkpt lat="45.79776" lon="4.93202">
        <ele>180.8</ele>
        <time>2012-10-14T09:15:42Z</time>
      </trkpt>
      <trkpt lat="45.79783" lon="4.93201">
        <ele>180.8</ele>
        <time>2012-10-14T09:15:46Z</time>
      </trkpt>
      <trkpt lat="45.7979" lon="4.93205">
        <ele>180.8</ele>
        <time>2012-10-14T09:15:51Z</time>
      </trkpt>
      <trkpt lat="45.79797" lon="4.93208">
        <ele>180.8</ele>
        <time>2012-10-14T09:15:55Z</time>
      </trkpt>
      <trkpt lat="45.79801" lon="4.93211">
        <ele>180.8</ele>
        <time>2012-10-14T09:15:57Z</time>
      </trkpt>
      <trkpt lat="45.79808" lon="4.93214">
        <ele>181.2</ele>
        <time>2012-10-14T09:16:02Z</time>
      </trkpt>
      <trkpt lat="45.79809" lon="4.93214">
        <ele>181.2</ele>
        <time>2012-10-14T09:16:03Z</time>
      </trkpt>
      <trkpt lat="45.79812" lon="4.93213">
        <ele>181.4</ele>
        <time>2012-10-14T09:16:05Z</time>
      </trkpt>
      <trkpt lat="45.79814" lon="4.9321">
        <ele>181.6</ele>
        <time>2012-10-14T09:16:07Z</time>
      </trkpt>
      <trkpt lat="45.7982" lon="4.932">
        <ele>182</ele>
        <time>2012-10-14T09:16:13Z</time>
      </trkpt>
      <trkpt lat="45.79825" lon="4.93193">
        <ele>182</ele>
        <time>2012-10-14T09:16:18Z</time>
      </trkpt>
      <trkpt lat="45.79827" lon="4.93193">
        <ele>182</ele>
        <time>2012-10-14T09:16:19Z</time>
      </trkpt>
      <trkpt lat="45.79829" lon="4.93194">
        <ele>182</ele>
        <time>2012-10-14T09:16:23Z</time>
      </trkpt>
      <trkpt lat="45.79834" lon="4.93197">
        <ele>180.8</ele>
        <time>2012-10-14T09:17:09Z</time>
      </trkpt>
      <trkpt lat="45.79833" lon="4.93203">
        <ele>180.6</ele>
        <time>2012-10-14T09:17:12Z</time>
      </trkpt>
      <trkpt lat="45.79835" lon="4.93216">
        <ele>180.6</ele>
        <time>2012-10-14T09:17:16Z</time>
      </trkpt>
      <trkpt lat="45.79834" lon="4.93218">
        <ele>180.4</ele>
        <time>2012-10-14T09:17:17Z</time>
      </trkpt>
      <trkpt lat="45.79826" lon="4.93231">
        <ele>180.4</ele>
        <time>2012-10-14T09:17:20Z</time>
      </trkpt>
      <trkpt lat="45.79823" lon="4.93233">
        <ele>180.2</ele>
        <time>2012-10-14T09:17:22Z</time>
      </trkpt>
      <trkpt lat="45.7981" lon="4.93238">
        <ele>180.2</ele>
        <time>2012-10-14T09:17:26Z</time>
      </trkpt>
      <trkpt lat="45.79806" lon="4.9324">
        <ele>180</ele>
        <time>2012-10-14T09:17:27Z</time>
      </trkpt>
      <trkpt lat="45.79792" lon="4.93243">
        <ele>180</ele>
        <time>2012-10-14T09:17:31Z</time>
      </trkpt>
      <trkpt lat="45.79789" lon="4.93242">
        <ele>180</ele>
        <time>2012-10-14T09:17:32Z</time>
      </trkpt>
      <trkpt lat="45.79784" lon="4.93242">
        <ele>180</ele>
        <time>2012-10-14T09:17:34Z</time>
      </trkpt>
      <trkpt lat="45.79781" lon="4.93244">
        <ele>179.8</ele>
        <time>2012-10-14T09:17:36Z</time>
      </trkpt>
      <trkpt lat="45.79771" lon="4.9325">
        <ele>179.8</ele>
        <time>2012-10-14T09:17:40Z</time>
      </trkpt>
      <trkpt lat="45.79769" lon="4.93252">
        <ele>179.8</ele>
        <time>2012-10-14T09:17:41Z</time>
      </trkpt>
      <trkpt lat="45.79768" lon="4.93253">
        <ele>180.2</ele>
        <time>2012-10-14T09:17:44Z</time>
      </trkpt>
      <trkpt lat="45.79764" lon="4.9326">
        <ele>188.8</ele>
        <time>2012-10-14T09:18:40Z</time>
      </trkpt>
      <trkpt lat="45.79765" lon="4.93266">
        <ele>188.8</ele>
        <time>2012-10-14T09:18:43Z</time>
      </trkpt>
      <trkpt lat="45.79765" lon="4.93269">
        <ele>188.8</ele>
        <time>2012-10-14T09:18:44Z</time>
      </trkpt>
      <trkpt lat="45.79765" lon="4.93292">
        <ele>189.2</ele>
        <time>2012-10-14T09:18:50Z</time>
      </trkpt>
      <trkpt lat="45.79761" lon="4.9331">
        <ele>189.6</ele>
        <time>2012-10-14T09:18:54Z</time>
      </trkpt>
      <trkpt lat="45.79758" lon="4.93316">
        <ele>189.8</ele>
        <time>2012-10-14T09:18:57Z</time>
      </trkpt>
      <trkpt lat="45.79757" lon="4.93315">
        <ele>189.8</ele>
        <time>2012-10-14T09:18:58Z</time>
      </trkpt>
      <trkpt lat="45.7975" lon="4.9331">
        <ele>189.6</ele>
        <time>2012-10-14T09:19:02Z</time>
      </trkpt>
      <trkpt lat="45.7974" lon="4.93303">
        <ele>189.4</ele>
        <time>2012-10-14T09:19:07Z</time>
      </trkpt>
      <trkpt lat="45.79737" lon="4.93303">
        <ele>189</ele>
        <time>2012-10-14T09:19:14Z</time>
      </trkpt>
      <trkpt lat="45.79737" lon="4.93299">
        <ele>188.2</ele>
        <time>2012-10-14T09:19:30Z</time>
      </trkpt>
      <trkpt lat="45.79741" lon="4.93302">
        <ele>188.2</ele>
        <time>2012-10-14T09:19:33Z</time>
      </trkpt>
      <trkpt lat="45.79749" lon="4.93307">
        <ele>188.2</ele>
        <time>2012-10-14T09:19:36Z</time>
      </trkpt>
      <trkpt lat="45.79752" lon="4.93309">
        <ele>188.2</ele>
        <time>2012-10-14T09:19:37Z</time>
      </trkpt>
      <trkpt lat="45.79757" lon="4.93314">
        <ele>188.2</ele>
        <time>2012-10-14T09:19:41Z</time>
      </trkpt>
      <trkpt lat="45.79758" lon="4.93322">
        <ele>188.2</ele>
        <time>2012-10-14T09:19:46Z</time>
      </trkpt>
      <trkpt lat="45.79758" lon="4.93341">
        <ele>188.4</ele>
        <time>2012-10-14T09:19:50Z</time>
      </trkpt>
      <trkpt lat="45.79759" lon="4.93352">
        <ele>188.8</ele>
        <time>2012-10-14T09:19:53Z</time>
      </trkpt>
      <trkpt lat="45.7976" lon="4.93363">
        <ele>189.2</ele>
        <time>2012-10-14T09:19:55Z</time>
      </trkpt>
      <trkpt lat="45.79762" lon="4.93383">
        <ele>189.4</ele>
        <time>2012-10-14T09:19:58Z</time>
      </trkpt>
      <trkpt lat="45.79766" lon="4.93396">
        <ele>189.6</ele>
        <time>2012-10-14T09:20:00Z</time>
      </trkpt>
      <trkpt lat="45.79768" lon="4.93404">
        <ele>189.6</ele>
        <time>2012-10-14T09:20:01Z</time>
      </trkpt>
      <trkpt lat="45.79772" lon="4.9342">
        <ele>189.8</ele>
        <time>2012-10-14T09:20:04Z</time>
      </trkpt>
      <trkpt lat="45.79775" lon="4.93424">
        <ele>189.6</ele>
        <time>2012-10-14T09:20:08Z</time>
      </trkpt>
      <trkpt lat="45.79779" lon="4.93423">
        <ele>188.2</ele>
        <time>2012-10-14T09:20:41Z</time>
      </trkpt>
      <trkpt lat="45.79784" lon="4.93419">
        <ele>188</ele>
        <time>2012-10-14T09:20:44Z</time>
      </trkpt>
      <trkpt lat="45.79795" lon="4.93413">
        <ele>188</ele>
        <time>2012-10-14T09:20:47Z</time>
      </trkpt>
      <trkpt lat="45.79799" lon="4.9341">
        <ele>187.8</ele>
        <time>2012-10-14T09:20:48Z</time>
      </trkpt>
      <trkpt lat="45.79813" lon="4.93402">
        <ele>187.8</ele>
        <time>2012-10-14T09:20:51Z</time>
      </trkpt>
      <trkpt lat="45.79823" lon="4.93398">
        <ele>187.6</ele>
        <time>2012-10-14T09:20:53Z</time>
      </trkpt>
      <trkpt lat="45.79833" lon="4.93394">
        <ele>187.6</ele>
        <time>2012-10-14T09:20:55Z</time>
      </trkpt>
      <trkpt lat="45.79845" lon="4.93391">
        <ele>187.4</ele>
        <time>2012-10-14T09:20:58Z</time>
      </trkpt>
      <trkpt lat="45.79863" lon="4.93392">
        <ele>187.2</ele>
        <time>2012-10-14T09:21:03Z</time>
      </trkpt>
      <trkpt lat="45.79869" lon="4.93391">
        <ele>187.2</ele>
        <time>2012-10-14T09:21:05Z</time>
      </trkpt>
      <trkpt lat="45.79874" lon="4.93386">
        <ele>187.2</ele>
        <time>2012-10-14T09:21:07Z</time>
      </trkpt>
      <trkpt lat="45.79879" lon="4.93367">
        <ele>187</ele>
        <time>2012-10-14T09:21:11Z</time>
      </trkpt>
      <trkpt lat="45.79877" lon="4.93356">
        <ele>186.8</ele>
        <time>2012-10-14T09:21:13Z</time>
      </trkpt>
      <trkpt lat="45.79875" lon="4.93343">
        <ele>186.8</ele>
        <time>2012-10-14T09:21:15Z</time>
      </trkpt>
      <trkpt lat="45.79873" lon="4.93314">
        <ele>186.6</ele>
        <time>2012-10-14T09:21:19Z</time>
      </trkpt>
      <trkpt lat="45.79874" lon="4.93309">
        <ele>186.6</ele>
        <time>2012-10-14T09:21:20Z</time>
      </trkpt>
      <trkpt lat="45.79874" lon="4.93306">
        <ele>186.4</ele>
        <time>2012-10-14T09:21:23Z</time>
      </trkpt>
      <trkpt lat="45.79873" lon="4.93304">
        <ele>186</ele>
        <time>2012-10-14T09:21:32Z</time>
      </trkpt>
      <trkpt lat="45.79873" lon="4.93298">
        <ele>186</ele>
        <time>2012-10-14T09:21:34Z</time>
      </trkpt>
      <trkpt lat="45.79873" lon="4.93287">
        <ele>186</ele>
        <time>2012-10-14T09:21:36Z</time>
      </trkpt>
      <trkpt lat="45.79873" lon="4.93273">
        <ele>185.8</ele>
        <time>2012-10-14T09:21:38Z</time>
      </trkpt>
      <trkpt lat="45.79872" lon="4.9325">
        <ele>185.6</ele>
        <time>2012-10-14T09:21:41Z</time>
      </trkpt>
      <trkpt lat="45.79871" lon="4.93242">
        <ele>185.6</ele>
        <time>2012-10-14T09:21:42Z</time>
      </trkpt>
      <trkpt lat="45.79869" lon="4.93235">
        <ele>185.6</ele>
        <time>2012-10-14T09:21:43Z</time>
      </trkpt>
      <trkpt lat="45.79865" lon="4.93187">
        <ele>185.4</ele>
        <time>2012-10-14T09:21:49Z</time>
      </trkpt>
      <trkpt lat="45.79865" lon="4.9318">
        <ele>185.4</ele>
        <time>2012-10-14T09:21:50Z</time>
      </trkpt>
      <trkpt lat="45.79867" lon="4.93157">
        <ele>185.2</ele>
        <time>2012-10-14T09:21:53Z</time>
      </trkpt>
      <trkpt lat="45.79868" lon="4.93149">
        <ele>185.2</ele>
        <time>2012-10-14T09:21:54Z</time>
      </trkpt>
      <trkpt lat="45.79874" lon="4.93128">
        <ele>185.2</ele>
        <time>2012-10-14T09:21:57Z</time>
      </trkpt>
      <trkpt lat="45.79878" lon="4.93118">
        <ele>185.2</ele>
        <time>2012-10-14T09:21:59Z</time>
      </trkpt>
      <trkpt lat="45.79883" lon="4.93094">
        <ele>185</ele>
        <time>2012-10-14T09:22:04Z</time>
      </trkpt>
      <trkpt lat="45.79889" lon="4.9308">
        <ele>185</ele>
        <time>2012-10-14T09:22:09Z</time>
      </trkpt>
      <trkpt lat="45.79888" lon="4.9308">
        <ele>184.8</ele>
        <time>2012-10-14T09:22:14Z</time>
      </trkpt>
      <trkpt lat="45.79894" lon="4.93073">
        <ele>184.6</ele>
        <time>2012-10-14T09:22:19Z</time>
      </trkpt>
      <trkpt lat="45.7991" lon="4.93059">
        <ele>184.6</ele>
        <time>2012-10-14T09:22:24Z</time>
      </trkpt>
      <trkpt lat="45.79917" lon="4.93053">
        <ele>184.6</ele>
        <time>2012-10-14T09:22:26Z</time>
      </trkpt>
      <trkpt lat="45.79929" lon="4.93042">
        <ele>184.6</ele>
        <time>2012-10-14T09:22:29Z</time>
      </trkpt>
      <trkpt lat="45.79951" lon="4.93032">
        <ele>184.4</ele>
        <time>2012-10-14T09:22:34Z</time>
      </trkpt>
      <trkpt lat="45.79956" lon="4.9303">
        <ele>184.4</ele>
        <time>2012-10-14T09:22:35Z</time>
      </trkpt>
      <trkpt lat="45.79967" lon="4.93023">
        <ele>184.2</ele>
        <time>2012-10-14T09:22:39Z</time>
      </trkpt>
      <trkpt lat="45.79962" lon="4.93026">
        <ele>183.8</ele>
        <time>2012-10-14T09:22:52Z</time>
      </trkpt>
      <trkpt lat="45.79948" lon="4.93035">
        <ele>183.4</ele>
        <time>2012-10-14T09:22:58Z</time>
      </trkpt>
      <trkpt lat="45.79939" lon="4.93038">
        <ele>183.4</ele>
        <time>2012-10-14T09:23:00Z</time>
      </trkpt>
      <trkpt lat="45.7993" lon="4.93042">
        <ele>183.2</ele>
        <time>2012-10-14T09:23:02Z</time>
      </trkpt>
      <trkpt lat="45.79919" lon="4.93042">
        <ele>183.2</ele>
        <time>2012-10-14T09:23:05Z</time>
      </trkpt>
      <trkpt lat="45.79917" lon="4.93034">
        <ele>183</ele>
        <time>2012-10-14T09:23:07Z</time>
      </trkpt>
      <trkpt lat="45.79917" lon="4.9303">
        <ele>183</ele>
        <time>2012-10-14T09:23:08Z</time>
      </trkpt>
      <trkpt lat="45.79913" lon="4.93018">
        <ele>182.8</ele>
        <time>2012-10-14T09:23:11Z</time>
      </trkpt>
      <trkpt lat="45.79911" lon="4.93013">
        <ele>182.8</ele>
        <time>2012-10-14T09:23:12Z</time>
      </trkpt>
      <trkpt lat="45.79906" lon="4.92998">
        <ele>182.6</ele>
        <time>2012-10-14T09:23:16Z</time>
      </trkpt>
      <trkpt lat="45.79906" lon="4.92996">
        <ele>182.6</ele>
        <time>2012-10-14T09:23:20Z</time>
      </trkpt>
      <trkpt lat="45.79906" lon="4.92993">
        <ele>182.6</ele>
        <time>2012-10-14T09:23:22Z</time>
      </trkpt>
      <trkpt lat="45.79907" lon="4.92991">
        <ele>182.6</ele>
        <time>2012-10-14T09:23:23Z</time>
      </trkpt>
      <trkpt lat="45.7991" lon="4.92988">
        <ele>182.6</ele>
        <time>2012-10-14T09:23:25Z</time>
      </trkpt>
      <trkpt lat="45.79919" lon="4.92979">
        <ele>182.4</ele>
        <time>2012-10-14T09:23:28Z</time>
      </trkpt>
      <trkpt lat="45.79936" lon="4.92965">
        <ele>182.2</ele>
        <time>2012-10-14T09:23:32Z</time>
      </trkpt>
      <trkpt lat="45.79941" lon="4.92962">
        <ele>182.2</ele>
        <time>2012-10-14T09:23:33Z</time>
      </trkpt>
      <trkpt lat="45.79951" lon="4.92953">
        <ele>182.2</ele>
        <time>2012-10-14T09:23:36Z</time>
      </trkpt>
      <trkpt lat="45.79953" lon="4.92949">
        <ele>182</ele>
        <time>2012-10-14T09:23:37Z</time>
      </trkpt>
      <trkpt lat="45.79961" lon="4.92941">
        <ele>182</ele>
        <time>2012-10-14T09:23:40Z</time>
      </trkpt>
      <trkpt lat="45.79963" lon="4.9294">
        <ele>182</ele>
        <time>2012-10-14T09:23:41Z</time>
      </trkpt>
      <trkpt lat="45.79965" lon="4.92942">
        <ele>182</ele>
        <time>2012-10-14T09:23:45Z</time>
      </trkpt>
      <trkpt lat="45.79966" lon="4.92941">
        <ele>182</ele>
        <time>2012-10-14T09:23:48Z</time>
      </trkpt>
      <trkpt lat="45.79967" lon="4.9294">
        <ele>182</ele>
        <time>2012-10-14T09:23:50Z</time>
      </trkpt>
      <trkpt lat="45.79971" lon="4.92936">
        <ele>182</ele>
        <time>2012-10-14T09:23:58Z</time>
      </trkpt>
      <trkpt lat="45.79989" lon="4.92933">
        <ele>182</ele>
        <time>2012-10-14T09:24:03Z</time>
      </trkpt>
      <trkpt lat="45.79993" lon="4.92933">
        <ele>182</ele>
        <time>2012-10-14T09:24:04Z</time>
      </trkpt>
      <trkpt lat="45.80008" lon="4.92931">
        <ele>182.2</ele>
        <time>2012-10-14T09:24:07Z</time>
      </trkpt>
      <trkpt lat="45.80013" lon="4.92932">
        <ele>182.2</ele>
        <time>2012-10-14T09:24:08Z</time>
      </trkpt>
      <trkpt lat="45.80037" lon="4.92934">
        <ele>182.2</ele>
        <time>2012-10-14T09:24:13Z</time>
      </trkpt>
      <trkpt lat="45.80042" lon="4.92933">
        <ele>182.2</ele>
        <time>2012-10-14T09:24:14Z</time>
      </trkpt>
      <trkpt lat="45.80047" lon="4.92932">
        <ele>182.4</ele>
        <time>2012-10-14T09:24:15Z</time>
      </trkpt>
      <trkpt lat="45.80057" lon="4.92933">
        <ele>182.4</ele>
        <time>2012-10-14T09:24:17Z</time>
      </trkpt>
      <trkpt lat="45.8006" lon="4.92934">
        <ele>182.6</ele>
        <time>2012-10-14T09:24:18Z</time>
      </trkpt>
      <trkpt lat="45.80074" lon="4.9294">
        <ele>182.6</ele>
        <time>2012-10-14T09:24:22Z</time>
      </trkpt>
      <trkpt lat="45.80082" lon="4.92944">
        <ele>182.8</ele>
        <time>2012-10-14T09:24:24Z</time>
      </trkpt>
      <trkpt lat="45.80096" lon="4.92954">
        <ele>183</ele>
        <time>2012-10-14T09:24:27Z</time>
      </trkpt>
      <trkpt lat="45.80115" lon="4.92964">
        <ele>183.2</ele>
        <time>2012-10-14T09:24:31Z</time>
      </trkpt>
      <trkpt lat="45.80119" lon="4.92968">
        <ele>183.2</ele>
        <time>2012-10-14T09:24:32Z</time>
      </trkpt>
      <trkpt lat="45.80131" lon="4.92975">
        <ele>183.4</ele>
        <time>2012-10-14T09:24:35Z</time>
      </trkpt>
      <trkpt lat="45.80138" lon="4.92977">
        <ele>183.6</ele>
        <time>2012-10-14T09:24:37Z</time>
      </trkpt>
      <trkpt lat="45.80144" lon="4.92977">
        <ele>183.8</ele>
        <time>2012-10-14T09:24:39Z</time>
      </trkpt>
      <trkpt lat="45.80146" lon="4.92975">
        <ele>184</ele>
        <time>2012-10-14T09:24:40Z</time>
      </trkpt>
      <trkpt lat="45.80151" lon="4.92966">
        <ele>184</ele>
        <time>2012-10-14T09:24:42Z</time>
      </trkpt>
      <trkpt lat="45.80154" lon="4.92961">
        <ele>184</ele>
        <time>2012-10-14T09:24:43Z</time>
      </trkpt>
      <trkpt lat="45.80167" lon="4.92945">
        <ele>184.4</ele>
        <time>2012-10-14T09:24:47Z</time>
      </trkpt>
      <trkpt lat="45.80174" lon="4.92939">
        <ele>184.6</ele>
        <time>2012-10-14T09:24:51Z</time>
      </trkpt>
      <trkpt lat="45.80179" lon="4.9293">
        <ele>184.4</ele>
        <time>2012-10-14T09:24:55Z</time>
      </trkpt>
      <trkpt lat="45.80181" lon="4.92924">
        <ele>184.6</ele>
        <time>2012-10-14T09:24:57Z</time>
      </trkpt>
      <trkpt lat="45.80186" lon="4.92908">
        <ele>184.4</ele>
        <time>2012-10-14T09:25:04Z</time>
      </trkpt>
      <trkpt lat="45.80193" lon="4.92891">
        <ele>184.4</ele>
        <time>2012-10-14T09:25:09Z</time>
      </trkpt>
      <trkpt lat="45.80197" lon="4.92882">
        <ele>184.4</ele>
        <time>2012-10-14T09:25:11Z</time>
      </trkpt>
      <trkpt lat="45.80207" lon="4.92858">
        <ele>184.4</ele>
        <time>2012-10-14T09:25:16Z</time>
      </trkpt>
      <trkpt lat="45.8021" lon="4.92853">
        <ele>184.4</ele>
        <time>2012-10-14T09:25:18Z</time>
      </trkpt>
      <trkpt lat="45.80211" lon="4.92852">
        <ele>184.4</ele>
        <time>2012-10-14T09:25:19Z</time>
      </trkpt>
      <trkpt lat="45.80215" lon="4.92841">
        <ele>184.4</ele>
        <time>2012-10-14T09:25:24Z</time>
      </trkpt>
      <trkpt lat="45.80215" lon="4.92837">
        <ele>184.4</ele>
        <time>2012-10-14T09:25:25Z</time>
      </trkpt>
      <trkpt lat="45.80215" lon="4.92831">
        <ele>184.4</ele>
        <time>2012-10-14T09:25:27Z</time>
      </trkpt>
      <trkpt lat="45.80213" lon="4.92831">
        <ele>184.2</ele>
        <time>2012-10-14T09:25:28Z</time>
      </trkpt>
      <trkpt lat="45.80212" lon="4.92844">
        <ele>184.2</ele>
        <time>2012-10-14T09:25:31Z</time>
      </trkpt>
      <trkpt lat="45.80211" lon="4.92874">
        <ele>184.2</ele>
        <time>2012-10-14T09:25:35Z</time>
      </trkpt>
      <trkpt lat="45.80211" lon="4.92883">
        <ele>184.2</ele>
        <time>2012-10-14T09:25:36Z</time>
      </trkpt>
      <trkpt lat="45.80214" lon="4.92902">
        <ele>184</ele>
        <time>2012-10-14T09:25:38Z</time>
      </trkpt>
      <trkpt lat="45.8022" lon="4.9292">
        <ele>184</ele>
        <time>2012-10-14T09:25:40Z</time>
      </trkpt>
      <trkpt lat="45.80224" lon="4.92928">
        <ele>184</ele>
        <time>2012-10-14T09:25:41Z</time>
      </trkpt>
      <trkpt lat="45.80237" lon="4.92968">
        <ele>184</ele>
        <time>2012-10-14T09:25:46Z</time>
      </trkpt>
      <trkpt lat="45.80239" lon="4.92976">
        <ele>184</ele>
        <time>2012-10-14T09:25:47Z</time>
      </trkpt>
      <trkpt lat="45.80247" lon="4.93003">
        <ele>183.8</ele>
        <time>2012-10-14T09:25:50Z</time>
      </trkpt>
      <trkpt lat="45.80256" lon="4.93023">
        <ele>183.8</ele>
        <time>2012-10-14T09:25:54Z</time>
      </trkpt>
      <trkpt lat="45.80265" lon="4.93036">
        <ele>183.8</ele>
        <time>2012-10-14T09:25:56Z</time>
      </trkpt>
      <trkpt lat="45.80268" lon="4.93043">
        <ele>183.8</ele>
        <time>2012-10-14T09:25:57Z</time>
      </trkpt>
      <trkpt lat="45.80271" lon="4.9306">
        <ele>183.8</ele>
        <time>2012-10-14T09:25:59Z</time>
      </trkpt>
      <trkpt lat="45.80272" lon="4.93069">
        <ele>183.8</ele>
        <time>2012-10-14T09:26:00Z</time>
      </trkpt>
      <trkpt lat="45.80282" lon="4.93123">
        <ele>183.6</ele>
        <time>2012-10-14T09:26:06Z</time>
      </trkpt>
      <trkpt lat="45.80284" lon="4.93132">
        <ele>183.6</ele>
        <time>2012-10-14T09:26:07Z</time>
      </trkpt>
      <trkpt lat="45.80292" lon="4.93178">
        <ele>183.6</ele>
        <time>2012-10-14T09:26:12Z</time>
      </trkpt>
      <trkpt lat="45.80293" lon="4.93186">
        <ele>183.6</ele>
        <time>2012-10-14T09:26:13Z</time>
      </trkpt>
      <trkpt lat="45.80297" lon="4.93215">
        <ele>183.4</ele>
        <time>2012-10-14T09:26:17Z</time>
      </trkpt>
      <trkpt lat="45.80299" lon="4.93234">
        <ele>183.4</ele>
        <time>2012-10-14T09:26:19Z</time>
      </trkpt>
      <trkpt lat="45.80301" lon="4.93262">
        <ele>183.4</ele>
        <time>2012-10-14T09:26:22Z</time>
      </trkpt>
      <trkpt lat="45.80303" lon="4.93291">
        <ele>183.4</ele>
        <time>2012-10-14T09:26:25Z</time>
      </trkpt>
      <trkpt lat="45.8031" lon="4.93339">
        <ele>183.4</ele>
        <time>2012-10-14T09:26:30Z</time>
      </trkpt>
      <trkpt lat="45.80312" lon="4.93348">
        <ele>183.4</ele>
        <time>2012-10-14T09:26:31Z</time>
      </trkpt>
      <trkpt lat="45.80319" lon="4.93391">
        <ele>183.4</ele>
        <time>2012-10-14T09:26:36Z</time>
      </trkpt>
      <trkpt lat="45.80316" lon="4.93403">
        <ele>183.4</ele>
        <time>2012-10-14T09:26:38Z</time>
      </trkpt>
      <trkpt lat="45.80315" lon="4.93406">
        <ele>183.4</ele>
        <time>2012-10-14T09:26:39Z</time>
      </trkpt>
      <trkpt lat="45.80317" lon="4.93415">
        <ele>183.4</ele>
        <time>2012-10-14T09:26:43Z</time>
      </trkpt>
      <trkpt lat="45.80323" lon="4.93413">
        <ele>183.4</ele>
        <time>2012-10-14T09:26:46Z</time>
      </trkpt>
      <trkpt lat="45.80329" lon="4.9341">
        <ele>183.4</ele>
        <time>2012-10-14T09:26:48Z</time>
      </trkpt>
      <trkpt lat="45.80333" lon="4.93408">
        <ele>183.2</ele>
        <time>2012-10-14T09:26:49Z</time>
      </trkpt>
      <trkpt lat="45.80344" lon="4.93406">
        <ele>183.2</ele>
        <time>2012-10-14T09:26:50Z</time>
      </trkpt>
      <trkpt lat="45.80368" lon="4.93394">
        <ele>182.8</ele>
        <time>2012-10-14T09:26:54Z</time>
      </trkpt>
      <trkpt lat="45.80386" lon="4.93387">
        <ele>182.8</ele>
        <time>2012-10-14T09:26:56Z</time>
      </trkpt>
      <trkpt lat="45.80429" lon="4.93369">
        <ele>182.6</ele>
        <time>2012-10-14T09:27:01Z</time>
      </trkpt>
      <trkpt lat="45.80467" lon="4.93353">
        <ele>182.4</ele>
        <time>2012-10-14T09:27:06Z</time>
      </trkpt>
      <trkpt lat="45.80473" lon="4.93351">
        <ele>182.4</ele>
        <time>2012-10-14T09:27:07Z</time>
      </trkpt>
      <trkpt lat="45.80489" lon="4.93344">
        <ele>182.4</ele>
        <time>2012-10-14T09:27:11Z</time>
      </trkpt>
      <trkpt lat="45.80498" lon="4.93341">
        <ele>182.4</ele>
        <time>2012-10-14T09:27:15Z</time>
      </trkpt>
      <trkpt lat="45.80503" lon="4.93335">
        <ele>182.2</ele>
        <time>2012-10-14T09:27:18Z</time>
      </trkpt>
      <trkpt lat="45.80505" lon="4.93334">
        <ele>182.2</ele>
        <time>2012-10-14T09:27:19Z</time>
      </trkpt>
      <trkpt lat="45.80512" lon="4.93333">
        <ele>182.2</ele>
        <time>2012-10-14T09:27:23Z</time>
      </trkpt>
      <trkpt lat="45.80523" lon="4.93334">
        <ele>182.2</ele>
        <time>2012-10-14T09:27:28Z</time>
      </trkpt>
      <trkpt lat="45.80539" lon="4.9334">
        <ele>182</ele>
        <time>2012-10-14T09:27:32Z</time>
      </trkpt>
      <trkpt lat="45.80549" lon="4.93344">
        <ele>182</ele>
        <time>2012-10-14T09:27:34Z</time>
      </trkpt>
      <trkpt lat="45.80571" lon="4.93352">
        <ele>182</ele>
        <time>2012-10-14T09:27:38Z</time>
      </trkpt>
      <trkpt lat="45.80577" lon="4.93354">
        <ele>182</ele>
        <time>2012-10-14T09:27:39Z</time>
      </trkpt>
      <trkpt lat="45.80582" lon="4.93355">
        <ele>182</ele>
        <time>2012-10-14T09:27:40Z</time>
      </trkpt>
      <trkpt lat="45.80588" lon="4.93355">
        <ele>182</ele>
        <time>2012-10-14T09:27:41Z</time>
      </trkpt>
      <trkpt lat="45.80605" lon="4.9335">
        <ele>181.8</ele>
        <time>2012-10-14T09:27:44Z</time>
      </trkpt>
      <trkpt lat="45.80615" lon="4.9334">
        <ele>181.8</ele>
        <time>2012-10-14T09:27:46Z</time>
      </trkpt>
      <trkpt lat="45.8062" lon="4.93334">
        <ele>181.8</ele>
        <time>2012-10-14T09:27:47Z</time>
      </trkpt>
      <trkpt lat="45.80625" lon="4.93328">
        <ele>181.8</ele>
        <time>2012-10-14T09:27:48Z</time>
      </trkpt>
      <trkpt lat="45.80634" lon="4.93318">
        <ele>181.8</ele>
        <time>2012-10-14T09:27:50Z</time>
      </trkpt>
      <trkpt lat="45.80645" lon="4.93312">
        <ele>181.8</ele>
        <time>2012-10-14T09:27:52Z</time>
      </trkpt>
      <trkpt lat="45.80651" lon="4.9331">
        <ele>181.8</ele>
        <time>2012-10-14T09:27:53Z</time>
      </trkpt>
      <trkpt lat="45.80656" lon="4.93309">
        <ele>181.8</ele>
        <time>2012-10-14T09:27:54Z</time>
      </trkpt>
      <trkpt lat="45.80662" lon="4.93307">
        <ele>181.8</ele>
        <time>2012-10-14T09:27:55Z</time>
      </trkpt>
      <trkpt lat="45.80669" lon="4.93297">
        <ele>181.6</ele>
        <time>2012-10-14T09:27:57Z</time>
      </trkpt>
      <trkpt lat="45.80674" lon="4.93273">
        <ele>181.6</ele>
        <time>2012-10-14T09:28:00Z</time>
      </trkpt>
      <trkpt lat="45.80684" lon="4.93253">
        <ele>181.6</ele>
        <time>2012-10-14T09:28:02Z</time>
      </trkpt>
      <trkpt lat="45.80689" lon="4.93247">
        <ele>181.6</ele>
        <time>2012-10-14T09:28:04Z</time>
      </trkpt>
      <trkpt lat="45.80698" lon="4.93236">
        <ele>181.6</ele>
        <time>2012-10-14T09:28:06Z</time>
      </trkpt>
      <trkpt lat="45.80713" lon="4.93216">
        <ele>181.4</ele>
        <time>2012-10-14T09:28:09Z</time>
      </trkpt>
      <trkpt lat="45.80717" lon="4.9321">
        <ele>181.4</ele>
        <time>2012-10-14T09:28:10Z</time>
      </trkpt>
      <trkpt lat="45.80724" lon="4.93197">
        <ele>181.4</ele>
        <time>2012-10-14T09:28:12Z</time>
      </trkpt>
      <trkpt lat="45.80727" lon="4.93191">
        <ele>181.4</ele>
        <time>2012-10-14T09:28:13Z</time>
      </trkpt>
      <trkpt lat="45.80731" lon="4.93182">
        <ele>181.4</ele>
        <time>2012-10-14T09:28:15Z</time>
      </trkpt>
      <trkpt lat="45.80736" lon="4.93171">
        <ele>181.4</ele>
        <time>2012-10-14T09:28:17Z</time>
      </trkpt>
      <trkpt lat="45.80752" lon="4.93152">
        <ele>181.2</ele>
        <time>2012-10-14T09:28:20Z</time>
      </trkpt>
      <trkpt lat="45.80779" lon="4.93125">
        <ele>181</ele>
        <time>2012-10-14T09:28:26Z</time>
      </trkpt>
      <trkpt lat="45.80785" lon="4.93119">
        <ele>181</ele>
        <time>2012-10-14T09:28:27Z</time>
      </trkpt>
      <trkpt lat="45.80797" lon="4.93109">
        <ele>181</ele>
        <time>2012-10-14T09:28:29Z</time>
      </trkpt>
      <trkpt lat="45.80817" lon="4.93096">
        <ele>180.8</ele>
        <time>2012-10-14T09:28:32Z</time>
      </trkpt>
      <trkpt lat="45.8084" lon="4.93079">
        <ele>180.8</ele>
        <time>2012-10-14T09:28:36Z</time>
      </trkpt>
      <trkpt lat="45.80849" lon="4.93068">
        <ele>180.6</ele>
        <time>2012-10-14T09:28:38Z</time>
      </trkpt>
      <trkpt lat="45.80859" lon="4.93051">
        <ele>180.6</ele>
        <time>2012-10-14T09:28:40Z</time>
      </trkpt>
      <trkpt lat="45.80855" lon="4.93034">
        <ele>180.6</ele>
        <time>2012-10-14T09:28:43Z</time>
      </trkpt>
      <trkpt lat="45.8085" lon="4.93021">
        <ele>180.6</ele>
        <time>2012-10-14T09:28:45Z</time>
      </trkpt>
      <trkpt lat="45.80842" lon="4.93001">
        <ele>180.6</ele>
        <time>2012-10-14T09:28:48Z</time>
      </trkpt>
      <trkpt lat="45.80829" lon="4.92975">
        <ele>180.6</ele>
        <time>2012-10-14T09:28:52Z</time>
      </trkpt>
      <trkpt lat="45.80826" lon="4.92971">
        <ele>180.6</ele>
        <time>2012-10-14T09:28:53Z</time>
      </trkpt>
      <trkpt lat="45.80822" lon="4.92961">
        <ele>180.8</ele>
        <time>2012-10-14T09:28:55Z</time>
      </trkpt>
      <trkpt lat="45.8082" lon="4.9295">
        <ele>180.8</ele>
        <time>2012-10-14T09:28:57Z</time>
      </trkpt>
      <trkpt lat="45.80813" lon="4.92927">
        <ele>181</ele>
        <time>2012-10-14T09:29:01Z</time>
      </trkpt>
      <trkpt lat="45.80809" lon="4.92915">
        <ele>181.2</ele>
        <time>2012-10-14T09:29:03Z</time>
      </trkpt>
      <trkpt lat="45.80807" lon="4.92909">
        <ele>181.2</ele>
        <time>2012-10-14T09:29:04Z</time>
      </trkpt>
      <trkpt lat="45.808" lon="4.92884">
        <ele>181.4</ele>
        <time>2012-10-14T09:29:08Z</time>
      </trkpt>
      <trkpt lat="45.80799" lon="4.92877">
        <ele>181.6</ele>
        <time>2012-10-14T09:29:09Z</time>
      </trkpt>
      <trkpt lat="45.80791" lon="4.92844">
        <ele>182.2</ele>
        <time>2012-10-14T09:29:14Z</time>
      </trkpt>
      <trkpt lat="45.80787" lon="4.92823">
        <ele>182.8</ele>
        <time>2012-10-14T09:29:17Z</time>
      </trkpt>
      <trkpt lat="45.80785" lon="4.92816">
        <ele>183</ele>
        <time>2012-10-14T09:29:18Z</time>
      </trkpt>
      <trkpt lat="45.80776" lon="4.92767">
        <ele>184.4</ele>
        <time>2012-10-14T09:29:25Z</time>
      </trkpt>
      <trkpt lat="45.80764" lon="4.92716">
        <ele>186</ele>
        <time>2012-10-14T09:29:32Z</time>
      </trkpt>
      <trkpt lat="45.80752" lon="4.92663">
        <ele>187.2</ele>
        <time>2012-10-14T09:29:39Z</time>
      </trkpt>
      <trkpt lat="45.80734" lon="4.92611">
        <ele>187.8</ele>
        <time>2012-10-14T09:29:46Z</time>
      </trkpt>
      <trkpt lat="45.80732" lon="4.92605">
        <ele>187.8</ele>
        <time>2012-10-14T09:29:47Z</time>
      </trkpt>
      <trkpt lat="45.80716" lon="4.92566">
        <ele>187.8</ele>
        <time>2012-10-14T09:29:53Z</time>
      </trkpt>
      <trkpt lat="45.80714" lon="4.9256">
        <ele>187.8</ele>
        <time>2012-10-14T09:29:54Z</time>
      </trkpt>
      <trkpt lat="45.80707" lon="4.92535">
        <ele>187.8</ele>
        <time>2012-10-14T09:29:58Z</time>
      </trkpt>
      <trkpt lat="45.80702" lon="4.92522">
        <ele>187.6</ele>
        <time>2012-10-14T09:30:00Z</time>
      </trkpt>
      <trkpt lat="45.807" lon="4.92515">
        <ele>187.6</ele>
        <time>2012-10-14T09:30:01Z</time>
      </trkpt>
      <trkpt lat="45.80698" lon="4.92508">
        <ele>187.6</ele>
        <time>2012-10-14T09:30:02Z</time>
      </trkpt>
      <trkpt lat="45.80687" lon="4.92477">
        <ele>187.6</ele>
        <time>2012-10-14T09:30:07Z</time>
      </trkpt>
      <trkpt lat="45.80685" lon="4.92472">
        <ele>187.6</ele>
        <time>2012-10-14T09:30:08Z</time>
      </trkpt>
      <trkpt lat="45.80684" lon="4.92466">
        <ele>187.6</ele>
        <time>2012-10-14T09:30:09Z</time>
      </trkpt>
      <trkpt lat="45.80679" lon="4.92451">
        <ele>187.6</ele>
        <time>2012-10-14T09:30:12Z</time>
      </trkpt>
      <trkpt lat="45.80677" lon="4.92445">
        <ele>187.6</ele>
        <time>2012-10-14T09:30:13Z</time>
      </trkpt>
      <trkpt lat="45.80678" lon="4.92426">
        <ele>187.4</ele>
        <time>2012-10-14T09:30:16Z</time>
      </trkpt>
      <trkpt lat="45.80678" lon="4.92415">
        <ele>187.4</ele>
        <time>2012-10-14T09:30:18Z</time>
      </trkpt>
      <trkpt lat="45.80676" lon="4.92398">
        <ele>187.4</ele>
        <time>2012-10-14T09:30:21Z</time>
      </trkpt>
      <trkpt lat="45.80673" lon="4.92372">
        <ele>187.4</ele>
        <time>2012-10-14T09:30:25Z</time>
      </trkpt>
      <trkpt lat="45.80673" lon="4.92364">
        <ele>187.4</ele>
        <time>2012-10-14T09:30:26Z</time>
      </trkpt>
      <trkpt lat="45.80672" lon="4.9234">
        <ele>187.4</ele>
        <time>2012-10-14T09:30:30Z</time>
      </trkpt>
      <trkpt lat="45.80673" lon="4.92337">
        <ele>187.4</ele>
        <time>2012-10-14T09:30:31Z</time>
      </trkpt>
      <trkpt lat="45.80679" lon="4.92338">
        <ele>187.2</ele>
        <time>2012-10-14T09:30:33Z</time>
      </trkpt>
      <trkpt lat="45.80685" lon="4.92341">
        <ele>187.2</ele>
        <time>2012-10-14T09:30:35Z</time>
      </trkpt>
      <trkpt lat="45.80691" lon="4.92346">
        <ele>187.2</ele>
        <time>2012-10-14T09:30:37Z</time>
      </trkpt>
      <trkpt lat="45.80695" lon="4.9235">
        <ele>187.2</ele>
        <time>2012-10-14T09:30:38Z</time>
      </trkpt>
      <trkpt lat="45.80699" lon="4.92356">
        <ele>187.2</ele>
        <time>2012-10-14T09:30:39Z</time>
      </trkpt>
      <trkpt lat="45.80706" lon="4.92367">
        <ele>187</ele>
        <time>2012-10-14T09:30:41Z</time>
      </trkpt>
      <trkpt lat="45.80711" lon="4.92372">
        <ele>187</ele>
        <time>2012-10-14T09:30:42Z</time>
      </trkpt>
      <trkpt lat="45.80722" lon="4.9238">
        <ele>187</ele>
        <time>2012-10-14T09:30:44Z</time>
      </trkpt>
      <trkpt lat="45.80744" lon="4.92401">
        <ele>187</ele>
        <time>2012-10-14T09:30:48Z</time>
      </trkpt>
      <trkpt lat="45.80755" lon="4.92411">
        <ele>187</ele>
        <time>2012-10-14T09:30:50Z</time>
      </trkpt>
      <trkpt lat="45.80775" lon="4.92433">
        <ele>187</ele>
        <time>2012-10-14T09:30:54Z</time>
      </trkpt>
      <trkpt lat="45.80779" lon="4.92438">
        <ele>187</ele>
        <time>2012-10-14T09:30:55Z</time>
      </trkpt>
      <trkpt lat="45.80783" lon="4.92443">
        <ele>187</ele>
        <time>2012-10-14T09:30:56Z</time>
      </trkpt>
      <trkpt lat="45.80788" lon="4.92448">
        <ele>186.8</ele>
        <time>2012-10-14T09:30:57Z</time>
      </trkpt>
      <trkpt lat="45.80791" lon="4.92453">
        <ele>187</ele>
        <time>2012-10-14T09:30:58Z</time>
      </trkpt>
      <trkpt lat="45.80798" lon="4.92465">
        <ele>187.2</ele>
        <time>2012-10-14T09:31:00Z</time>
      </trkpt>
      <trkpt lat="45.80813" lon="4.92487">
        <ele>188.2</ele>
        <time>2012-10-14T09:31:04Z</time>
      </trkpt>
      <trkpt lat="45.80818" lon="4.92502">
        <ele>189</ele>
        <time>2012-10-14T09:31:06Z</time>
      </trkpt>
      <trkpt lat="45.80825" lon="4.92524">
        <ele>190.2</ele>
        <time>2012-10-14T09:31:09Z</time>
      </trkpt>
      <trkpt lat="45.8083" lon="4.92538">
        <ele>191.4</ele>
        <time>2012-10-14T09:31:11Z</time>
      </trkpt>
      <trkpt lat="45.80838" lon="4.92552">
        <ele>192.6</ele>
        <time>2012-10-14T09:31:14Z</time>
      </trkpt>
      <trkpt lat="45.80843" lon="4.92572">
        <ele>194.2</ele>
        <time>2012-10-14T09:31:20Z</time>
      </trkpt>
      <trkpt lat="45.80844" lon="4.9257">
        <ele>194.4</ele>
        <time>2012-10-14T09:31:26Z</time>
      </trkpt>
      <trkpt lat="45.80842" lon="4.92564">
        <ele>194</ele>
        <time>2012-10-14T09:31:32Z</time>
      </trkpt>
      <trkpt lat="45.80843" lon="4.92565">
        <ele>194</ele>
        <time>2012-10-14T09:31:33Z</time>
      </trkpt>
      <trkpt lat="45.80844" lon="4.92567">
        <ele>194</ele>
        <time>2012-10-14T09:31:34Z</time>
      </trkpt>
      <trkpt lat="45.80845" lon="4.92569">
        <ele>193.8</ele>
        <time>2012-10-14T09:31:36Z</time>
      </trkpt>
      <trkpt lat="45.80849" lon="4.9258">
        <ele>193</ele>
        <time>2012-10-14T09:31:46Z</time>
      </trkpt>
      <trkpt lat="45.80858" lon="4.92599">
        <ele>192.8</ele>
        <time>2012-10-14T09:31:50Z</time>
      </trkpt>
      <trkpt lat="45.80863" lon="4.9261">
        <ele>192.6</ele>
        <time>2012-10-14T09:31:52Z</time>
      </trkpt>
      <trkpt lat="45.80868" lon="4.92629">
        <ele>192.4</ele>
        <time>2012-10-14T09:31:55Z</time>
      </trkpt>
      <trkpt lat="45.80869" lon="4.92637">
        <ele>192.4</ele>
        <time>2012-10-14T09:31:56Z</time>
      </trkpt>
      <trkpt lat="45.80871" lon="4.92654">
        <ele>192.4</ele>
        <time>2012-10-14T09:31:58Z</time>
      </trkpt>
      <trkpt lat="45.80872" lon="4.92662">
        <ele>192.4</ele>
        <time>2012-10-14T09:31:59Z</time>
      </trkpt>
      <trkpt lat="45.80877" lon="4.92695">
        <ele>192.6</ele>
        <time>2012-10-14T09:32:03Z</time>
      </trkpt>
      <trkpt lat="45.80881" lon="4.92718">
        <ele>193.4</ele>
        <time>2012-10-14T09:32:06Z</time>
      </trkpt>
      <trkpt lat="45.8088" lon="4.92733">
        <ele>193.6</ele>
        <time>2012-10-14T09:32:08Z</time>
      </trkpt>
      <trkpt lat="45.80877" lon="4.92772">
        <ele>195</ele>
        <time>2012-10-14T09:32:13Z</time>
      </trkpt>
      <trkpt lat="45.80878" lon="4.92781">
        <ele>195.2</ele>
        <time>2012-10-14T09:32:14Z</time>
      </trkpt>
      <trkpt lat="45.80884" lon="4.92797">
        <ele>195.6</ele>
        <time>2012-10-14T09:32:16Z</time>
      </trkpt>
      <trkpt lat="45.80893" lon="4.92807">
        <ele>195.8</ele>
        <time>2012-10-14T09:32:18Z</time>
      </trkpt>
      <trkpt lat="45.80898" lon="4.92811">
        <ele>196</ele>
        <time>2012-10-14T09:32:19Z</time>
      </trkpt>
      <trkpt lat="45.80904" lon="4.92814">
        <ele>196</ele>
        <time>2012-10-14T09:32:20Z</time>
      </trkpt>
      <trkpt lat="45.80919" lon="4.92824">
        <ele>196.6</ele>
        <time>2012-10-14T09:32:23Z</time>
      </trkpt>
      <trkpt lat="45.80934" lon="4.92831">
        <ele>196.8</ele>
        <time>2012-10-14T09:32:26Z</time>
      </trkpt>
      <trkpt lat="45.80944" lon="4.92835">
        <ele>196.6</ele>
        <time>2012-10-14T09:32:28Z</time>
      </trkpt>
      <trkpt lat="45.80949" lon="4.92839">
        <ele>196.8</ele>
        <time>2012-10-14T09:32:29Z</time>
      </trkpt>
      <trkpt lat="45.80964" lon="4.92863">
        <ele>196.8</ele>
        <time>2012-10-14T09:32:33Z</time>
      </trkpt>
      <trkpt lat="45.80967" lon="4.92871">
        <ele>197</ele>
        <time>2012-10-14T09:32:34Z</time>
      </trkpt>
      <trkpt lat="45.8097" lon="4.92879">
        <ele>197</ele>
        <time>2012-10-14T09:32:35Z</time>
      </trkpt>
      <trkpt lat="45.80981" lon="4.92896">
        <ele>197</ele>
        <time>2012-10-14T09:32:38Z</time>
      </trkpt>
      <trkpt lat="45.80991" lon="4.92905">
        <ele>197</ele>
        <time>2012-10-14T09:32:40Z</time>
      </trkpt>
      <trkpt lat="45.80999" lon="4.92915">
        <ele>197</ele>
        <time>2012-10-14T09:32:42Z</time>
      </trkpt>
      <trkpt lat="45.81002" lon="4.92921">
        <ele>197.2</ele>
        <time>2012-10-14T09:32:43Z</time>
      </trkpt>
      <trkpt lat="45.8102" lon="4.92949">
        <ele>197.6</ele>
        <time>2012-10-14T09:32:47Z</time>
      </trkpt>
      <trkpt lat="45.81024" lon="4.92956">
        <ele>197.6</ele>
        <time>2012-10-14T09:32:48Z</time>
      </trkpt>
      <trkpt lat="45.81035" lon="4.92969">
        <ele>197.2</ele>
        <time>2012-10-14T09:32:50Z</time>
      </trkpt>
      <trkpt lat="45.81046" lon="4.92978">
        <ele>197.2</ele>
        <time>2012-10-14T09:32:52Z</time>
      </trkpt>
      <trkpt lat="45.81052" lon="4.92981">
        <ele>197.2</ele>
        <time>2012-10-14T09:32:53Z</time>
      </trkpt>
      <trkpt lat="45.81062" lon="4.92991">
        <ele>197.2</ele>
        <time>2012-10-14T09:32:55Z</time>
      </trkpt>
      <trkpt lat="45.8107" lon="4.93001">
        <ele>197.2</ele>
        <time>2012-10-14T09:32:57Z</time>
      </trkpt>
      <trkpt lat="45.81083" lon="4.93018">
        <ele>197.2</ele>
        <time>2012-10-14T09:33:00Z</time>
      </trkpt>
      <trkpt lat="45.81095" lon="4.93034">
        <ele>197.2</ele>
        <time>2012-10-14T09:33:03Z</time>
      </trkpt>
      <trkpt lat="45.81099" lon="4.9304">
        <ele>197.2</ele>
        <time>2012-10-14T09:33:04Z</time>
      </trkpt>
      <trkpt lat="45.8111" lon="4.93059">
        <ele>197.4</ele>
        <time>2012-10-14T09:33:07Z</time>
      </trkpt>
      <trkpt lat="45.81114" lon="4.93064">
        <ele>197.4</ele>
        <time>2012-10-14T09:33:08Z</time>
      </trkpt>
      <trkpt lat="45.81124" lon="4.93072">
        <ele>197.2</ele>
        <time>2012-10-14T09:33:10Z</time>
      </trkpt>
      <trkpt lat="45.81133" lon="4.93081">
        <ele>197.2</ele>
        <time>2012-10-14T09:33:12Z</time>
      </trkpt>
      <trkpt lat="45.81139" lon="4.93093">
        <ele>197.2</ele>
        <time>2012-10-14T09:33:14Z</time>
      </trkpt>
      <trkpt lat="45.81139" lon="4.93107">
        <ele>197.4</ele>
        <time>2012-10-14T09:33:16Z</time>
      </trkpt>
      <trkpt lat="45.8114" lon="4.93115">
        <ele>197.6</ele>
        <time>2012-10-14T09:33:17Z</time>
      </trkpt>
      <trkpt lat="45.81143" lon="4.93123">
        <ele>197.6</ele>
        <time>2012-10-14T09:33:18Z</time>
      </trkpt>
      <trkpt lat="45.81146" lon="4.93131">
        <ele>197.6</ele>
        <time>2012-10-14T09:33:19Z</time>
      </trkpt>
      <trkpt lat="45.81154" lon="4.93141">
        <ele>197.6</ele>
        <time>2012-10-14T09:33:21Z</time>
      </trkpt>
      <trkpt lat="45.81167" lon="4.93159">
        <ele>198</ele>
        <time>2012-10-14T09:33:25Z</time>
      </trkpt>
      <trkpt lat="45.81178" lon="4.93186">
        <ele>198.2</ele>
        <time>2012-10-14T09:33:29Z</time>
      </trkpt>
      <trkpt lat="45.81182" lon="4.93193">
        <ele>198.4</ele>
        <time>2012-10-14T09:33:30Z</time>
      </trkpt>
      <trkpt lat="45.81186" lon="4.932">
        <ele>198.4</ele>
        <time>2012-10-14T09:33:31Z</time>
      </trkpt>
      <trkpt lat="45.812" lon="4.93217">
        <ele>198.2</ele>
        <time>2012-10-14T09:33:34Z</time>
      </trkpt>
      <trkpt lat="45.81204" lon="4.93223">
        <ele>198.2</ele>
        <time>2012-10-14T09:33:35Z</time>
      </trkpt>
      <trkpt lat="45.81214" lon="4.93244">
        <ele>198.4</ele>
        <time>2012-10-14T09:33:38Z</time>
      </trkpt>
      <trkpt lat="45.81218" lon="4.93251">
        <ele>198.4</ele>
        <time>2012-10-14T09:33:39Z</time>
      </trkpt>
      <trkpt lat="45.81225" lon="4.93266">
        <ele>198.2</ele>
        <time>2012-10-14T09:33:41Z</time>
      </trkpt>
      <trkpt lat="45.8124" lon="4.93296">
        <ele>198</ele>
        <time>2012-10-14T09:33:45Z</time>
      </trkpt>
      <trkpt lat="45.81243" lon="4.93304">
        <ele>198</ele>
        <time>2012-10-14T09:33:46Z</time>
      </trkpt>
      <trkpt lat="45.81246" lon="4.93312">
        <ele>197.8</ele>
        <time>2012-10-14T09:33:47Z</time>
      </trkpt>
      <trkpt lat="45.81253" lon="4.93337">
        <ele>197.6</ele>
        <time>2012-10-14T09:33:50Z</time>
      </trkpt>
      <trkpt lat="45.81258" lon="4.93352">
        <ele>197.6</ele>
        <time>2012-10-14T09:33:52Z</time>
      </trkpt>
      <trkpt lat="45.81261" lon="4.93359">
        <ele>197.4</ele>
        <time>2012-10-14T09:33:53Z</time>
      </trkpt>
      <trkpt lat="45.81265" lon="4.93367">
        <ele>197.4</ele>
        <time>2012-10-14T09:33:54Z</time>
      </trkpt>
      <trkpt lat="45.81284" lon="4.93404">
        <ele>196.8</ele>
        <time>2012-10-14T09:33:59Z</time>
      </trkpt>
      <trkpt lat="45.81287" lon="4.93412">
        <ele>196.8</ele>
        <time>2012-10-14T09:34:00Z</time>
      </trkpt>
      <trkpt lat="45.81291" lon="4.93419">
        <ele>196.6</ele>
        <time>2012-10-14T09:34:01Z</time>
      </trkpt>
      <trkpt lat="45.81307" lon="4.93445">
        <ele>196.4</ele>
        <time>2012-10-14T09:34:05Z</time>
      </trkpt>
      <trkpt lat="45.81312" lon="4.93451">
        <ele>196.2</ele>
        <time>2012-10-14T09:34:06Z</time>
      </trkpt>
      <trkpt lat="45.81321" lon="4.93474">
        <ele>196</ele>
        <time>2012-10-14T09:34:09Z</time>
      </trkpt>
      <trkpt lat="45.81326" lon="4.93488">
        <ele>195.8</ele>
        <time>2012-10-14T09:34:11Z</time>
      </trkpt>
      <trkpt lat="45.8133" lon="4.93495">
        <ele>195.8</ele>
        <time>2012-10-14T09:34:12Z</time>
      </trkpt>
      <trkpt lat="45.81341" lon="4.93515">
        <ele>195.4</ele>
        <time>2012-10-14T09:34:15Z</time>
      </trkpt>
      <trkpt lat="45.81351" lon="4.93533">
        <ele>195.2</ele>
        <time>2012-10-14T09:34:19Z</time>
      </trkpt>
      <trkpt lat="45.81356" lon="4.93543">
        <ele>195</ele>
        <time>2012-10-14T09:34:21Z</time>
      </trkpt>
      <trkpt lat="45.81364" lon="4.93556">
        <ele>194.8</ele>
        <time>2012-10-14T09:34:24Z</time>
      </trkpt>
      <trkpt lat="45.81376" lon="4.93577">
        <ele>194.4</ele>
        <time>2012-10-14T09:34:28Z</time>
      </trkpt>
      <trkpt lat="45.81384" lon="4.93595">
        <ele>194.2</ele>
        <time>2012-10-14T09:34:31Z</time>
      </trkpt>
      <trkpt lat="45.81395" lon="4.9362">
        <ele>193.8</ele>
        <time>2012-10-14T09:34:35Z</time>
      </trkpt>
      <trkpt lat="45.81407" lon="4.93646">
        <ele>193.4</ele>
        <time>2012-10-14T09:34:39Z</time>
      </trkpt>
      <trkpt lat="45.81416" lon="4.93664">
        <ele>193.2</ele>
        <time>2012-10-14T09:34:42Z</time>
      </trkpt>
      <trkpt lat="45.8142" lon="4.93673">
        <ele>193</ele>
        <time>2012-10-14T09:34:44Z</time>
      </trkpt>
      <trkpt lat="45.81419" lon="4.93677">
        <ele>192.8</ele>
        <time>2012-10-14T09:34:45Z</time>
      </trkpt>
      <trkpt lat="45.81416" lon="4.93684">
        <ele>192.6</ele>
        <time>2012-10-14T09:34:47Z</time>
      </trkpt>
      <trkpt lat="45.81419" lon="4.93697">
        <ele>192.4</ele>
        <time>2012-10-14T09:34:50Z</time>
      </trkpt>
      <trkpt lat="45.81426" lon="4.93712">
        <ele>192</ele>
        <time>2012-10-14T09:34:53Z</time>
      </trkpt>
      <trkpt lat="45.81428" lon="4.93718">
        <ele>192</ele>
        <time>2012-10-14T09:34:54Z</time>
      </trkpt>
      <trkpt lat="45.81431" lon="4.93724">
        <ele>192</ele>
        <time>2012-10-14T09:34:55Z</time>
      </trkpt>
      <trkpt lat="45.81446" lon="4.93757">
        <ele>191.4</ele>
        <time>2012-10-14T09:35:00Z</time>
      </trkpt>
      <trkpt lat="45.81453" lon="4.93771">
        <ele>191.4</ele>
        <time>2012-10-14T09:35:02Z</time>
      </trkpt>
      <trkpt lat="45.81469" lon="4.93806">
        <ele>191</ele>
        <time>2012-10-14T09:35:07Z</time>
      </trkpt>
      <trkpt lat="45.81472" lon="4.93813">
        <ele>190.8</ele>
        <time>2012-10-14T09:35:08Z</time>
      </trkpt>
      <trkpt lat="45.8149" lon="4.93854">
        <ele>190.4</ele>
        <time>2012-10-14T09:35:14Z</time>
      </trkpt>
      <trkpt lat="45.81505" lon="4.9389">
        <ele>190</ele>
        <time>2012-10-14T09:35:19Z</time>
      </trkpt>
      <trkpt lat="45.81511" lon="4.93903">
        <ele>190</ele>
        <time>2012-10-14T09:35:21Z</time>
      </trkpt>
      <trkpt lat="45.81531" lon="4.93947">
        <ele>189.4</ele>
        <time>2012-10-14T09:35:28Z</time>
      </trkpt>
      <trkpt lat="45.81548" lon="4.93984">
        <ele>189</ele>
        <time>2012-10-14T09:35:34Z</time>
      </trkpt>
      <trkpt lat="45.81551" lon="4.93996">
        <ele>188.8</ele>
        <time>2012-10-14T09:35:37Z</time>
      </trkpt>
      <trkpt lat="45.81555" lon="4.94004">
        <ele>188.8</ele>
        <time>2012-10-14T09:35:39Z</time>
      </trkpt>
      <trkpt lat="45.81566" lon="4.94031">
        <ele>188.6</ele>
        <time>2012-10-14T09:35:44Z</time>
      </trkpt>
      <trkpt lat="45.81571" lon="4.94045">
        <ele>188.4</ele>
        <time>2012-10-14T09:35:46Z</time>
      </trkpt>
      <trkpt lat="45.81582" lon="4.94073">
        <ele>188.4</ele>
        <time>2012-10-14T09:35:50Z</time>
      </trkpt>
      <trkpt lat="45.81592" lon="4.94095">
        <ele>188.4</ele>
        <time>2012-10-14T09:35:53Z</time>
      </trkpt>
      <trkpt lat="45.81602" lon="4.94118">
        <ele>188.4</ele>
        <time>2012-10-14T09:35:56Z</time>
      </trkpt>
      <trkpt lat="45.81613" lon="4.94142">
        <ele>188.6</ele>
        <time>2012-10-14T09:35:59Z</time>
      </trkpt>
      <trkpt lat="45.81621" lon="4.94158">
        <ele>188.6</ele>
        <time>2012-10-14T09:36:01Z</time>
      </trkpt>
      <trkpt lat="45.81625" lon="4.94166">
        <ele>188.6</ele>
        <time>2012-10-14T09:36:02Z</time>
      </trkpt>
      <trkpt lat="45.81636" lon="4.94191">
        <ele>188.6</ele>
        <time>2012-10-14T09:36:05Z</time>
      </trkpt>
      <trkpt lat="45.81659" lon="4.94239">
        <ele>188.6</ele>
        <time>2012-10-14T09:36:11Z</time>
      </trkpt>
      <trkpt lat="45.81666" lon="4.94254">
        <ele>188.6</ele>
        <time>2012-10-14T09:36:13Z</time>
      </trkpt>
      <trkpt lat="45.8168" lon="4.94288">
        <ele>188.6</ele>
        <time>2012-10-14T09:36:18Z</time>
      </trkpt>
      <trkpt lat="45.81686" lon="4.943">
        <ele>188.6</ele>
        <time>2012-10-14T09:36:22Z</time>
      </trkpt>
      <trkpt lat="45.81686" lon="4.94302">
        <ele>188.6</ele>
        <time>2012-10-14T09:36:23Z</time>
      </trkpt>
      <trkpt lat="45.81681" lon="4.94304">
        <ele>188.6</ele>
        <time>2012-10-14T09:36:26Z</time>
      </trkpt>
      <trkpt lat="45.8167" lon="4.94305">
        <ele>188.4</ele>
        <time>2012-10-14T09:36:30Z</time>
      </trkpt>
      <trkpt lat="45.81663" lon="4.94307">
        <ele>188.4</ele>
        <time>2012-10-14T09:36:32Z</time>
      </trkpt>
      <trkpt lat="45.81653" lon="4.94309">
        <ele>188</ele>
        <time>2012-10-14T09:36:36Z</time>
      </trkpt>
      <trkpt lat="45.81649" lon="4.94308">
        <ele>187.6</ele>
        <time>2012-10-14T09:36:42Z</time>
      </trkpt>
      <trkpt lat="45.81647" lon="4.94308">
        <ele>187.4</ele>
        <time>2012-10-14T09:36:43Z</time>
      </trkpt>
      <trkpt lat="45.81632" lon="4.94312">
        <ele>187</ele>
        <time>2012-10-14T09:36:48Z</time>
      </trkpt>
      <trkpt lat="45.81628" lon="4.94313">
        <ele>186.8</ele>
        <time>2012-10-14T09:36:49Z</time>
      </trkpt>
      <trkpt lat="45.81624" lon="4.94314">
        <ele>186.8</ele>
        <time>2012-10-14T09:36:50Z</time>
      </trkpt>
      <trkpt lat="45.81615" lon="4.94316">
        <ele>186.6</ele>
        <time>2012-10-14T09:36:52Z</time>
      </trkpt>
      <trkpt lat="45.8161" lon="4.94318">
        <ele>186.4</ele>
        <time>2012-10-14T09:36:53Z</time>
      </trkpt>
      <trkpt lat="45.81585" lon="4.94326">
        <ele>186</ele>
        <time>2012-10-14T09:36:58Z</time>
      </trkpt>
      <trkpt lat="45.8158" lon="4.94327">
        <ele>186</ele>
        <time>2012-10-14T09:36:59Z</time>
      </trkpt>
      <trkpt lat="45.81561" lon="4.94337">
        <ele>185.8</ele>
        <time>2012-10-14T09:37:03Z</time>
      </trkpt>
      <trkpt lat="45.81556" lon="4.94339">
        <ele>185.8</ele>
        <time>2012-10-14T09:37:04Z</time>
      </trkpt>
      <trkpt lat="45.81547" lon="4.94343">
        <ele>185.8</ele>
        <time>2012-10-14T09:37:06Z</time>
      </trkpt>
      <trkpt lat="45.81536" lon="4.94348">
        <ele>185.8</ele>
        <time>2012-10-14T09:37:09Z</time>
      </trkpt>
      <trkpt lat="45.81532" lon="4.94352">
        <ele>186.4</ele>
        <time>2012-10-14T09:37:12Z</time>
      </trkpt>
      <trkpt lat="45.81532" lon="4.94352">
        <ele>186.4</ele>
        <time>2012-10-14T09:37:18Z</time>
      </trkpt>
      <trkpt lat="45.81527" lon="4.94351">
        <ele>186.4</ele>
        <time>2012-10-14T09:37:21Z</time>
      </trkpt>
      <trkpt lat="45.81525" lon="4.94352">
        <ele>186.4</ele>
        <time>2012-10-14T09:37:22Z</time>
      </trkpt>
      <trkpt lat="45.81519" lon="4.94361">
        <ele>186.2</ele>
        <time>2012-10-14T09:37:27Z</time>
      </trkpt>
      <trkpt lat="45.81519" lon="4.94366">
        <ele>186.4</ele>
        <time>2012-10-14T09:37:28Z</time>
      </trkpt>
      <trkpt lat="45.81516" lon="4.94382">
        <ele>186.4</ele>
        <time>2012-10-14T09:37:31Z</time>
      </trkpt>
      <trkpt lat="45.81516" lon="4.94389">
        <ele>186.6</ele>
        <time>2012-10-14T09:37:32Z</time>
      </trkpt>
      <trkpt lat="45.81514" lon="4.94408">
        <ele>187</ele>
        <time>2012-10-14T09:37:35Z</time>
      </trkpt>
      <trkpt lat="45.81515" lon="4.94421">
        <ele>187.4</ele>
        <time>2012-10-14T09:37:37Z</time>
      </trkpt>
      <trkpt lat="45.81515" lon="4.94428">
        <ele>187.6</ele>
        <time>2012-10-14T09:37:38Z</time>
      </trkpt>
      <trkpt lat="45.81516" lon="4.94435">
        <ele>187.8</ele>
        <time>2012-10-14T09:37:39Z</time>
      </trkpt>
      <trkpt lat="45.81514" lon="4.94452">
        <ele>188.2</ele>
        <time>2012-10-14T09:37:42Z</time>
      </trkpt>
      <trkpt lat="45.81512" lon="4.94455">
        <ele>188.6</ele>
        <time>2012-10-14T09:37:45Z</time>
      </trkpt>
      <trkpt lat="45.8151" lon="4.9446">
        <ele>190.8</ele>
        <time>2012-10-14T09:38:01Z</time>
      </trkpt>
      <trkpt lat="45.81507" lon="4.94462">
        <ele>198.8</ele>
        <time>2012-10-14T09:38:51Z</time>
      </trkpt>
      <trkpt lat="45.81506" lon="4.94464">
        <ele>199</ele>
        <time>2012-10-14T09:38:53Z</time>
      </trkpt>
      <trkpt lat="45.81502" lon="4.9447">
        <ele>199.2</ele>
        <time>2012-10-14T09:38:56Z</time>
      </trkpt>
      <trkpt lat="45.81493" lon="4.94485">
        <ele>199.2</ele>
        <time>2012-10-14T09:39:00Z</time>
      </trkpt>
      <trkpt lat="45.8149" lon="4.9449">
        <ele>199.4</ele>
        <time>2012-10-14T09:39:01Z</time>
      </trkpt>
      <trkpt lat="45.81481" lon="4.94499">
        <ele>199.2</ele>
        <time>2012-10-14T09:39:04Z</time>
      </trkpt>
      <trkpt lat="45.81479" lon="4.94502">
        <ele>199.2</ele>
        <time>2012-10-14T09:39:05Z</time>
      </trkpt>
      <trkpt lat="45.81465" lon="4.94515">
        <ele>199</ele>
        <time>2012-10-14T09:39:11Z</time>
      </trkpt>
      <trkpt lat="45.81464" lon="4.94516">
        <ele>198.6</ele>
        <time>2012-10-14T09:39:15Z</time>
      </trkpt>
      <trkpt lat="45.81465" lon="4.94517">
        <ele>195.8</ele>
        <time>2012-10-14T09:39:49Z</time>
      </trkpt>
      <trkpt lat="45.81467" lon="4.94522">
        <ele>195.6</ele>
        <time>2012-10-14T09:39:51Z</time>
      </trkpt>
      <trkpt lat="45.81471" lon="4.94535">
        <ele>195.4</ele>
        <time>2012-10-14T09:39:55Z</time>
      </trkpt>
      <trkpt lat="45.81473" lon="4.94543">
        <ele>195.4</ele>
        <time>2012-10-14T09:39:57Z</time>
      </trkpt>
      <trkpt lat="45.81478" lon="4.94569">
        <ele>195</ele>
        <time>2012-10-14T09:40:02Z</time>
      </trkpt>
      <trkpt lat="45.8148" lon="4.94575">
        <ele>195</ele>
        <time>2012-10-14T09:40:03Z</time>
      </trkpt>
      <trkpt lat="45.81482" lon="4.94582">
        <ele>195</ele>
        <time>2012-10-14T09:40:04Z</time>
      </trkpt>
      <trkpt lat="45.81487" lon="4.94603">
        <ele>194.8</ele>
        <time>2012-10-14T09:40:07Z</time>
      </trkpt>
      <trkpt lat="45.81493" lon="4.94634">
        <ele>194.8</ele>
        <time>2012-10-14T09:40:11Z</time>
      </trkpt>
      <trkpt lat="45.81496" lon="4.94658">
        <ele>194.8</ele>
        <time>2012-10-14T09:40:14Z</time>
      </trkpt>
      <trkpt lat="45.81496" lon="4.94666">
        <ele>194.8</ele>
        <time>2012-10-14T09:40:15Z</time>
      </trkpt>
      <trkpt lat="45.81496" lon="4.94683">
        <ele>195</ele>
        <time>2012-10-14T09:40:17Z</time>
      </trkpt>
      <trkpt lat="45.81496" lon="4.94692">
        <ele>195.2</ele>
        <time>2012-10-14T09:40:18Z</time>
      </trkpt>
      <trkpt lat="45.81495" lon="4.94715">
        <ele>195</ele>
        <time>2012-10-14T09:40:21Z</time>
      </trkpt>
      <trkpt lat="45.81495" lon="4.9473">
        <ele>195.4</ele>
        <time>2012-10-14T09:40:23Z</time>
      </trkpt>
      <trkpt lat="45.81495" lon="4.94744">
        <ele>195.2</ele>
        <time>2012-10-14T09:40:25Z</time>
      </trkpt>
      <trkpt lat="45.81493" lon="4.94774">
        <ele>195.6</ele>
        <time>2012-10-14T09:40:29Z</time>
      </trkpt>
      <trkpt lat="45.81496" lon="4.94803">
        <ele>196</ele>
        <time>2012-10-14T09:40:33Z</time>
      </trkpt>
      <trkpt lat="45.81497" lon="4.9481">
        <ele>196</ele>
        <time>2012-10-14T09:40:34Z</time>
      </trkpt>
      <trkpt lat="45.81498" lon="4.94817">
        <ele>196</ele>
        <time>2012-10-14T09:40:35Z</time>
      </trkpt>
      <trkpt lat="45.81503" lon="4.94844">
        <ele>196</ele>
        <time>2012-10-14T09:40:38Z</time>
      </trkpt>
      <trkpt lat="45.81503" lon="4.94853">
        <ele>196.2</ele>
        <time>2012-10-14T09:40:39Z</time>
      </trkpt>
      <trkpt lat="45.81504" lon="4.94863">
        <ele>196.2</ele>
        <time>2012-10-14T09:40:40Z</time>
      </trkpt>
      <trkpt lat="45.81507" lon="4.94902">
        <ele>196.4</ele>
        <time>2012-10-14T09:40:44Z</time>
      </trkpt>
      <trkpt lat="45.81506" lon="4.94912">
        <ele>196.6</ele>
        <time>2012-10-14T09:40:45Z</time>
      </trkpt>
      <trkpt lat="45.81503" lon="4.94936">
        <ele>196.8</ele>
        <time>2012-10-14T09:40:48Z</time>
      </trkpt>
      <trkpt lat="45.81507" lon="4.94953">
        <ele>197</ele>
        <time>2012-10-14T09:40:50Z</time>
      </trkpt>
      <trkpt lat="45.81509" lon="4.9497">
        <ele>197.4</ele>
        <time>2012-10-14T09:40:52Z</time>
      </trkpt>
      <trkpt lat="45.81515" lon="4.95022">
        <ele>198.2</ele>
        <time>2012-10-14T09:40:58Z</time>
      </trkpt>
      <trkpt lat="45.81516" lon="4.95031">
        <ele>198.2</ele>
        <time>2012-10-14T09:40:59Z</time>
      </trkpt>
      <trkpt lat="45.81518" lon="4.95048">
        <ele>198.4</ele>
        <time>2012-10-14T09:41:01Z</time>
      </trkpt>
      <trkpt lat="45.81515" lon="4.95065">
        <ele>198.6</ele>
        <time>2012-10-14T09:41:03Z</time>
      </trkpt>
      <trkpt lat="45.81513" lon="4.95081">
        <ele>198.8</ele>
        <time>2012-10-14T09:41:05Z</time>
      </trkpt>
      <trkpt lat="45.81511" lon="4.95104">
        <ele>199</ele>
        <time>2012-10-14T09:41:08Z</time>
      </trkpt>
      <trkpt lat="45.81509" lon="4.95111">
        <ele>199</ele>
        <time>2012-10-14T09:41:09Z</time>
      </trkpt>
      <trkpt lat="45.81505" lon="4.95133">
        <ele>199.2</ele>
        <time>2012-10-14T09:41:12Z</time>
      </trkpt>
      <trkpt lat="45.81506" lon="4.95163">
        <ele>199.6</ele>
        <time>2012-10-14T09:41:16Z</time>
      </trkpt>
      <trkpt lat="45.81505" lon="4.95177">
        <ele>199.8</ele>
        <time>2012-10-14T09:41:18Z</time>
      </trkpt>
      <trkpt lat="45.81504" lon="4.95184">
        <ele>199.8</ele>
        <time>2012-10-14T09:41:19Z</time>
      </trkpt>
      <trkpt lat="45.81503" lon="4.95191">
        <ele>199.8</ele>
        <time>2012-10-14T09:41:20Z</time>
      </trkpt>
      <trkpt lat="45.81502" lon="4.95198">
        <ele>199.8</ele>
        <time>2012-10-14T09:41:21Z</time>
      </trkpt>
      <trkpt lat="45.81499" lon="4.95211">
        <ele>200</ele>
        <time>2012-10-14T09:41:23Z</time>
      </trkpt>
      <trkpt lat="45.81499" lon="4.9523">
        <ele>200.2</ele>
        <time>2012-10-14T09:41:26Z</time>
      </trkpt>
      <trkpt lat="45.815" lon="4.95236">
        <ele>200.2</ele>
        <time>2012-10-14T09:41:27Z</time>
      </trkpt>
      <trkpt lat="45.81503" lon="4.95257">
        <ele>200.4</ele>
        <time>2012-10-14T09:41:30Z</time>
      </trkpt>
      <trkpt lat="45.81504" lon="4.95264">
        <ele>200.6</ele>
        <time>2012-10-14T09:41:31Z</time>
      </trkpt>
      <trkpt lat="45.81505" lon="4.95278">
        <ele>200.6</ele>
        <time>2012-10-14T09:41:33Z</time>
      </trkpt>
      <trkpt lat="45.81504" lon="4.95292">
        <ele>200.6</ele>
        <time>2012-10-14T09:41:35Z</time>
      </trkpt>
      <trkpt lat="45.81503" lon="4.95299">
        <ele>200.6</ele>
        <time>2012-10-14T09:41:36Z</time>
      </trkpt>
      <trkpt lat="45.81505" lon="4.95327">
        <ele>200.8</ele>
        <time>2012-10-14T09:41:40Z</time>
      </trkpt>
      <trkpt lat="45.81506" lon="4.95348">
        <ele>201</ele>
        <time>2012-10-14T09:41:43Z</time>
      </trkpt>
      <trkpt lat="45.81508" lon="4.95355">
        <ele>200.6</ele>
        <time>2012-10-14T09:41:44Z</time>
      </trkpt>
      <trkpt lat="45.8151" lon="4.95362">
        <ele>200.8</ele>
        <time>2012-10-14T09:41:45Z</time>
      </trkpt>
      <trkpt lat="45.81514" lon="4.95377">
        <ele>200.6</ele>
        <time>2012-10-14T09:41:47Z</time>
      </trkpt>
      <trkpt lat="45.81516" lon="4.95392">
        <ele>200.6</ele>
        <time>2012-10-14T09:41:49Z</time>
      </trkpt>
      <trkpt lat="45.81518" lon="4.954">
        <ele>200.6</ele>
        <time>2012-10-14T09:41:50Z</time>
      </trkpt>
      <trkpt lat="45.81519" lon="4.95407">
        <ele>200.6</ele>
        <time>2012-10-14T09:41:51Z</time>
      </trkpt>
      <trkpt lat="45.81524" lon="4.95435">
        <ele>200.4</ele>
        <time>2012-10-14T09:41:55Z</time>
      </trkpt>
      <trkpt lat="45.81529" lon="4.95456">
        <ele>200</ele>
        <time>2012-10-14T09:41:58Z</time>
      </trkpt>
      <trkpt lat="45.81537" lon="4.95475">
        <ele>199.8</ele>
        <time>2012-10-14T09:42:01Z</time>
      </trkpt>
      <trkpt lat="45.81547" lon="4.95501">
        <ele>199.4</ele>
        <time>2012-10-14T09:42:05Z</time>
      </trkpt>
      <trkpt lat="45.81556" lon="4.9552">
        <ele>199.2</ele>
        <time>2012-10-14T09:42:08Z</time>
      </trkpt>
      <trkpt lat="45.81558" lon="4.95526">
        <ele>199.2</ele>
        <time>2012-10-14T09:42:09Z</time>
      </trkpt>
      <trkpt lat="45.81564" lon="4.95539">
        <ele>199</ele>
        <time>2012-10-14T09:42:11Z</time>
      </trkpt>
      <trkpt lat="45.81567" lon="4.95545">
        <ele>199</ele>
        <time>2012-10-14T09:42:12Z</time>
      </trkpt>
      <trkpt lat="45.81574" lon="4.95555">
        <ele>199</ele>
        <time>2012-10-14T09:42:14Z</time>
      </trkpt>
      <trkpt lat="45.81583" lon="4.95566">
        <ele>198.8</ele>
        <time>2012-10-14T09:42:17Z</time>
      </trkpt>
      <trkpt lat="45.81594" lon="4.95584">
        <ele>198.6</ele>
        <time>2012-10-14T09:42:22Z</time>
      </trkpt>
      <trkpt lat="45.81587" lon="4.95597">
        <ele>198.6</ele>
        <time>2012-10-14T09:42:25Z</time>
      </trkpt>
      <trkpt lat="45.81579" lon="4.95613">
        <ele>198.4</ele>
        <time>2012-10-14T09:42:28Z</time>
      </trkpt>
      <trkpt lat="45.81575" lon="4.95626">
        <ele>198.2</ele>
        <time>2012-10-14T09:42:30Z</time>
      </trkpt>
      <trkpt lat="45.81574" lon="4.95633">
        <ele>198.2</ele>
        <time>2012-10-14T09:42:31Z</time>
      </trkpt>
      <trkpt lat="45.81569" lon="4.95669">
        <ele>198.2</ele>
        <time>2012-10-14T09:42:36Z</time>
      </trkpt>
      <trkpt lat="45.81567" lon="4.95676">
        <ele>198</ele>
        <time>2012-10-14T09:42:37Z</time>
      </trkpt>
      <trkpt lat="45.8156" lon="4.95704">
        <ele>198</ele>
        <time>2012-10-14T09:42:41Z</time>
      </trkpt>
      <trkpt lat="45.81552" lon="4.95723">
        <ele>197.8</ele>
        <time>2012-10-14T09:42:44Z</time>
      </trkpt>
      <trkpt lat="45.81542" lon="4.95743">
        <ele>197.6</ele>
        <time>2012-10-14T09:42:48Z</time>
      </trkpt>
      <trkpt lat="45.81541" lon="4.95761">
        <ele>197.4</ele>
        <time>2012-10-14T09:42:52Z</time>
      </trkpt>
      <trkpt lat="45.81545" lon="4.95766">
        <ele>197.2</ele>
        <time>2012-10-14T09:42:53Z</time>
      </trkpt>
      <trkpt lat="45.81553" lon="4.95779">
        <ele>196.8</ele>
        <time>2012-10-14T09:42:56Z</time>
      </trkpt>
      <trkpt lat="45.81563" lon="4.95799">
        <ele>196.4</ele>
        <time>2012-10-14T09:43:01Z</time>
      </trkpt>
      <trkpt lat="45.81563" lon="4.9581">
        <ele>196</ele>
        <time>2012-10-14T09:43:04Z</time>
      </trkpt>
      <trkpt lat="45.81565" lon="4.95818">
        <ele>195.8</ele>
        <time>2012-10-14T09:43:06Z</time>
      </trkpt>
      <trkpt lat="45.81569" lon="4.95845">
        <ele>195.2</ele>
        <time>2012-10-14T09:43:12Z</time>
      </trkpt>
      <trkpt lat="45.8157" lon="4.95864">
        <ele>194.8</ele>
        <time>2012-10-14T09:43:16Z</time>
      </trkpt>
      <trkpt lat="45.81572" lon="4.9588">
        <ele>194.6</ele>
        <time>2012-10-14T09:43:19Z</time>
      </trkpt>
      <trkpt lat="45.81572" lon="4.95886">
        <ele>194.4</ele>
        <time>2012-10-14T09:43:20Z</time>
      </trkpt>
      <trkpt lat="45.81571" lon="4.95898">
        <ele>194.4</ele>
        <time>2012-10-14T09:43:22Z</time>
      </trkpt>
      <trkpt lat="45.81571" lon="4.95904">
        <ele>194.2</ele>
        <time>2012-10-14T09:43:23Z</time>
      </trkpt>
      <trkpt lat="45.81572" lon="4.95916">
        <ele>194</ele>
        <time>2012-10-14T09:43:25Z</time>
      </trkpt>
      <trkpt lat="45.81573" lon="4.95941">
        <ele>193.6</ele>
        <time>2012-10-14T09:43:29Z</time>
      </trkpt>
      <trkpt lat="45.81571" lon="4.95952">
        <ele>193.4</ele>
        <time>2012-10-14T09:43:31Z</time>
      </trkpt>
      <trkpt lat="45.81569" lon="4.95961">
        <ele>193.4</ele>
        <time>2012-10-14T09:43:33Z</time>
      </trkpt>
      <trkpt lat="45.81569" lon="4.95972">
        <ele>193.2</ele>
        <time>2012-10-14T09:43:35Z</time>
      </trkpt>
      <trkpt lat="45.8157" lon="4.9599">
        <ele>193</ele>
        <time>2012-10-14T09:43:38Z</time>
      </trkpt>
      <trkpt lat="45.81571" lon="4.96003">
        <ele>192.8</ele>
        <time>2012-10-14T09:43:40Z</time>
      </trkpt>
      <trkpt lat="45.81573" lon="4.96028">
        <ele>192.6</ele>
        <time>2012-10-14T09:43:44Z</time>
      </trkpt>
      <trkpt lat="45.81573" lon="4.96047">
        <ele>192.4</ele>
        <time>2012-10-14T09:43:47Z</time>
      </trkpt>
      <trkpt lat="45.81572" lon="4.96059">
        <ele>192.4</ele>
        <time>2012-10-14T09:43:49Z</time>
      </trkpt>
      <trkpt lat="45.81571" lon="4.96071">
        <ele>192.2</ele>
        <time>2012-10-14T09:43:51Z</time>
      </trkpt>
      <trkpt lat="45.81571" lon="4.96085">
        <ele>192</ele>
        <time>2012-10-14T09:43:53Z</time>
      </trkpt>
      <trkpt lat="45.81571" lon="4.96092">
        <ele>192</ele>
        <time>2012-10-14T09:43:54Z</time>
      </trkpt>
      <trkpt lat="45.81574" lon="4.96119">
        <ele>191.6</ele>
        <time>2012-10-14T09:43:59Z</time>
      </trkpt>
      <trkpt lat="45.81578" lon="4.9614">
        <ele>191.4</ele>
        <time>2012-10-14T09:44:04Z</time>
      </trkpt>
      <trkpt lat="45.81581" lon="4.96142">
        <ele>191.2</ele>
        <time>2012-10-14T09:44:05Z</time>
      </trkpt>
      <trkpt lat="45.81587" lon="4.96147">
        <ele>191</ele>
        <time>2012-10-14T09:44:08Z</time>
      </trkpt>
      <trkpt lat="45.81588" lon="4.96149">
        <ele>191</ele>
        <time>2012-10-14T09:44:10Z</time>
      </trkpt>
      <trkpt lat="45.81589" lon="4.96151">
        <ele>189.6</ele>
        <time>2012-10-14T09:44:34Z</time>
      </trkpt>
      <trkpt lat="45.8159" lon="4.96155">
        <ele>189.4</ele>
        <time>2012-10-14T09:44:36Z</time>
      </trkpt>
      <trkpt lat="45.81594" lon="4.96174">
        <ele>189.2</ele>
        <time>2012-10-14T09:44:42Z</time>
      </trkpt>
      <trkpt lat="45.81595" lon="4.96184">
        <ele>189</ele>
        <time>2012-10-14T09:44:44Z</time>
      </trkpt>
      <trkpt lat="45.81592" lon="4.96194">
        <ele>189</ele>
        <time>2012-10-14T09:44:46Z</time>
      </trkpt>
      <trkpt lat="45.81581" lon="4.96206">
        <ele>188.8</ele>
        <time>2012-10-14T09:44:50Z</time>
      </trkpt>
      <trkpt lat="45.81579" lon="4.9621">
        <ele>188.6</ele>
        <time>2012-10-14T09:44:51Z</time>
      </trkpt>
      <trkpt lat="45.81578" lon="4.96221">
        <ele>188.6</ele>
        <time>2012-10-14T09:44:53Z</time>
      </trkpt>
      <trkpt lat="45.81579" lon="4.96227">
        <ele>188.6</ele>
        <time>2012-10-14T09:44:54Z</time>
      </trkpt>
      <trkpt lat="45.8158" lon="4.96259">
        <ele>188.2</ele>
        <time>2012-10-14T09:44:59Z</time>
      </trkpt>
      <trkpt lat="45.81581" lon="4.96282">
        <ele>188.2</ele>
        <time>2012-10-14T09:45:03Z</time>
      </trkpt>
      <trkpt lat="45.81582" lon="4.96296">
        <ele>188</ele>
        <time>2012-10-14T09:45:05Z</time>
      </trkpt>
      <trkpt lat="45.81584" lon="4.96338">
        <ele>187.8</ele>
        <time>2012-10-14T09:45:11Z</time>
      </trkpt>
      <trkpt lat="45.81585" lon="4.9635">
        <ele>187.6</ele>
        <time>2012-10-14T09:45:13Z</time>
      </trkpt>
      <trkpt lat="45.81587" lon="4.96392">
        <ele>187.4</ele>
        <time>2012-10-14T09:45:20Z</time>
      </trkpt>
      <trkpt lat="45.81588" lon="4.96404">
        <ele>187.2</ele>
        <time>2012-10-14T09:45:22Z</time>
      </trkpt>
      <trkpt lat="45.81588" lon="4.96416">
        <ele>187.2</ele>
        <time>2012-10-14T09:45:24Z</time>
      </trkpt>
      <trkpt lat="45.81586" lon="4.96428">
        <ele>187</ele>
        <time>2012-10-14T09:45:27Z</time>
      </trkpt>
      <trkpt lat="45.81586" lon="4.96439">
        <ele>186.8</ele>
        <time>2012-10-14T09:45:32Z</time>
      </trkpt>
      <trkpt lat="45.81586" lon="4.96437">
        <ele>186.8</ele>
        <time>2012-10-14T09:45:43Z</time>
      </trkpt>
      <trkpt lat="45.81585" lon="4.96443">
        <ele>186.6</ele>
        <time>2012-10-14T09:45:54Z</time>
      </trkpt>
      <trkpt lat="45.81585" lon="4.96447">
        <ele>186.6</ele>
        <time>2012-10-14T09:45:55Z</time>
      </trkpt>
      <trkpt lat="45.81587" lon="4.96455">
        <ele>186.6</ele>
        <time>2012-10-14T09:45:57Z</time>
      </trkpt>
      <trkpt lat="45.81589" lon="4.96458">
        <ele>186.6</ele>
        <time>2012-10-14T09:45:58Z</time>
      </trkpt>
      <trkpt lat="45.81602" lon="4.96461">
        <ele>186.6</ele>
        <time>2012-10-14T09:46:01Z</time>
      </trkpt>
      <trkpt lat="45.81608" lon="4.96461">
        <ele>186.6</ele>
        <time>2012-10-14T09:46:02Z</time>
      </trkpt>
      <trkpt lat="45.81614" lon="4.9646">
        <ele>186.6</ele>
        <time>2012-10-14T09:46:03Z</time>
      </trkpt>
      <trkpt lat="45.81641" lon="4.96459">
        <ele>186.6</ele>
        <time>2012-10-14T09:46:07Z</time>
      </trkpt>
      <trkpt lat="45.81647" lon="4.9646">
        <ele>186.6</ele>
        <time>2012-10-14T09:46:08Z</time>
      </trkpt>
      <trkpt lat="45.81654" lon="4.96462">
        <ele>186.6</ele>
        <time>2012-10-14T09:46:09Z</time>
      </trkpt>
      <trkpt lat="45.81665" lon="4.96466">
        <ele>186.6</ele>
        <time>2012-10-14T09:46:11Z</time>
      </trkpt>
      <trkpt lat="45.8167" lon="4.96467">
        <ele>186.6</ele>
        <time>2012-10-14T09:46:12Z</time>
      </trkpt>
      <trkpt lat="45.81685" lon="4.96472">
        <ele>186.6</ele>
        <time>2012-10-14T09:46:15Z</time>
      </trkpt>
      <trkpt lat="45.8169" lon="4.96474">
        <ele>186.6</ele>
        <time>2012-10-14T09:46:16Z</time>
      </trkpt>
      <trkpt lat="45.81695" lon="4.96475">
        <ele>186.6</ele>
        <time>2012-10-14T09:46:17Z</time>
      </trkpt>
      <trkpt lat="45.81724" lon="4.96488">
        <ele>186.8</ele>
        <time>2012-10-14T09:46:23Z</time>
      </trkpt>
      <trkpt lat="45.81728" lon="4.96491">
        <ele>186.8</ele>
        <time>2012-10-14T09:46:24Z</time>
      </trkpt>
      <trkpt lat="45.81742" lon="4.965">
        <ele>186.8</ele>
        <time>2012-10-14T09:46:27Z</time>
      </trkpt>
      <trkpt lat="45.8175" lon="4.96506">
        <ele>187</ele>
        <time>2012-10-14T09:46:29Z</time>
      </trkpt>
      <trkpt lat="45.81758" lon="4.96513">
        <ele>187</ele>
        <time>2012-10-14T09:46:31Z</time>
      </trkpt>
      <trkpt lat="45.81762" lon="4.96518">
        <ele>187.2</ele>
        <time>2012-10-14T09:46:32Z</time>
      </trkpt>
      <trkpt lat="45.81774" lon="4.9653">
        <ele>187.2</ele>
        <time>2012-10-14T09:46:35Z</time>
      </trkpt>
      <trkpt lat="45.81793" lon="4.96552">
        <ele>187.2</ele>
        <time>2012-10-14T09:46:40Z</time>
      </trkpt>
      <trkpt lat="45.81801" lon="4.96562">
        <ele>187.2</ele>
        <time>2012-10-14T09:46:42Z</time>
      </trkpt>
      <trkpt lat="45.81818" lon="4.96587">
        <ele>187</ele>
        <time>2012-10-14T09:46:47Z</time>
      </trkpt>
      <trkpt lat="45.8182" lon="4.96589">
        <ele>187</ele>
        <time>2012-10-14T09:46:48Z</time>
      </trkpt>
      <trkpt lat="45.81821" lon="4.96591">
        <ele>187</ele>
        <time>2012-10-14T09:46:49Z</time>
      </trkpt>
      <trkpt lat="45.81821" lon="4.96592">
        <ele>187</ele>
        <time>2012-10-14T09:46:50Z</time>
      </trkpt>
      <trkpt lat="45.81822" lon="4.96593">
        <ele>186.8</ele>
        <time>2012-10-14T09:47:00Z</time>
      </trkpt>
      <trkpt lat="45.8182" lon="4.96596">
        <ele>188.4</ele>
        <time>2012-10-14T09:47:58Z</time>
      </trkpt>
      <trkpt lat="45.81818" lon="4.96593">
        <ele>188.4</ele>
        <time>2012-10-14T09:48:01Z</time>
      </trkpt>
      <trkpt lat="45.81816" lon="4.96591">
        <ele>188.4</ele>
        <time>2012-10-14T09:48:02Z</time>
      </trkpt>
      <trkpt lat="45.8181" lon="4.9658">
        <ele>188.2</ele>
        <time>2012-10-14T09:48:05Z</time>
      </trkpt>
      <trkpt lat="45.81806" lon="4.96575">
        <ele>188.2</ele>
        <time>2012-10-14T09:48:06Z</time>
      </trkpt>
      <trkpt lat="45.81803" lon="4.9657">
        <ele>188.2</ele>
        <time>2012-10-14T09:48:07Z</time>
      </trkpt>
      <trkpt lat="45.81791" lon="4.96554">
        <ele>188</ele>
        <time>2012-10-14T09:48:10Z</time>
      </trkpt>
      <trkpt lat="45.81779" lon="4.9654">
        <ele>187.8</ele>
        <time>2012-10-14T09:48:13Z</time>
      </trkpt>
      <trkpt lat="45.81774" lon="4.96536">
        <ele>187.8</ele>
        <time>2012-10-14T09:48:14Z</time>
      </trkpt>
      <trkpt lat="45.8177" lon="4.96532">
        <ele>187.8</ele>
        <time>2012-10-14T09:48:15Z</time>
      </trkpt>
      <trkpt lat="45.81766" lon="4.96527">
        <ele>187.8</ele>
        <time>2012-10-14T09:48:16Z</time>
      </trkpt>
      <trkpt lat="45.81755" lon="4.96516">
        <ele>187.4</ele>
        <time>2012-10-14T09:48:19Z</time>
      </trkpt>
      <trkpt lat="45.8174" lon="4.96505">
        <ele>187.2</ele>
        <time>2012-10-14T09:48:22Z</time>
      </trkpt>
      <trkpt lat="45.81725" lon="4.96494">
        <ele>186.8</ele>
        <time>2012-10-14T09:48:25Z</time>
      </trkpt>
      <trkpt lat="45.81704" lon="4.96481">
        <ele>186</ele>
        <time>2012-10-14T09:48:29Z</time>
      </trkpt>
      <trkpt lat="45.81699" lon="4.96478">
        <ele>185.8</ele>
        <time>2012-10-14T09:48:30Z</time>
      </trkpt>
      <trkpt lat="45.81665" lon="4.96466">
        <ele>184.8</ele>
        <time>2012-10-14T09:48:36Z</time>
      </trkpt>
      <trkpt lat="45.8166" lon="4.96464">
        <ele>184.4</ele>
        <time>2012-10-14T09:48:37Z</time>
      </trkpt>
      <trkpt lat="45.81646" lon="4.96459">
        <ele>183.8</ele>
        <time>2012-10-14T09:48:40Z</time>
      </trkpt>
      <trkpt lat="45.81625" lon="4.96455">
        <ele>183</ele>
        <time>2012-10-14T09:48:45Z</time>
      </trkpt>
      <trkpt lat="45.81621" lon="4.96454">
        <ele>182.8</ele>
        <time>2012-10-14T09:48:46Z</time>
      </trkpt>
      <trkpt lat="45.81603" lon="4.96457">
        <ele>182.2</ele>
        <time>2012-10-14T09:48:50Z</time>
      </trkpt>
      <trkpt lat="45.81599" lon="4.96457">
        <ele>182.2</ele>
        <time>2012-10-14T09:48:51Z</time>
      </trkpt>
      <trkpt lat="45.81588" lon="4.96456">
        <ele>181.8</ele>
        <time>2012-10-14T09:48:54Z</time>
      </trkpt>
      <trkpt lat="45.81585" lon="4.96455">
        <ele>181.8</ele>
        <time>2012-10-14T09:48:55Z</time>
      </trkpt>
      <trkpt lat="45.81583" lon="4.96456">
        <ele>181.6</ele>
        <time>2012-10-14T09:48:56Z</time>
      </trkpt>
      <trkpt lat="45.81583" lon="4.96464">
        <ele>181.4</ele>
        <time>2012-10-14T09:48:59Z</time>
      </trkpt>
      <trkpt lat="45.81583" lon="4.96469">
        <ele>181.4</ele>
        <time>2012-10-14T09:49:00Z</time>
      </trkpt>
      <trkpt lat="45.81586" lon="4.96498">
        <ele>181</ele>
        <time>2012-10-14T09:49:06Z</time>
      </trkpt>
      <trkpt lat="45.81586" lon="4.96504">
        <ele>181</ele>
        <time>2012-10-14T09:49:07Z</time>
      </trkpt>
      <trkpt lat="45.81591" lon="4.96534">
        <ele>180.8</ele>
        <time>2012-10-14T09:49:12Z</time>
      </trkpt>
      <trkpt lat="45.81595" lon="4.96557">
        <ele>180.8</ele>
        <time>2012-10-14T09:49:16Z</time>
      </trkpt>
      <trkpt lat="45.81597" lon="4.96575">
        <ele>180.8</ele>
        <time>2012-10-14T09:49:19Z</time>
      </trkpt>
      <trkpt lat="45.81601" lon="4.96608">
        <ele>180.8</ele>
        <time>2012-10-14T09:49:24Z</time>
      </trkpt>
      <trkpt lat="45.81603" lon="4.96621">
        <ele>180.8</ele>
        <time>2012-10-14T09:49:26Z</time>
      </trkpt>
      <trkpt lat="45.81607" lon="4.96664">
        <ele>181</ele>
        <time>2012-10-14T09:49:32Z</time>
      </trkpt>
      <trkpt lat="45.81612" lon="4.96701">
        <ele>181.2</ele>
        <time>2012-10-14T09:49:37Z</time>
      </trkpt>
      <trkpt lat="45.81613" lon="4.96716">
        <ele>181.4</ele>
        <time>2012-10-14T09:49:39Z</time>
      </trkpt>
      <trkpt lat="45.81617" lon="4.96762">
        <ele>181.8</ele>
        <time>2012-10-14T09:49:45Z</time>
      </trkpt>
      <trkpt lat="45.81618" lon="4.9677">
        <ele>182</ele>
        <time>2012-10-14T09:49:46Z</time>
      </trkpt>
      <trkpt lat="45.8162" lon="4.968">
        <ele>182.2</ele>
        <time>2012-10-14T09:49:50Z</time>
      </trkpt>
      <trkpt lat="45.81622" lon="4.96815">
        <ele>182.4</ele>
        <time>2012-10-14T09:49:52Z</time>
      </trkpt>
      <trkpt lat="45.81623" lon="4.96823">
        <ele>182.4</ele>
        <time>2012-10-14T09:49:53Z</time>
      </trkpt>
      <trkpt lat="45.81631" lon="4.96871">
        <ele>183</ele>
        <time>2012-10-14T09:49:59Z</time>
      </trkpt>
      <trkpt lat="45.81633" lon="4.96879">
        <ele>183</ele>
        <time>2012-10-14T09:50:00Z</time>
      </trkpt>
      <trkpt lat="45.81638" lon="4.96933">
        <ele>183.6</ele>
        <time>2012-10-14T09:50:07Z</time>
      </trkpt>
      <trkpt lat="45.81633" lon="4.96972">
        <ele>184</ele>
        <time>2012-10-14T09:50:12Z</time>
      </trkpt>
      <trkpt lat="45.81633" lon="4.96979">
        <ele>184</ele>
        <time>2012-10-14T09:50:13Z</time>
      </trkpt>
      <trkpt lat="45.81631" lon="4.96986">
        <ele>184</ele>
        <time>2012-10-14T09:50:14Z</time>
      </trkpt>
      <trkpt lat="45.8163" lon="4.96993">
        <ele>184.2</ele>
        <time>2012-10-14T09:50:15Z</time>
      </trkpt>
      <trkpt lat="45.8163" lon="4.97015">
        <ele>184.2</ele>
        <time>2012-10-14T09:50:18Z</time>
      </trkpt>
      <trkpt lat="45.8163" lon="4.97023">
        <ele>184.2</ele>
        <time>2012-10-14T09:50:19Z</time>
      </trkpt>
      <trkpt lat="45.81632" lon="4.97038">
        <ele>184.4</ele>
        <time>2012-10-14T09:50:21Z</time>
      </trkpt>
      <trkpt lat="45.81636" lon="4.9707">
        <ele>184.6</ele>
        <time>2012-10-14T09:50:25Z</time>
      </trkpt>
      <trkpt lat="45.8164" lon="4.97094">
        <ele>184.8</ele>
        <time>2012-10-14T09:50:28Z</time>
      </trkpt>
      <trkpt lat="45.81641" lon="4.97102">
        <ele>184.8</ele>
        <time>2012-10-14T09:50:29Z</time>
      </trkpt>
      <trkpt lat="45.81642" lon="4.9711">
        <ele>184.8</ele>
        <time>2012-10-14T09:50:30Z</time>
      </trkpt>
      <trkpt lat="45.81646" lon="4.97152">
        <ele>185</ele>
        <time>2012-10-14T09:50:35Z</time>
      </trkpt>
      <trkpt lat="45.81647" lon="4.9716">
        <ele>185</ele>
        <time>2012-10-14T09:50:36Z</time>
      </trkpt>
      <trkpt lat="45.81652" lon="4.97204">
        <ele>185.4</ele>
        <time>2012-10-14T09:50:41Z</time>
      </trkpt>
      <trkpt lat="45.81653" lon="4.97212">
        <ele>185.4</ele>
        <time>2012-10-14T09:50:42Z</time>
      </trkpt>
      <trkpt lat="45.81658" lon="4.97255">
        <ele>186</ele>
        <time>2012-10-14T09:50:47Z</time>
      </trkpt>
      <trkpt lat="45.81658" lon="4.97263">
        <ele>186</ele>
        <time>2012-10-14T09:50:48Z</time>
      </trkpt>
      <trkpt lat="45.81659" lon="4.97271">
        <ele>186.2</ele>
        <time>2012-10-14T09:50:49Z</time>
      </trkpt>
      <trkpt lat="45.81664" lon="4.9732">
        <ele>187</ele>
        <time>2012-10-14T09:50:55Z</time>
      </trkpt>
      <trkpt lat="45.8167" lon="4.97378">
        <ele>188.2</ele>
        <time>2012-10-14T09:51:02Z</time>
      </trkpt>
      <trkpt lat="45.81673" lon="4.97394">
        <ele>188.4</ele>
        <time>2012-10-14T09:51:04Z</time>
      </trkpt>
      <trkpt lat="45.81683" lon="4.97431">
        <ele>188.6</ele>
        <time>2012-10-14T09:51:09Z</time>
      </trkpt>
      <trkpt lat="45.81686" lon="4.97446">
        <ele>188.6</ele>
        <time>2012-10-14T09:51:11Z</time>
      </trkpt>
      <trkpt lat="45.81695" lon="4.97488">
        <ele>188.8</ele>
        <time>2012-10-14T09:51:16Z</time>
      </trkpt>
      <trkpt lat="45.817" lon="4.97513">
        <ele>188.8</ele>
        <time>2012-10-14T09:51:19Z</time>
      </trkpt>
      <trkpt lat="45.81704" lon="4.97536">
        <ele>188.8</ele>
        <time>2012-10-14T09:51:22Z</time>
      </trkpt>
      <trkpt lat="45.81706" lon="4.97544">
        <ele>189</ele>
        <time>2012-10-14T09:51:23Z</time>
      </trkpt>
      <trkpt lat="45.81707" lon="4.97552">
        <ele>189</ele>
        <time>2012-10-14T09:51:24Z</time>
      </trkpt>
      <trkpt lat="45.81711" lon="4.97589">
        <ele>189.2</ele>
        <time>2012-10-14T09:51:29Z</time>
      </trkpt>
      <trkpt lat="45.81711" lon="4.97598">
        <ele>189.2</ele>
        <time>2012-10-14T09:51:30Z</time>
      </trkpt>
      <trkpt lat="45.81706" lon="4.97653">
        <ele>189.8</ele>
        <time>2012-10-14T09:51:37Z</time>
      </trkpt>
      <trkpt lat="45.81704" lon="4.97677">
        <ele>189.8</ele>
        <time>2012-10-14T09:51:40Z</time>
      </trkpt>
      <trkpt lat="45.81697" lon="4.97701">
        <ele>189.8</ele>
        <time>2012-10-14T09:51:43Z</time>
      </trkpt>
      <trkpt lat="45.81694" lon="4.97708">
        <ele>189.8</ele>
        <time>2012-10-14T09:51:44Z</time>
      </trkpt>
      <trkpt lat="45.81691" lon="4.97714">
        <ele>189.6</ele>
        <time>2012-10-14T09:51:45Z</time>
      </trkpt>
      <trkpt lat="45.8168" lon="4.97734">
        <ele>189.6</ele>
        <time>2012-10-14T09:51:48Z</time>
      </trkpt>
      <trkpt lat="45.81674" lon="4.9774">
        <ele>189.4</ele>
        <time>2012-10-14T09:51:49Z</time>
      </trkpt>
      <trkpt lat="45.81663" lon="4.97747">
        <ele>189.4</ele>
        <time>2012-10-14T09:51:51Z</time>
      </trkpt>
      <trkpt lat="45.81659" lon="4.97749">
        <ele>189.2</ele>
        <time>2012-10-14T09:51:52Z</time>
      </trkpt>
      <trkpt lat="45.81655" lon="4.9775">
        <ele>189.2</ele>
        <time>2012-10-14T09:51:53Z</time>
      </trkpt>
      <trkpt lat="45.8165" lon="4.97751">
        <ele>189</ele>
        <time>2012-10-14T09:51:56Z</time>
      </trkpt>
      <trkpt lat="45.8165" lon="4.97749">
        <ele>188.4</ele>
        <time>2012-10-14T09:52:09Z</time>
      </trkpt>
      <trkpt lat="45.81651" lon="4.97745">
        <ele>188.6</ele>
        <time>2012-10-14T09:52:12Z</time>
      </trkpt>
      <trkpt lat="45.81651" lon="4.97742">
        <ele>189</ele>
        <time>2012-10-14T09:52:27Z</time>
      </trkpt>
      <trkpt lat="45.81654" lon="4.97736">
        <ele>188.8</ele>
        <time>2012-10-14T09:52:30Z</time>
      </trkpt>
      <trkpt lat="45.8165" lon="4.97723">
        <ele>188.8</ele>
        <time>2012-10-14T09:52:33Z</time>
      </trkpt>
      <trkpt lat="45.81648" lon="4.97718">
        <ele>188.8</ele>
        <time>2012-10-14T09:52:34Z</time>
      </trkpt>
      <trkpt lat="45.81645" lon="4.97706">
        <ele>188.8</ele>
        <time>2012-10-14T09:52:36Z</time>
      </trkpt>
      <trkpt lat="45.81642" lon="4.97692">
        <ele>188.8</ele>
        <time>2012-10-14T09:52:38Z</time>
      </trkpt>
      <trkpt lat="45.81639" lon="4.9767">
        <ele>188.8</ele>
        <time>2012-10-14T09:52:41Z</time>
      </trkpt>
      <trkpt lat="45.81636" lon="4.97645">
        <ele>188.6</ele>
        <time>2012-10-14T09:52:44Z</time>
      </trkpt>
      <trkpt lat="45.8163" lon="4.97611">
        <ele>188.6</ele>
        <time>2012-10-14T09:52:48Z</time>
      </trkpt>
      <trkpt lat="45.81623" lon="4.9757">
        <ele>188.4</ele>
        <time>2012-10-14T09:52:53Z</time>
      </trkpt>
      <trkpt lat="45.81617" lon="4.97555">
        <ele>188.2</ele>
        <time>2012-10-14T09:52:55Z</time>
      </trkpt>
      <trkpt lat="45.8161" lon="4.97541">
        <ele>188.2</ele>
        <time>2012-10-14T09:52:57Z</time>
      </trkpt>
      <trkpt lat="45.81606" lon="4.97536">
        <ele>188.2</ele>
        <time>2012-10-14T09:52:58Z</time>
      </trkpt>
      <trkpt lat="45.81602" lon="4.97531">
        <ele>188.2</ele>
        <time>2012-10-14T09:52:59Z</time>
      </trkpt>
      <trkpt lat="45.81594" lon="4.97523">
        <ele>188</ele>
        <time>2012-10-14T09:53:01Z</time>
      </trkpt>
      <trkpt lat="45.81589" lon="4.9752">
        <ele>188</ele>
        <time>2012-10-14T09:53:02Z</time>
      </trkpt>
      <trkpt lat="45.81576" lon="4.97513">
        <ele>187.8</ele>
        <time>2012-10-14T09:53:05Z</time>
      </trkpt>
      <trkpt lat="45.81566" lon="4.9751">
        <ele>187.8</ele>
        <time>2012-10-14T09:53:07Z</time>
      </trkpt>
      <trkpt lat="45.81556" lon="4.97505">
        <ele>187.6</ele>
        <time>2012-10-14T09:53:09Z</time>
      </trkpt>
      <trkpt lat="45.8153" lon="4.97493">
        <ele>187.4</ele>
        <time>2012-10-14T09:53:14Z</time>
      </trkpt>
      <trkpt lat="45.8152" lon="4.97489">
        <ele>187.2</ele>
        <time>2012-10-14T09:53:16Z</time>
      </trkpt>
      <trkpt lat="45.81501" lon="4.97481">
        <ele>186.8</ele>
        <time>2012-10-14T09:53:20Z</time>
      </trkpt>
      <trkpt lat="45.81482" lon="4.97471">
        <ele>186.6</ele>
        <time>2012-10-14T09:53:24Z</time>
      </trkpt>
      <trkpt lat="45.81475" lon="4.97465">
        <ele>186.4</ele>
        <time>2012-10-14T09:53:26Z</time>
      </trkpt>
      <trkpt lat="45.81468" lon="4.97458">
        <ele>186</ele>
        <time>2012-10-14T09:53:30Z</time>
      </trkpt>
      <trkpt lat="45.81466" lon="4.9745">
        <ele>185.6</ele>
        <time>2012-10-14T09:54:09Z</time>
      </trkpt>
      <trkpt lat="45.81462" lon="4.97447">
        <ele>185.4</ele>
        <time>2012-10-14T09:54:19Z</time>
      </trkpt>
      <trkpt lat="45.81455" lon="4.97444">
        <ele>185</ele>
        <time>2012-10-14T09:54:25Z</time>
      </trkpt>
      <trkpt lat="45.81455" lon="4.97443">
        <ele>185.2</ele>
        <time>2012-10-14T09:54:29Z</time>
      </trkpt>
      <trkpt lat="45.81454" lon="4.97442">
        <ele>185.2</ele>
        <time>2012-10-14T09:54:30Z</time>
      </trkpt>
      <trkpt lat="45.81452" lon="4.97441">
        <ele>185.4</ele>
        <time>2012-10-14T09:54:31Z</time>
      </trkpt>
      <trkpt lat="45.81433" lon="4.97432">
        <ele>185.6</ele>
        <time>2012-10-14T09:54:37Z</time>
      </trkpt>
      <trkpt lat="45.81417" lon="4.97426">
        <ele>185.6</ele>
        <time>2012-10-14T09:54:41Z</time>
      </trkpt>
      <trkpt lat="45.81407" lon="4.97424">
        <ele>185.4</ele>
        <time>2012-10-14T09:54:43Z</time>
      </trkpt>
      <trkpt lat="45.8139" lon="4.9741">
        <ele>185.4</ele>
        <time>2012-10-14T09:54:47Z</time>
      </trkpt>
      <trkpt lat="45.81386" lon="4.97404">
        <ele>185.4</ele>
        <time>2012-10-14T09:54:48Z</time>
      </trkpt>
      <trkpt lat="45.81382" lon="4.97399">
        <ele>185.2</ele>
        <time>2012-10-14T09:54:49Z</time>
      </trkpt>
      <trkpt lat="45.81362" lon="4.9737">
        <ele>185</ele>
        <time>2012-10-14T09:54:54Z</time>
      </trkpt>
      <trkpt lat="45.81359" lon="4.97363">
        <ele>184.8</ele>
        <time>2012-10-14T09:54:55Z</time>
      </trkpt>
      <trkpt lat="45.81346" lon="4.97333">
        <ele>184.6</ele>
        <time>2012-10-14T09:54:59Z</time>
      </trkpt>
      <trkpt lat="45.81337" lon="4.97314">
        <ele>184.4</ele>
        <time>2012-10-14T09:55:02Z</time>
      </trkpt>
      <trkpt lat="45.81331" lon="4.97303">
        <ele>184.2</ele>
        <time>2012-10-14T09:55:04Z</time>
      </trkpt>
      <trkpt lat="45.81316" lon="4.97271">
        <ele>183.6</ele>
        <time>2012-10-14T09:55:10Z</time>
      </trkpt>
      <trkpt lat="45.81298" lon="4.97234">
        <ele>183</ele>
        <time>2012-10-14T09:55:17Z</time>
      </trkpt>
      <trkpt lat="45.81293" lon="4.97224">
        <ele>182.8</ele>
        <time>2012-10-14T09:55:19Z</time>
      </trkpt>
      <trkpt lat="45.81284" lon="4.97205">
        <ele>182.6</ele>
        <time>2012-10-14T09:55:23Z</time>
      </trkpt>
      <trkpt lat="45.81272" lon="4.97182">
        <ele>182.2</ele>
        <time>2012-10-14T09:55:27Z</time>
      </trkpt>
      <trkpt lat="45.81268" lon="4.97175">
        <ele>182</ele>
        <time>2012-10-14T09:55:28Z</time>
      </trkpt>
      <trkpt lat="45.8125" lon="4.97138">
        <ele>181.6</ele>
        <time>2012-10-14T09:55:33Z</time>
      </trkpt>
      <trkpt lat="45.81238" lon="4.97116">
        <ele>181.2</ele>
        <time>2012-10-14T09:55:36Z</time>
      </trkpt>
      <trkpt lat="45.81228" lon="4.97093">
        <ele>181</ele>
        <time>2012-10-14T09:55:39Z</time>
      </trkpt>
      <trkpt lat="45.81218" lon="4.9707">
        <ele>180.8</ele>
        <time>2012-10-14T09:55:42Z</time>
      </trkpt>
      <trkpt lat="45.81206" lon="4.97049">
        <ele>180.6</ele>
        <time>2012-10-14T09:55:45Z</time>
      </trkpt>
      <trkpt lat="45.81192" lon="4.9702">
        <ele>180.4</ele>
        <time>2012-10-14T09:55:49Z</time>
      </trkpt>
      <trkpt lat="45.81182" lon="4.97">
        <ele>180.2</ele>
        <time>2012-10-14T09:55:52Z</time>
      </trkpt>
      <trkpt lat="45.81172" lon="4.96979">
        <ele>180</ele>
        <time>2012-10-14T09:55:55Z</time>
      </trkpt>
      <trkpt lat="45.81161" lon="4.96959">
        <ele>179.8</ele>
        <time>2012-10-14T09:55:58Z</time>
      </trkpt>
      <trkpt lat="45.81157" lon="4.96955">
        <ele>179.8</ele>
        <time>2012-10-14T09:55:59Z</time>
      </trkpt>
      <trkpt lat="45.81152" lon="4.96954">
        <ele>179.8</ele>
        <time>2012-10-14T09:56:00Z</time>
      </trkpt>
      <trkpt lat="45.81138" lon="4.96964">
        <ele>179.6</ele>
        <time>2012-10-14T09:56:03Z</time>
      </trkpt>
      <trkpt lat="45.81134" lon="4.9697">
        <ele>179.6</ele>
        <time>2012-10-14T09:56:04Z</time>
      </trkpt>
      <trkpt lat="45.81126" lon="4.96981">
        <ele>179.6</ele>
        <time>2012-10-14T09:56:06Z</time>
      </trkpt>
      <trkpt lat="45.81098" lon="4.9702">
        <ele>179.4</ele>
        <time>2012-10-14T09:56:13Z</time>
      </trkpt>
      <trkpt lat="45.81072" lon="4.97067">
        <ele>179.4</ele>
        <time>2012-10-14T09:56:20Z</time>
      </trkpt>
      <trkpt lat="45.81046" lon="4.97108">
        <ele>179.2</ele>
        <time>2012-10-14T09:56:27Z</time>
      </trkpt>
      <trkpt lat="45.81042" lon="4.97113">
        <ele>179.2</ele>
        <time>2012-10-14T09:56:28Z</time>
      </trkpt>
      <trkpt lat="45.81037" lon="4.97118">
        <ele>179.2</ele>
        <time>2012-10-14T09:56:29Z</time>
      </trkpt>
      <trkpt lat="45.81013" lon="4.97139">
        <ele>179.4</ele>
        <time>2012-10-14T09:56:34Z</time>
      </trkpt>
      <trkpt lat="45.80983" lon="4.97158">
        <ele>179.6</ele>
        <time>2012-10-14T09:56:40Z</time>
      </trkpt>
      <trkpt lat="45.80978" lon="4.9716">
        <ele>179.6</ele>
        <time>2012-10-14T09:56:41Z</time>
      </trkpt>
      <trkpt lat="45.80954" lon="4.97163">
        <ele>179.8</ele>
        <time>2012-10-14T09:56:46Z</time>
      </trkpt>
      <trkpt lat="45.80946" lon="4.97166">
        <ele>180</ele>
        <time>2012-10-14T09:56:50Z</time>
      </trkpt>
      <trkpt lat="45.80945" lon="4.97171">
        <ele>180.4</ele>
        <time>2012-10-14T09:56:58Z</time>
      </trkpt>
      <trkpt lat="45.80946" lon="4.97175">
        <ele>180.4</ele>
        <time>2012-10-14T09:56:59Z</time>
      </trkpt>
      <trkpt lat="45.80947" lon="4.97188">
        <ele>180.4</ele>
        <time>2012-10-14T09:57:02Z</time>
      </trkpt>
      <trkpt lat="45.80947" lon="4.97193">
        <ele>180.4</ele>
        <time>2012-10-14T09:57:03Z</time>
      </trkpt>
      <trkpt lat="45.80952" lon="4.97219">
        <ele>180.4</ele>
        <time>2012-10-14T09:57:08Z</time>
      </trkpt>
      <trkpt lat="45.80955" lon="4.97224">
        <ele>180.4</ele>
        <time>2012-10-14T09:57:09Z</time>
      </trkpt>
      <trkpt lat="45.80975" lon="4.97246">
        <ele>180.4</ele>
        <time>2012-10-14T09:57:15Z</time>
      </trkpt>
      <trkpt lat="45.80979" lon="4.97249">
        <ele>180.4</ele>
        <time>2012-10-14T09:57:16Z</time>
      </trkpt>
      <trkpt lat="45.80985" lon="4.97256">
        <ele>180.4</ele>
        <time>2012-10-14T09:57:19Z</time>
      </trkpt>
      <trkpt lat="45.80984" lon="4.97252">
        <ele>180.4</ele>
        <time>2012-10-14T09:57:23Z</time>
      </trkpt>
      <trkpt lat="45.80974" lon="4.97244">
        <ele>180.2</ele>
        <time>2012-10-14T09:57:29Z</time>
      </trkpt>
      <trkpt lat="45.80959" lon="4.9723">
        <ele>180</ele>
        <time>2012-10-14T09:57:34Z</time>
      </trkpt>
      <trkpt lat="45.80955" lon="4.97225">
        <ele>180</ele>
        <time>2012-10-14T09:57:35Z</time>
      </trkpt>
      <trkpt lat="45.80947" lon="4.97204">
        <ele>180</ele>
        <time>2012-10-14T09:57:38Z</time>
      </trkpt>
      <trkpt lat="45.80946" lon="4.9718">
        <ele>179.8</ele>
        <time>2012-10-14T09:57:41Z</time>
      </trkpt>
      <trkpt lat="45.80945" lon="4.97173">
        <ele>179.6</ele>
        <time>2012-10-14T09:57:42Z</time>
      </trkpt>
      <trkpt lat="45.80937" lon="4.97165">
        <ele>179.6</ele>
        <time>2012-10-14T09:57:45Z</time>
      </trkpt>
      <trkpt lat="45.80922" lon="4.97166">
        <ele>179.4</ele>
        <time>2012-10-14T09:57:48Z</time>
      </trkpt>
      <trkpt lat="45.80916" lon="4.97167">
        <ele>179.4</ele>
        <time>2012-10-14T09:57:49Z</time>
      </trkpt>
      <trkpt lat="45.8091" lon="4.97168">
        <ele>179.4</ele>
        <time>2012-10-14T09:57:50Z</time>
      </trkpt>
      <trkpt lat="45.80891" lon="4.97167">
        <ele>179.2</ele>
        <time>2012-10-14T09:57:53Z</time>
      </trkpt>
      <trkpt lat="45.80879" lon="4.97161">
        <ele>179</ele>
        <time>2012-10-14T09:57:55Z</time>
      </trkpt>
      <trkpt lat="45.80873" lon="4.97158">
        <ele>179</ele>
        <time>2012-10-14T09:57:56Z</time>
      </trkpt>
      <trkpt lat="45.80852" lon="4.97138">
        <ele>178.8</ele>
        <time>2012-10-14T09:58:00Z</time>
      </trkpt>
      <trkpt lat="45.80841" lon="4.97125">
        <ele>178.6</ele>
        <time>2012-10-14T09:58:03Z</time>
      </trkpt>
      <trkpt lat="45.80838" lon="4.97123">
        <ele>178.6</ele>
        <time>2012-10-14T09:58:04Z</time>
      </trkpt>
      <trkpt lat="45.80835" lon="4.97122">
        <ele>178.6</ele>
        <time>2012-10-14T09:58:05Z</time>
      </trkpt>
      <trkpt lat="45.80829" lon="4.97124">
        <ele>178.4</ele>
        <time>2012-10-14T09:58:07Z</time>
      </trkpt>
      <trkpt lat="45.80825" lon="4.97129">
        <ele>178.4</ele>
        <time>2012-10-14T09:58:09Z</time>
      </trkpt>
      <trkpt lat="45.80814" lon="4.97135">
        <ele>178.4</ele>
        <time>2012-10-14T09:58:13Z</time>
      </trkpt>
      <trkpt lat="45.80807" lon="4.97133">
        <ele>178.2</ele>
        <time>2012-10-14T09:58:15Z</time>
      </trkpt>
      <trkpt lat="45.808" lon="4.9713">
        <ele>178.2</ele>
        <time>2012-10-14T09:58:17Z</time>
      </trkpt>
      <trkpt lat="45.80773" lon="4.97115">
        <ele>178</ele>
        <time>2012-10-14T09:58:24Z</time>
      </trkpt>
      <trkpt lat="45.80747" lon="4.97102">
        <ele>178</ele>
        <time>2012-10-14T09:58:29Z</time>
      </trkpt>
      <trkpt lat="45.80741" lon="4.971">
        <ele>178</ele>
        <time>2012-10-14T09:58:30Z</time>
      </trkpt>
      <trkpt lat="45.80735" lon="4.971">
        <ele>178</ele>
        <time>2012-10-14T09:58:31Z</time>
      </trkpt>
      <trkpt lat="45.80729" lon="4.97102">
        <ele>178</ele>
        <time>2012-10-14T09:58:32Z</time>
      </trkpt>
      <trkpt lat="45.80714" lon="4.97119">
        <ele>177.8</ele>
        <time>2012-10-14T09:58:35Z</time>
      </trkpt>
      <trkpt lat="45.8071" lon="4.97127">
        <ele>177.8</ele>
        <time>2012-10-14T09:58:36Z</time>
      </trkpt>
      <trkpt lat="45.80706" lon="4.97134">
        <ele>177.8</ele>
        <time>2012-10-14T09:58:37Z</time>
      </trkpt>
      <trkpt lat="45.80698" lon="4.97149">
        <ele>177.8</ele>
        <time>2012-10-14T09:58:39Z</time>
      </trkpt>
      <trkpt lat="45.80692" lon="4.97166">
        <ele>177.8</ele>
        <time>2012-10-14T09:58:41Z</time>
      </trkpt>
      <trkpt lat="45.80688" lon="4.97175">
        <ele>177.6</ele>
        <time>2012-10-14T09:58:42Z</time>
      </trkpt>
      <trkpt lat="45.80685" lon="4.97184">
        <ele>177.6</ele>
        <time>2012-10-14T09:58:43Z</time>
      </trkpt>
      <trkpt lat="45.80673" lon="4.97209">
        <ele>177.6</ele>
        <time>2012-10-14T09:58:46Z</time>
      </trkpt>
      <trkpt lat="45.80667" lon="4.97225">
        <ele>177.4</ele>
        <time>2012-10-14T09:58:48Z</time>
      </trkpt>
      <trkpt lat="45.80664" lon="4.97233">
        <ele>177.4</ele>
        <time>2012-10-14T09:58:49Z</time>
      </trkpt>
      <trkpt lat="45.80661" lon="4.9724">
        <ele>177.4</ele>
        <time>2012-10-14T09:58:50Z</time>
      </trkpt>
      <trkpt lat="45.80658" lon="4.97247">
        <ele>177.4</ele>
        <time>2012-10-14T09:58:51Z</time>
      </trkpt>
      <trkpt lat="45.80645" lon="4.97261">
        <ele>177.4</ele>
        <time>2012-10-14T09:58:54Z</time>
      </trkpt>
      <trkpt lat="45.80636" lon="4.97269">
        <ele>177.4</ele>
        <time>2012-10-14T09:58:56Z</time>
      </trkpt>
      <trkpt lat="45.80619" lon="4.97279">
        <ele>177.4</ele>
        <time>2012-10-14T09:59:00Z</time>
      </trkpt>
      <trkpt lat="45.80608" lon="4.97281">
        <ele>177.4</ele>
        <time>2012-10-14T09:59:02Z</time>
      </trkpt>
      <trkpt lat="45.80598" lon="4.97283">
        <ele>177.4</ele>
        <time>2012-10-14T09:59:04Z</time>
      </trkpt>
      <trkpt lat="45.80587" lon="4.97278">
        <ele>177.4</ele>
        <time>2012-10-14T09:59:06Z</time>
      </trkpt>
      <trkpt lat="45.80561" lon="4.97262">
        <ele>177.2</ele>
        <time>2012-10-14T09:59:11Z</time>
      </trkpt>
      <trkpt lat="45.80544" lon="4.97252">
        <ele>177.2</ele>
        <time>2012-10-14T09:59:14Z</time>
      </trkpt>
      <trkpt lat="45.80527" lon="4.97242">
        <ele>177</ele>
        <time>2012-10-14T09:59:17Z</time>
      </trkpt>
      <trkpt lat="45.80496" lon="4.97228">
        <ele>176.8</ele>
        <time>2012-10-14T09:59:22Z</time>
      </trkpt>
      <trkpt lat="45.8049" lon="4.97225">
        <ele>176.6</ele>
        <time>2012-10-14T09:59:23Z</time>
      </trkpt>
      <trkpt lat="45.80453" lon="4.97206">
        <ele>176.4</ele>
        <time>2012-10-14T09:59:29Z</time>
      </trkpt>
      <trkpt lat="45.80447" lon="4.97203">
        <ele>176.2</ele>
        <time>2012-10-14T09:59:30Z</time>
      </trkpt>
      <trkpt lat="45.80416" lon="4.97187">
        <ele>175.8</ele>
        <time>2012-10-14T09:59:35Z</time>
      </trkpt>
      <trkpt lat="45.80386" lon="4.97171">
        <ele>175.6</ele>
        <time>2012-10-14T09:59:40Z</time>
      </trkpt>
      <trkpt lat="45.8038" lon="4.97168">
        <ele>175.4</ele>
        <time>2012-10-14T09:59:41Z</time>
      </trkpt>
      <trkpt lat="45.80345" lon="4.97149">
        <ele>175</ele>
        <time>2012-10-14T09:59:47Z</time>
      </trkpt>
      <trkpt lat="45.80334" lon="4.97145">
        <ele>174.8</ele>
        <time>2012-10-14T09:59:49Z</time>
      </trkpt>
      <trkpt lat="45.80329" lon="4.97142">
        <ele>174.8</ele>
        <time>2012-10-14T09:59:50Z</time>
      </trkpt>
      <trkpt lat="45.8031" lon="4.97131">
        <ele>174.6</ele>
        <time>2012-10-14T09:59:54Z</time>
      </trkpt>
      <trkpt lat="45.80305" lon="4.97128">
        <ele>174.6</ele>
        <time>2012-10-14T09:59:55Z</time>
      </trkpt>
      <trkpt lat="45.80289" lon="4.97122">
        <ele>174.4</ele>
        <time>2012-10-14T09:59:58Z</time>
      </trkpt>
      <trkpt lat="45.80278" lon="4.97116">
        <ele>174.2</ele>
        <time>2012-10-14T10:00:00Z</time>
      </trkpt>
      <trkpt lat="45.80273" lon="4.97112">
        <ele>174.2</ele>
        <time>2012-10-14T10:00:01Z</time>
      </trkpt>
      <trkpt lat="45.80245" lon="4.97083">
        <ele>174</ele>
        <time>2012-10-14T10:00:07Z</time>
      </trkpt>
      <trkpt lat="45.80241" lon="4.97078">
        <ele>174</ele>
        <time>2012-10-14T10:00:08Z</time>
      </trkpt>
      <trkpt lat="45.80229" lon="4.97062">
        <ele>173.8</ele>
        <time>2012-10-14T10:00:11Z</time>
      </trkpt>
      <trkpt lat="45.80228" lon="4.97039">
        <ele>173.8</ele>
        <time>2012-10-14T10:00:14Z</time>
      </trkpt>
      <trkpt lat="45.80229" lon="4.97031">
        <ele>173.8</ele>
        <time>2012-10-14T10:00:15Z</time>
      </trkpt>
      <trkpt lat="45.80237" lon="4.97012">
        <ele>173.8</ele>
        <time>2012-10-14T10:00:18Z</time>
      </trkpt>
      <trkpt lat="45.80242" lon="4.97006">
        <ele>173.8</ele>
        <time>2012-10-14T10:00:19Z</time>
      </trkpt>
      <trkpt lat="45.8025" lon="4.96994">
        <ele>173.8</ele>
        <time>2012-10-14T10:00:21Z</time>
      </trkpt>
      <trkpt lat="45.80252" lon="4.96988">
        <ele>173.6</ele>
        <time>2012-10-14T10:00:22Z</time>
      </trkpt>
      <trkpt lat="45.80255" lon="4.96981">
        <ele>173.6</ele>
        <time>2012-10-14T10:00:23Z</time>
      </trkpt>
      <trkpt lat="45.80263" lon="4.96962">
        <ele>173.6</ele>
        <time>2012-10-14T10:00:26Z</time>
      </trkpt>
      <trkpt lat="45.8027" lon="4.96942">
        <ele>173.6</ele>
        <time>2012-10-14T10:00:29Z</time>
      </trkpt>
      <trkpt lat="45.80274" lon="4.96926">
        <ele>173.6</ele>
        <time>2012-10-14T10:00:31Z</time>
      </trkpt>
      <trkpt lat="45.80277" lon="4.96901">
        <ele>173.6</ele>
        <time>2012-10-14T10:00:34Z</time>
      </trkpt>
      <trkpt lat="45.80279" lon="4.96885">
        <ele>173.6</ele>
        <time>2012-10-14T10:00:36Z</time>
      </trkpt>
      <trkpt lat="45.80285" lon="4.96835">
        <ele>173.8</ele>
        <time>2012-10-14T10:00:42Z</time>
      </trkpt>
      <trkpt lat="45.80286" lon="4.96826">
        <ele>173.8</ele>
        <time>2012-10-14T10:00:43Z</time>
      </trkpt>
      <trkpt lat="45.80293" lon="4.96791">
        <ele>174</ele>
        <time>2012-10-14T10:00:47Z</time>
      </trkpt>
      <trkpt lat="45.803" lon="4.96777">
        <ele>173.8</ele>
        <time>2012-10-14T10:00:49Z</time>
      </trkpt>
      <trkpt lat="45.80309" lon="4.96765">
        <ele>174</ele>
        <time>2012-10-14T10:00:51Z</time>
      </trkpt>
      <trkpt lat="45.80319" lon="4.96755">
        <ele>174</ele>
        <time>2012-10-14T10:00:53Z</time>
      </trkpt>
      <trkpt lat="45.80329" lon="4.96746">
        <ele>174</ele>
        <time>2012-10-14T10:00:55Z</time>
      </trkpt>
      <trkpt lat="45.8034" lon="4.96736">
        <ele>174.2</ele>
        <time>2012-10-14T10:00:57Z</time>
      </trkpt>
      <trkpt lat="45.8036" lon="4.96716">
        <ele>174.2</ele>
        <time>2012-10-14T10:01:01Z</time>
      </trkpt>
      <trkpt lat="45.80374" lon="4.967">
        <ele>174.4</ele>
        <time>2012-10-14T10:01:04Z</time>
      </trkpt>
      <trkpt lat="45.80388" lon="4.96679">
        <ele>174.6</ele>
        <time>2012-10-14T10:01:08Z</time>
      </trkpt>
      <trkpt lat="45.80393" lon="4.96671">
        <ele>174.8</ele>
        <time>2012-10-14T10:01:10Z</time>
      </trkpt>
      <trkpt lat="45.804" lon="4.96655">
        <ele>175</ele>
        <time>2012-10-14T10:01:15Z</time>
      </trkpt>
      <trkpt lat="45.80402" lon="4.96634">
        <ele>175.4</ele>
        <time>2012-10-14T10:01:20Z</time>
      </trkpt>
      <trkpt lat="45.80403" lon="4.96628">
        <ele>175.4</ele>
        <time>2012-10-14T10:01:21Z</time>
      </trkpt>
      <trkpt lat="45.80408" lon="4.96606">
        <ele>175.8</ele>
        <time>2012-10-14T10:01:25Z</time>
      </trkpt>
      <trkpt lat="45.8041" lon="4.96593">
        <ele>176</ele>
        <time>2012-10-14T10:01:27Z</time>
      </trkpt>
      <trkpt lat="45.80413" lon="4.96573">
        <ele>176.2</ele>
        <time>2012-10-14T10:01:30Z</time>
      </trkpt>
      <trkpt lat="45.80408" lon="4.96551">
        <ele>176</ele>
        <time>2012-10-14T10:01:33Z</time>
      </trkpt>
      <trkpt lat="45.804" lon="4.96538">
        <ele>176</ele>
        <time>2012-10-14T10:01:35Z</time>
      </trkpt>
      <trkpt lat="45.80396" lon="4.96532">
        <ele>176</ele>
        <time>2012-10-14T10:01:36Z</time>
      </trkpt>
      <trkpt lat="45.80393" lon="4.96524">
        <ele>176</ele>
        <time>2012-10-14T10:01:37Z</time>
      </trkpt>
      <trkpt lat="45.80383" lon="4.96492">
        <ele>175.8</ele>
        <time>2012-10-14T10:01:41Z</time>
      </trkpt>
      <trkpt lat="45.80376" lon="4.96478">
        <ele>175.8</ele>
        <time>2012-10-14T10:01:43Z</time>
      </trkpt>
      <trkpt lat="45.80372" lon="4.96471">
        <ele>175.8</ele>
        <time>2012-10-14T10:01:44Z</time>
      </trkpt>
      <trkpt lat="45.80365" lon="4.9646">
        <ele>175.8</ele>
        <time>2012-10-14T10:01:46Z</time>
      </trkpt>
      <trkpt lat="45.80348" lon="4.96435">
        <ele>175.8</ele>
        <time>2012-10-14T10:01:51Z</time>
      </trkpt>
      <trkpt lat="45.80342" lon="4.96425">
        <ele>175.8</ele>
        <time>2012-10-14T10:01:53Z</time>
      </trkpt>
      <trkpt lat="45.80331" lon="4.96409">
        <ele>175.6</ele>
        <time>2012-10-14T10:01:56Z</time>
      </trkpt>
      <trkpt lat="45.80326" lon="4.96405">
        <ele>175.6</ele>
        <time>2012-10-14T10:01:57Z</time>
      </trkpt>
      <trkpt lat="45.80321" lon="4.96401">
        <ele>175.8</ele>
        <time>2012-10-14T10:01:58Z</time>
      </trkpt>
      <trkpt lat="45.80308" lon="4.96388">
        <ele>175.8</ele>
        <time>2012-10-14T10:02:02Z</time>
      </trkpt>
      <trkpt lat="45.80308" lon="4.96388">
        <ele>175.8</ele>
        <time>2012-10-14T10:02:08Z</time>
      </trkpt>
      <trkpt lat="45.80307" lon="4.96388">
        <ele>175.8</ele>
        <time>2012-10-14T10:02:15Z</time>
      </trkpt>
      <trkpt lat="45.80303" lon="4.96388">
        <ele>175.8</ele>
        <time>2012-10-14T10:02:17Z</time>
      </trkpt>
      <trkpt lat="45.80295" lon="4.96386">
        <ele>175.8</ele>
        <time>2012-10-14T10:02:19Z</time>
      </trkpt>
      <trkpt lat="45.80286" lon="4.96381">
        <ele>175.8</ele>
        <time>2012-10-14T10:02:21Z</time>
      </trkpt>
      <trkpt lat="45.80261" lon="4.96369">
        <ele>175.8</ele>
        <time>2012-10-14T10:02:26Z</time>
      </trkpt>
      <trkpt lat="45.8025" lon="4.9636">
        <ele>175.8</ele>
        <time>2012-10-14T10:02:28Z</time>
      </trkpt>
      <trkpt lat="45.80245" lon="4.96354">
        <ele>175.8</ele>
        <time>2012-10-14T10:02:29Z</time>
      </trkpt>
      <trkpt lat="45.80232" lon="4.96335">
        <ele>175.8</ele>
        <time>2012-10-14T10:02:32Z</time>
      </trkpt>
      <trkpt lat="45.8022" lon="4.96319">
        <ele>175.8</ele>
        <time>2012-10-14T10:02:35Z</time>
      </trkpt>
      <trkpt lat="45.80215" lon="4.96314">
        <ele>175.8</ele>
        <time>2012-10-14T10:02:36Z</time>
      </trkpt>
      <trkpt lat="45.80207" lon="4.96304">
        <ele>175.8</ele>
        <time>2012-10-14T10:02:38Z</time>
      </trkpt>
      <trkpt lat="45.80192" lon="4.96282">
        <ele>175.8</ele>
        <time>2012-10-14T10:02:42Z</time>
      </trkpt>
      <trkpt lat="45.80189" lon="4.96278">
        <ele>175.8</ele>
        <time>2012-10-14T10:02:43Z</time>
      </trkpt>
      <trkpt lat="45.80185" lon="4.96274">
        <ele>175.8</ele>
        <time>2012-10-14T10:02:44Z</time>
      </trkpt>
      <trkpt lat="45.80175" lon="4.96273">
        <ele>175.8</ele>
        <time>2012-10-14T10:02:48Z</time>
      </trkpt>
      <trkpt lat="45.80163" lon="4.96284">
        <ele>175.6</ele>
        <time>2012-10-14T10:02:52Z</time>
      </trkpt>
      <trkpt lat="45.80159" lon="4.96286">
        <ele>175.6</ele>
        <time>2012-10-14T10:02:53Z</time>
      </trkpt>
      <trkpt lat="45.80155" lon="4.96292">
        <ele>175.4</ele>
        <time>2012-10-14T10:02:56Z</time>
      </trkpt>
      <trkpt lat="45.80155" lon="4.96291">
        <ele>175.4</ele>
        <time>2012-10-14T10:03:05Z</time>
      </trkpt>
      <trkpt lat="45.80148" lon="4.96292">
        <ele>174.6</ele>
        <time>2012-10-14T10:03:57Z</time>
      </trkpt>
      <trkpt lat="45.80143" lon="4.96293">
        <ele>174.6</ele>
        <time>2012-10-14T10:04:00Z</time>
      </trkpt>
      <trkpt lat="45.8014" lon="4.96293">
        <ele>174.4</ele>
        <time>2012-10-14T10:04:01Z</time>
      </trkpt>
      <trkpt lat="45.80133" lon="4.9629">
        <ele>174.4</ele>
        <time>2012-10-14T10:04:03Z</time>
      </trkpt>
      <trkpt lat="45.80129" lon="4.96286">
        <ele>174.2</ele>
        <time>2012-10-14T10:04:04Z</time>
      </trkpt>
      <trkpt lat="45.80126" lon="4.96282">
        <ele>174.2</ele>
        <time>2012-10-14T10:04:05Z</time>
      </trkpt>
      <trkpt lat="45.80122" lon="4.96278">
        <ele>174.2</ele>
        <time>2012-10-14T10:04:06Z</time>
      </trkpt>
      <trkpt lat="45.80113" lon="4.96262">
        <ele>174</ele>
        <time>2012-10-14T10:04:09Z</time>
      </trkpt>
      <trkpt lat="45.80103" lon="4.9624">
        <ele>174</ele>
        <time>2012-10-14T10:04:13Z</time>
      </trkpt>
      <trkpt lat="45.80104" lon="4.96221">
        <ele>174</ele>
        <time>2012-10-14T10:04:17Z</time>
      </trkpt>
      <trkpt lat="45.80107" lon="4.96218">
        <ele>174.8</ele>
        <time>2012-10-14T10:04:21Z</time>
      </trkpt>
      <trkpt lat="45.80108" lon="4.96217">
        <ele>175.6</ele>
        <time>2012-10-14T10:04:25Z</time>
      </trkpt>
      <trkpt lat="45.80102" lon="4.96211">
        <ele>175.8</ele>
        <time>2012-10-14T10:04:28Z</time>
      </trkpt>
      <trkpt lat="45.8009" lon="4.96206">
        <ele>176.4</ele>
        <time>2012-10-14T10:04:32Z</time>
      </trkpt>
      <trkpt lat="45.80086" lon="4.96203">
        <ele>176.6</ele>
        <time>2012-10-14T10:04:33Z</time>
      </trkpt>
      <trkpt lat="45.80078" lon="4.96193">
        <ele>176.8</ele>
        <time>2012-10-14T10:04:35Z</time>
      </trkpt>
      <trkpt lat="45.80074" lon="4.96188">
        <ele>176.6</ele>
        <time>2012-10-14T10:04:36Z</time>
      </trkpt>
      <trkpt lat="45.80069" lon="4.96184">
        <ele>176.6</ele>
        <time>2012-10-14T10:04:37Z</time>
      </trkpt>
      <trkpt lat="45.8006" lon="4.96174">
        <ele>176.4</ele>
        <time>2012-10-14T10:04:39Z</time>
      </trkpt>
      <trkpt lat="45.80042" lon="4.96152">
        <ele>176.4</ele>
        <time>2012-10-14T10:04:43Z</time>
      </trkpt>
      <trkpt lat="45.80035" lon="4.96137">
        <ele>176.4</ele>
        <time>2012-10-14T10:04:46Z</time>
      </trkpt>
      <trkpt lat="45.80034" lon="4.96133">
        <ele>176.4</ele>
        <time>2012-10-14T10:04:47Z</time>
      </trkpt>
      <trkpt lat="45.80033" lon="4.96128">
        <ele>176.4</ele>
        <time>2012-10-14T10:04:48Z</time>
      </trkpt>
      <trkpt lat="45.80031" lon="4.9612">
        <ele>176.2</ele>
        <time>2012-10-14T10:04:50Z</time>
      </trkpt>
      <trkpt lat="45.80029" lon="4.96116">
        <ele>176.2</ele>
        <time>2012-10-14T10:04:51Z</time>
      </trkpt>
      <trkpt lat="45.80023" lon="4.96107">
        <ele>176.2</ele>
        <time>2012-10-14T10:04:53Z</time>
      </trkpt>
      <trkpt lat="45.80014" lon="4.96097">
        <ele>176</ele>
        <time>2012-10-14T10:04:55Z</time>
      </trkpt>
      <trkpt lat="45.8001" lon="4.96093">
        <ele>176</ele>
        <time>2012-10-14T10:04:56Z</time>
      </trkpt>
      <trkpt lat="45.80002" lon="4.96092">
        <ele>175.8</ele>
        <time>2012-10-14T10:04:58Z</time>
      </trkpt>
      <trkpt lat="45.79997" lon="4.96093">
        <ele>175.8</ele>
        <time>2012-10-14T10:04:59Z</time>
      </trkpt>
      <trkpt lat="45.79993" lon="4.96095">
        <ele>175.8</ele>
        <time>2012-10-14T10:05:00Z</time>
      </trkpt>
      <trkpt lat="45.79985" lon="4.961">
        <ele>175.6</ele>
        <time>2012-10-14T10:05:02Z</time>
      </trkpt>
      <trkpt lat="45.79977" lon="4.96106">
        <ele>175.6</ele>
        <time>2012-10-14T10:05:04Z</time>
      </trkpt>
      <trkpt lat="45.79973" lon="4.96108">
        <ele>175.6</ele>
        <time>2012-10-14T10:05:05Z</time>
      </trkpt>
      <trkpt lat="45.79969" lon="4.96109">
        <ele>175.6</ele>
        <time>2012-10-14T10:05:06Z</time>
      </trkpt>
      <trkpt lat="45.79954" lon="4.96106">
        <ele>175.4</ele>
        <time>2012-10-14T10:05:10Z</time>
      </trkpt>
      <trkpt lat="45.79949" lon="4.96106">
        <ele>175.4</ele>
        <time>2012-10-14T10:05:11Z</time>
      </trkpt>
      <trkpt lat="45.79937" lon="4.961">
        <ele>175.2</ele>
        <time>2012-10-14T10:05:14Z</time>
      </trkpt>
      <trkpt lat="45.79934" lon="4.96097">
        <ele>175.2</ele>
        <time>2012-10-14T10:05:15Z</time>
      </trkpt>
      <trkpt lat="45.79931" lon="4.96093">
        <ele>175.2</ele>
        <time>2012-10-14T10:05:16Z</time>
      </trkpt>
      <trkpt lat="45.7992" lon="4.96084">
        <ele>175.2</ele>
        <time>2012-10-14T10:05:19Z</time>
      </trkpt>
      <trkpt lat="45.7991" lon="4.9608">
        <ele>175.2</ele>
        <time>2012-10-14T10:05:21Z</time>
      </trkpt>
      <trkpt lat="45.79901" lon="4.96081">
        <ele>175</ele>
        <time>2012-10-14T10:05:23Z</time>
      </trkpt>
      <trkpt lat="45.79896" lon="4.96083">
        <ele>175</ele>
        <time>2012-10-14T10:05:24Z</time>
      </trkpt>
      <trkpt lat="45.79891" lon="4.96083">
        <ele>175</ele>
        <time>2012-10-14T10:05:25Z</time>
      </trkpt>
      <trkpt lat="45.79871" lon="4.96077">
        <ele>175</ele>
        <time>2012-10-14T10:05:29Z</time>
      </trkpt>
      <trkpt lat="45.79862" lon="4.96074">
        <ele>175</ele>
        <time>2012-10-14T10:05:31Z</time>
      </trkpt>
      <trkpt lat="45.79858" lon="4.96068">
        <ele>174.8</ele>
        <time>2012-10-14T10:05:33Z</time>
      </trkpt>
      <trkpt lat="45.79858" lon="4.96045">
        <ele>174.8</ele>
        <time>2012-10-14T10:05:37Z</time>
      </trkpt>
      <trkpt lat="45.79858" lon="4.96023">
        <ele>174.8</ele>
        <time>2012-10-14T10:05:40Z</time>
      </trkpt>
      <trkpt lat="45.79858" lon="4.96007">
        <ele>175</ele>
        <time>2012-10-14T10:05:42Z</time>
      </trkpt>
      <trkpt lat="45.7986" lon="4.95969">
        <ele>175.2</ele>
        <time>2012-10-14T10:05:47Z</time>
      </trkpt>
      <trkpt lat="45.7986" lon="4.95961">
        <ele>175.2</ele>
        <time>2012-10-14T10:05:48Z</time>
      </trkpt>
      <trkpt lat="45.79858" lon="4.9591">
        <ele>175.6</ele>
        <time>2012-10-14T10:05:54Z</time>
      </trkpt>
      <trkpt lat="45.79858" lon="4.959">
        <ele>175.6</ele>
        <time>2012-10-14T10:05:55Z</time>
      </trkpt>
      <trkpt lat="45.79856" lon="4.95852">
        <ele>175.8</ele>
        <time>2012-10-14T10:06:00Z</time>
      </trkpt>
      <trkpt lat="45.79854" lon="4.95823">
        <ele>175.8</ele>
        <time>2012-10-14T10:06:03Z</time>
      </trkpt>
      <trkpt lat="45.79853" lon="4.95795">
        <ele>176</ele>
        <time>2012-10-14T10:06:06Z</time>
      </trkpt>
      <trkpt lat="45.79851" lon="4.95742">
        <ele>176</ele>
        <time>2012-10-14T10:06:12Z</time>
      </trkpt>
      <trkpt lat="45.79846" lon="4.95687">
        <ele>176.4</ele>
        <time>2012-10-14T10:06:19Z</time>
      </trkpt>
      <trkpt lat="45.79845" lon="4.95672">
        <ele>176.6</ele>
        <time>2012-10-14T10:06:21Z</time>
      </trkpt>
      <trkpt lat="45.79843" lon="4.95634">
        <ele>176.8</ele>
        <time>2012-10-14T10:06:26Z</time>
      </trkpt>
      <trkpt lat="45.79843" lon="4.95618">
        <ele>177</ele>
        <time>2012-10-14T10:06:28Z</time>
      </trkpt>
      <trkpt lat="45.79843" lon="4.9561">
        <ele>177</ele>
        <time>2012-10-14T10:06:29Z</time>
      </trkpt>
      <trkpt lat="45.79844" lon="4.95578">
        <ele>177.2</ele>
        <time>2012-10-14T10:06:33Z</time>
      </trkpt>
      <trkpt lat="45.79843" lon="4.9553">
        <ele>177.4</ele>
        <time>2012-10-14T10:06:39Z</time>
      </trkpt>
      <trkpt lat="45.79843" lon="4.95522">
        <ele>177.4</ele>
        <time>2012-10-14T10:06:40Z</time>
      </trkpt>
      <trkpt lat="45.79839" lon="4.95472">
        <ele>177.4</ele>
        <time>2012-10-14T10:06:46Z</time>
      </trkpt>
      <trkpt lat="45.79838" lon="4.95464">
        <ele>177.4</ele>
        <time>2012-10-14T10:06:47Z</time>
      </trkpt>
      <trkpt lat="45.79832" lon="4.95413">
        <ele>177.4</ele>
        <time>2012-10-14T10:06:53Z</time>
      </trkpt>
      <trkpt lat="45.79832" lon="4.95387">
        <ele>177.4</ele>
        <time>2012-10-14T10:06:56Z</time>
      </trkpt>
      <trkpt lat="45.79831" lon="4.95353">
        <ele>177.4</ele>
        <time>2012-10-14T10:07:00Z</time>
      </trkpt>
      <trkpt lat="45.79832" lon="4.95328">
        <ele>177.4</ele>
        <time>2012-10-14T10:07:03Z</time>
      </trkpt>
      <trkpt lat="45.79834" lon="4.95302">
        <ele>177.4</ele>
        <time>2012-10-14T10:07:06Z</time>
      </trkpt>
      <trkpt lat="45.79835" lon="4.95258">
        <ele>177.4</ele>
        <time>2012-10-14T10:07:11Z</time>
      </trkpt>
      <trkpt lat="45.79836" lon="4.9525">
        <ele>177.4</ele>
        <time>2012-10-14T10:07:12Z</time>
      </trkpt>
      <trkpt lat="45.79836" lon="4.95225">
        <ele>177.4</ele>
        <time>2012-10-14T10:07:15Z</time>
      </trkpt>
      <trkpt lat="45.79834" lon="4.952">
        <ele>177.4</ele>
        <time>2012-10-14T10:07:18Z</time>
      </trkpt>
      <trkpt lat="45.79833" lon="4.95192">
        <ele>177.4</ele>
        <time>2012-10-14T10:07:19Z</time>
      </trkpt>
      <trkpt lat="45.79828" lon="4.9516">
        <ele>177.2</ele>
        <time>2012-10-14T10:07:23Z</time>
      </trkpt>
      <trkpt lat="45.79825" lon="4.95146">
        <ele>177.2</ele>
        <time>2012-10-14T10:07:25Z</time>
      </trkpt>
      <trkpt lat="45.79822" lon="4.95139">
        <ele>177.2</ele>
        <time>2012-10-14T10:07:26Z</time>
      </trkpt>
      <trkpt lat="45.79816" lon="4.95126">
        <ele>177.2</ele>
        <time>2012-10-14T10:07:28Z</time>
      </trkpt>
      <trkpt lat="45.79813" lon="4.95121">
        <ele>177.2</ele>
        <time>2012-10-14T10:07:29Z</time>
      </trkpt>
      <trkpt lat="45.79811" lon="4.95112">
        <ele>177.2</ele>
        <time>2012-10-14T10:07:32Z</time>
      </trkpt>
      <trkpt lat="45.79811" lon="4.95112">
        <ele>177</ele>
        <time>2012-10-14T10:07:37Z</time>
      </trkpt>
      <trkpt lat="45.79814" lon="4.9511">
        <ele>177</ele>
        <time>2012-10-14T10:07:41Z</time>
      </trkpt>
      <trkpt lat="45.79816" lon="4.95108">
        <ele>176.8</ele>
        <time>2012-10-14T10:07:42Z</time>
      </trkpt>
      <trkpt lat="45.79823" lon="4.95103">
        <ele>176.8</ele>
        <time>2012-10-14T10:07:44Z</time>
      </trkpt>
      <trkpt lat="45.79831" lon="4.95094">
        <ele>176.6</ele>
        <time>2012-10-14T10:07:46Z</time>
      </trkpt>
      <trkpt lat="45.79834" lon="4.95071">
        <ele>176.6</ele>
        <time>2012-10-14T10:07:49Z</time>
      </trkpt>
      <trkpt lat="45.79831" lon="4.95054">
        <ele>176.4</ele>
        <time>2012-10-14T10:07:51Z</time>
      </trkpt>
      <trkpt lat="45.79829" lon="4.95037">
        <ele>176.4</ele>
        <time>2012-10-14T10:07:53Z</time>
      </trkpt>
      <trkpt lat="45.79829" lon="4.95027">
        <ele>176.2</ele>
        <time>2012-10-14T10:07:54Z</time>
      </trkpt>
      <trkpt lat="45.79834" lon="4.94997">
        <ele>176.2</ele>
        <time>2012-10-14T10:07:57Z</time>
      </trkpt>
      <trkpt lat="45.79838" lon="4.94989">
        <ele>176</ele>
        <time>2012-10-14T10:07:58Z</time>
      </trkpt>
      <trkpt lat="45.79845" lon="4.94973">
        <ele>176</ele>
        <time>2012-10-14T10:08:00Z</time>
      </trkpt>
      <trkpt lat="45.79852" lon="4.94959">
        <ele>175.8</ele>
        <time>2012-10-14T10:08:02Z</time>
      </trkpt>
      <trkpt lat="45.79857" lon="4.94953">
        <ele>175.8</ele>
        <time>2012-10-14T10:08:03Z</time>
      </trkpt>
      <trkpt lat="45.79873" lon="4.94941">
        <ele>175.6</ele>
        <time>2012-10-14T10:08:06Z</time>
      </trkpt>
      <trkpt lat="45.79879" lon="4.94938">
        <ele>175.6</ele>
        <time>2012-10-14T10:08:07Z</time>
      </trkpt>
      <trkpt lat="45.79895" lon="4.9493">
        <ele>175.6</ele>
        <time>2012-10-14T10:08:10Z</time>
      </trkpt>
      <trkpt lat="45.79899" lon="4.94927">
        <ele>175.6</ele>
        <time>2012-10-14T10:08:11Z</time>
      </trkpt>
      <trkpt lat="45.79908" lon="4.9491">
        <ele>175.4</ele>
        <time>2012-10-14T10:08:15Z</time>
      </trkpt>
      <trkpt lat="45.79909" lon="4.94906">
        <ele>175.4</ele>
        <time>2012-10-14T10:08:16Z</time>
      </trkpt>
      <trkpt lat="45.79908" lon="4.94901">
        <ele>175.2</ele>
        <time>2012-10-14T10:08:18Z</time>
      </trkpt>
      <trkpt lat="45.79906" lon="4.94901">
        <ele>175</ele>
        <time>2012-10-14T10:08:24Z</time>
      </trkpt>
      <trkpt lat="45.79907" lon="4.94904">
        <ele>174.6</ele>
        <time>2012-10-14T10:08:43Z</time>
      </trkpt>
      <trkpt lat="45.79906" lon="4.94907">
        <ele>174.6</ele>
        <time>2012-10-14T10:08:45Z</time>
      </trkpt>
      <trkpt lat="45.79908" lon="4.94913">
        <ele>174.4</ele>
        <time>2012-10-14T10:08:51Z</time>
      </trkpt>
      <trkpt lat="45.79904" lon="4.94914">
        <ele>174.4</ele>
        <time>2012-10-14T10:09:07Z</time>
      </trkpt>
      <trkpt lat="45.79904" lon="4.94919">
        <ele>175.4</ele>
        <time>2012-10-14T10:09:14Z</time>
      </trkpt>
      <trkpt lat="45.79901" lon="4.94925">
        <ele>176.6</ele>
        <time>2012-10-14T10:09:21Z</time>
      </trkpt>
      <trkpt lat="45.79892" lon="4.94935">
        <ele>177.4</ele>
        <time>2012-10-14T10:09:27Z</time>
      </trkpt>
      <trkpt lat="45.79883" lon="4.94944">
        <ele>178</ele>
        <time>2012-10-14T10:09:33Z</time>
      </trkpt>
      <trkpt lat="45.79881" lon="4.94945">
        <ele>178</ele>
        <time>2012-10-14T10:09:34Z</time>
      </trkpt>
      <trkpt lat="45.79872" lon="4.94957">
        <ele>178.2</ele>
        <time>2012-10-14T10:09:38Z</time>
      </trkpt>
      <trkpt lat="45.7986" lon="4.94976">
        <ele>178.2</ele>
        <time>2012-10-14T10:09:44Z</time>
      </trkpt>
      <trkpt lat="45.79856" lon="4.94983">
        <ele>178.2</ele>
        <time>2012-10-14T10:09:46Z</time>
      </trkpt>
      <trkpt lat="45.7985" lon="4.94998">
        <ele>178.2</ele>
        <time>2012-10-14T10:09:50Z</time>
      </trkpt>
      <trkpt lat="45.79841" lon="4.95028">
        <ele>178.2</ele>
        <time>2012-10-14T10:09:57Z</time>
      </trkpt>
      <trkpt lat="45.7984" lon="4.95033">
        <ele>178.2</ele>
        <time>2012-10-14T10:09:58Z</time>
      </trkpt>
      <trkpt lat="45.79837" lon="4.9505">
        <ele>178.2</ele>
        <time>2012-10-14T10:10:02Z</time>
      </trkpt>
      <trkpt lat="45.79835" lon="4.95071">
        <ele>178.4</ele>
        <time>2012-10-14T10:10:07Z</time>
      </trkpt>
      <trkpt lat="45.79832" lon="4.95086">
        <ele>178.6</ele>
        <time>2012-10-14T10:10:11Z</time>
      </trkpt>
      <trkpt lat="45.79829" lon="4.95098">
        <ele>178.6</ele>
        <time>2012-10-14T10:10:14Z</time>
      </trkpt>
      <trkpt lat="45.79824" lon="4.95116">
        <ele>178.8</ele>
        <time>2012-10-14T10:10:19Z</time>
      </trkpt>
      <trkpt lat="45.7982" lon="4.95125">
        <ele>178.8</ele>
        <time>2012-10-14T10:10:23Z</time>
      </trkpt>
      <trkpt lat="45.79821" lon="4.95128">
        <ele>178.8</ele>
        <time>2012-10-14T10:10:24Z</time>
      </trkpt>
      <trkpt lat="45.79822" lon="4.95134">
        <ele>178.8</ele>
        <time>2012-10-14T10:10:26Z</time>
      </trkpt>
      <trkpt lat="45.79823" lon="4.95145">
        <ele>178.8</ele>
        <time>2012-10-14T10:10:30Z</time>
      </trkpt>
      <trkpt lat="45.79828" lon="4.95159">
        <ele>178.8</ele>
        <time>2012-10-14T10:10:35Z</time>
      </trkpt>
      <trkpt lat="45.79833" lon="4.95185">
        <ele>178.6</ele>
        <time>2012-10-14T10:10:42Z</time>
      </trkpt>
      <trkpt lat="45.79827" lon="4.95209">
        <ele>178.4</ele>
        <time>2012-10-14T10:10:48Z</time>
      </trkpt>
      <trkpt lat="45.79821" lon="4.95227">
        <ele>178.4</ele>
        <time>2012-10-14T10:10:53Z</time>
      </trkpt>
      <trkpt lat="45.79819" lon="4.95234">
        <ele>178.4</ele>
        <time>2012-10-14T10:10:55Z</time>
      </trkpt>
      <trkpt lat="45.79814" lon="4.95249">
        <ele>178.4</ele>
        <time>2012-10-14T10:10:59Z</time>
      </trkpt>
      <trkpt lat="45.79807" lon="4.95271">
        <ele>178.4</ele>
        <time>2012-10-14T10:11:05Z</time>
      </trkpt>
      <trkpt lat="45.79803" lon="4.95282">
        <ele>178.4</ele>
        <time>2012-10-14T10:11:08Z</time>
      </trkpt>
      <trkpt lat="45.79799" lon="4.95292">
        <ele>178.4</ele>
        <time>2012-10-14T10:11:11Z</time>
      </trkpt>
      <trkpt lat="45.79793" lon="4.95313">
        <ele>178.4</ele>
        <time>2012-10-14T10:11:17Z</time>
      </trkpt>
      <trkpt lat="45.79787" lon="4.9533">
        <ele>178.4</ele>
        <time>2012-10-14T10:11:22Z</time>
      </trkpt>
      <trkpt lat="45.79785" lon="4.95337">
        <ele>178.4</ele>
        <time>2012-10-14T10:11:24Z</time>
      </trkpt>
      <trkpt lat="45.79776" lon="4.95365">
        <ele>178.4</ele>
        <time>2012-10-14T10:11:31Z</time>
      </trkpt>
      <trkpt lat="45.79771" lon="4.95378">
        <ele>178.4</ele>
        <time>2012-10-14T10:11:35Z</time>
      </trkpt>
      <trkpt lat="45.79769" lon="4.95382">
        <ele>178.4</ele>
        <time>2012-10-14T10:11:37Z</time>
      </trkpt>
      <trkpt lat="45.79768" lon="4.95383">
        <ele>178.4</ele>
        <time>2012-10-14T10:11:42Z</time>
      </trkpt>
      <trkpt lat="45.79767" lon="4.95389">
        <ele>178.2</ele>
        <time>2012-10-14T10:11:48Z</time>
      </trkpt>
      <trkpt lat="45.79767" lon="4.95392">
        <ele>178</ele>
        <time>2012-10-14T10:11:50Z</time>
      </trkpt>
      <trkpt lat="45.79769" lon="4.95399">
        <ele>178</ele>
        <time>2012-10-14T10:11:54Z</time>
      </trkpt>
      <trkpt lat="45.7977" lon="4.95403">
        <ele>178</ele>
        <time>2012-10-14T10:11:56Z</time>
      </trkpt>
      <trkpt lat="45.79774" lon="4.95415">
        <ele>177.8</ele>
        <time>2012-10-14T10:12:03Z</time>
      </trkpt>
      <trkpt lat="45.79778" lon="4.95424">
        <ele>177.6</ele>
        <time>2012-10-14T10:12:06Z</time>
      </trkpt>
      <trkpt lat="45.7978" lon="4.95428">
        <ele>177.6</ele>
        <time>2012-10-14T10:12:07Z</time>
      </trkpt>
      <trkpt lat="45.79788" lon="4.9545">
        <ele>177.4</ele>
        <time>2012-10-14T10:12:13Z</time>
      </trkpt>
      <trkpt lat="45.79795" lon="4.95468">
        <ele>177.2</ele>
        <time>2012-10-14T10:12:18Z</time>
      </trkpt>
      <trkpt lat="45.79797" lon="4.95472">
        <ele>177.2</ele>
        <time>2012-10-14T10:12:19Z</time>
      </trkpt>
      <trkpt lat="45.79801" lon="4.95487">
        <ele>177</ele>
        <time>2012-10-14T10:12:23Z</time>
      </trkpt>
      <trkpt lat="45.7981" lon="4.95505">
        <ele>176.8</ele>
        <time>2012-10-14T10:12:28Z</time>
      </trkpt>
      <trkpt lat="45.79816" lon="4.95519">
        <ele>176.8</ele>
        <time>2012-10-14T10:12:32Z</time>
      </trkpt>
      <trkpt lat="45.79817" lon="4.95523">
        <ele>176.6</ele>
        <time>2012-10-14T10:12:33Z</time>
      </trkpt>
      <trkpt lat="45.79826" lon="4.95545">
        <ele>176.4</ele>
        <time>2012-10-14T10:12:39Z</time>
      </trkpt>
      <trkpt lat="45.79829" lon="4.95566">
        <ele>176.2</ele>
        <time>2012-10-14T10:12:44Z</time>
      </trkpt>
      <trkpt lat="45.79829" lon="4.9557">
        <ele>176.2</ele>
        <time>2012-10-14T10:12:45Z</time>
      </trkpt>
      <trkpt lat="45.79828" lon="4.95584">
        <ele>176</ele>
        <time>2012-10-14T10:12:49Z</time>
      </trkpt>
      <trkpt lat="45.79829" lon="4.95602">
        <ele>175.8</ele>
        <time>2012-10-14T10:12:54Z</time>
      </trkpt>
      <trkpt lat="45.79836" lon="4.95619">
        <ele>175.6</ele>
        <time>2012-10-14T10:12:59Z</time>
      </trkpt>
      <trkpt lat="45.7984" lon="4.95638">
        <ele>175.4</ele>
        <time>2012-10-14T10:13:04Z</time>
      </trkpt>
      <trkpt lat="45.79843" lon="4.9566">
        <ele>175.4</ele>
        <time>2012-10-14T10:13:09Z</time>
      </trkpt>
      <trkpt lat="45.79844" lon="4.95672">
        <ele>175.4</ele>
        <time>2012-10-14T10:13:12Z</time>
      </trkpt>
      <trkpt lat="45.79844" lon="4.95685">
        <ele>175.4</ele>
        <time>2012-10-14T10:13:15Z</time>
      </trkpt>
      <trkpt lat="45.79845" lon="4.95705">
        <ele>175.4</ele>
        <time>2012-10-14T10:13:20Z</time>
      </trkpt>
      <trkpt lat="45.79846" lon="4.95725">
        <ele>175.2</ele>
        <time>2012-10-14T10:13:25Z</time>
      </trkpt>
      <trkpt lat="45.79846" lon="4.95729">
        <ele>175.2</ele>
        <time>2012-10-14T10:13:26Z</time>
      </trkpt>
      <trkpt lat="45.79847" lon="4.95744">
        <ele>175.2</ele>
        <time>2012-10-14T10:13:30Z</time>
      </trkpt>
      <trkpt lat="45.79848" lon="4.95768">
        <ele>175</ele>
        <time>2012-10-14T10:13:36Z</time>
      </trkpt>
      <trkpt lat="45.79848" lon="4.95777">
        <ele>175</ele>
        <time>2012-10-14T10:13:38Z</time>
      </trkpt>
      <trkpt lat="45.79848" lon="4.95797">
        <ele>175</ele>
        <time>2012-10-14T10:13:43Z</time>
      </trkpt>
      <trkpt lat="45.79848" lon="4.95821">
        <ele>174.8</ele>
        <time>2012-10-14T10:13:49Z</time>
      </trkpt>
      <trkpt lat="45.79848" lon="4.95829">
        <ele>174.8</ele>
        <time>2012-10-14T10:13:51Z</time>
      </trkpt>
      <trkpt lat="45.79849" lon="4.95841">
        <ele>174.8</ele>
        <time>2012-10-14T10:13:54Z</time>
      </trkpt>
      <trkpt lat="45.79849" lon="4.95861">
        <ele>174.6</ele>
        <time>2012-10-14T10:13:59Z</time>
      </trkpt>
      <trkpt lat="45.79849" lon="4.9588">
        <ele>174.6</ele>
        <time>2012-10-14T10:14:04Z</time>
      </trkpt>
      <trkpt lat="45.79849" lon="4.95906">
        <ele>174.6</ele>
        <time>2012-10-14T10:14:11Z</time>
      </trkpt>
      <trkpt lat="45.79851" lon="4.95924">
        <ele>174.4</ele>
        <time>2012-10-14T10:14:16Z</time>
      </trkpt>
      <trkpt lat="45.79851" lon="4.95933">
        <ele>174.4</ele>
        <time>2012-10-14T10:14:18Z</time>
      </trkpt>
      <trkpt lat="45.79851" lon="4.95945">
        <ele>174.4</ele>
        <time>2012-10-14T10:14:21Z</time>
      </trkpt>
      <trkpt lat="45.79852" lon="4.95973">
        <ele>174.6</ele>
        <time>2012-10-14T10:14:28Z</time>
      </trkpt>
      <trkpt lat="45.79852" lon="4.95986">
        <ele>174.6</ele>
        <time>2012-10-14T10:14:31Z</time>
      </trkpt>
      <trkpt lat="45.79852" lon="4.95994">
        <ele>174.6</ele>
        <time>2012-10-14T10:14:33Z</time>
      </trkpt>
      <trkpt lat="45.79852" lon="4.96015">
        <ele>174.6</ele>
        <time>2012-10-14T10:14:38Z</time>
      </trkpt>
      <trkpt lat="45.79852" lon="4.96031">
        <ele>174.6</ele>
        <time>2012-10-14T10:14:42Z</time>
      </trkpt>
      <trkpt lat="45.79853" lon="4.9604">
        <ele>174.6</ele>
        <time>2012-10-14T10:14:44Z</time>
      </trkpt>
      <trkpt lat="45.79853" lon="4.96057">
        <ele>174.4</ele>
        <time>2012-10-14T10:14:48Z</time>
      </trkpt>
      <trkpt lat="45.79854" lon="4.96062">
        <ele>174.4</ele>
        <time>2012-10-14T10:14:50Z</time>
      </trkpt>
      <trkpt lat="45.79856" lon="4.96063">
        <ele>174.2</ele>
        <time>2012-10-14T10:14:52Z</time>
      </trkpt>
      <trkpt lat="45.79857" lon="4.96063">
        <ele>174.2</ele>
        <time>2012-10-14T10:14:53Z</time>
      </trkpt>
      <trkpt lat="45.79861" lon="4.96059">
        <ele>174</ele>
        <time>2012-10-14T10:14:57Z</time>
      </trkpt>
      <trkpt lat="45.79861" lon="4.96056">
        <ele>173.8</ele>
        <time>2012-10-14T10:15:04Z</time>
      </trkpt>
      <trkpt lat="45.79865" lon="4.96056">
        <ele>173.4</ele>
        <time>2012-10-14T10:15:12Z</time>
      </trkpt>
      <trkpt lat="45.79867" lon="4.96063">
        <ele>173.2</ele>
        <time>2012-10-14T10:15:16Z</time>
      </trkpt>
      <trkpt lat="45.79868" lon="4.96065">
        <ele>173.2</ele>
        <time>2012-10-14T10:15:17Z</time>
      </trkpt>
      <trkpt lat="45.79869" lon="4.96066">
        <ele>173.2</ele>
        <time>2012-10-14T10:15:18Z</time>
      </trkpt>
      <trkpt lat="45.79872" lon="4.9607">
        <ele>173</ele>
        <time>2012-10-14T10:15:22Z</time>
      </trkpt>
      <trkpt lat="45.79881" lon="4.96075">
        <ele>173</ele>
        <time>2012-10-14T10:15:29Z</time>
      </trkpt>
      <trkpt lat="45.7989" lon="4.96084">
        <ele>172.8</ele>
        <time>2012-10-14T10:15:33Z</time>
      </trkpt>
      <trkpt lat="45.79901" lon="4.96086">
        <ele>172.8</ele>
        <time>2012-10-14T10:15:37Z</time>
      </trkpt>
      <trkpt lat="45.79904" lon="4.96085">
        <ele>172.8</ele>
        <time>2012-10-14T10:15:38Z</time>
      </trkpt>
      <trkpt lat="45.79921" lon="4.96088">
        <ele>172.6</ele>
        <time>2012-10-14T10:15:44Z</time>
      </trkpt>
      <trkpt lat="45.79935" lon="4.96099">
        <ele>172.6</ele>
        <time>2012-10-14T10:15:49Z</time>
      </trkpt>
      <trkpt lat="45.79938" lon="4.96101">
        <ele>172.4</ele>
        <time>2012-10-14T10:15:50Z</time>
      </trkpt>
      <trkpt lat="45.79951" lon="4.96104">
        <ele>172.4</ele>
        <time>2012-10-14T10:15:54Z</time>
      </trkpt>
      <trkpt lat="45.79967" lon="4.96109">
        <ele>172.2</ele>
        <time>2012-10-14T10:15:59Z</time>
      </trkpt>
      <trkpt lat="45.79969" lon="4.9611">
        <ele>172</ele>
        <time>2012-10-14T10:16:00Z</time>
      </trkpt>
      <trkpt lat="45.79972" lon="4.96109">
        <ele>172</ele>
        <time>2012-10-14T10:16:01Z</time>
      </trkpt>
      <trkpt lat="45.79977" lon="4.96105">
        <ele>172</ele>
        <time>2012-10-14T10:16:03Z</time>
      </trkpt>
      <trkpt lat="45.79989" lon="4.96093">
        <ele>171.6</ele>
        <time>2012-10-14T10:16:07Z</time>
      </trkpt>
      <trkpt lat="45.80001" lon="4.96079">
        <ele>171.4</ele>
        <time>2012-10-14T10:16:12Z</time>
      </trkpt>
      <trkpt lat="45.8001" lon="4.96065">
        <ele>171.2</ele>
        <time>2012-10-14T10:16:17Z</time>
      </trkpt>
      <trkpt lat="45.80013" lon="4.96044">
        <ele>171.2</ele>
        <time>2012-10-14T10:16:22Z</time>
      </trkpt>
      <trkpt lat="45.80013" lon="4.96032">
        <ele>171.4</ele>
        <time>2012-10-14T10:16:25Z</time>
      </trkpt>
      <trkpt lat="45.80014" lon="4.96019">
        <ele>171.8</ele>
        <time>2012-10-14T10:16:28Z</time>
      </trkpt>
      <trkpt lat="45.80016" lon="4.95997">
        <ele>172.2</ele>
        <time>2012-10-14T10:16:34Z</time>
      </trkpt>
      <trkpt lat="45.80017" lon="4.95981">
        <ele>172.6</ele>
        <time>2012-10-14T10:16:38Z</time>
      </trkpt>
      <trkpt lat="45.80017" lon="4.95977">
        <ele>172.8</ele>
        <time>2012-10-14T10:16:39Z</time>
      </trkpt>
      <trkpt lat="45.80017" lon="4.95953">
        <ele>173.8</ele>
        <time>2012-10-14T10:16:45Z</time>
      </trkpt>
      <trkpt lat="45.80017" lon="4.9593">
        <ele>174.4</ele>
        <time>2012-10-14T10:16:51Z</time>
      </trkpt>
      <trkpt lat="45.80017" lon="4.95927">
        <ele>174.4</ele>
        <time>2012-10-14T10:16:52Z</time>
      </trkpt>
      <trkpt lat="45.80018" lon="4.95912">
        <ele>174.6</ele>
        <time>2012-10-14T10:16:56Z</time>
      </trkpt>
      <trkpt lat="45.80018" lon="4.95887">
        <ele>174.6</ele>
        <time>2012-10-14T10:17:03Z</time>
      </trkpt>
      <trkpt lat="45.80018" lon="4.95873">
        <ele>174.6</ele>
        <time>2012-10-14T10:17:07Z</time>
      </trkpt>
      <trkpt lat="45.80019" lon="4.95862">
        <ele>174.6</ele>
        <time>2012-10-14T10:17:10Z</time>
      </trkpt>
      <trkpt lat="45.80024" lon="4.95845">
        <ele>174.6</ele>
        <time>2012-10-14T10:17:15Z</time>
      </trkpt>
      <trkpt lat="45.80033" lon="4.9583">
        <ele>174.8</ele>
        <time>2012-10-14T10:17:21Z</time>
      </trkpt>
      <trkpt lat="45.80034" lon="4.95828">
        <ele>174.8</ele>
        <time>2012-10-14T10:17:22Z</time>
      </trkpt>
      <trkpt lat="45.80038" lon="4.95816">
        <ele>175</ele>
        <time>2012-10-14T10:17:26Z</time>
      </trkpt>
      <trkpt lat="45.80042" lon="4.95796">
        <ele>175</ele>
        <time>2012-10-14T10:17:32Z</time>
      </trkpt>
      <trkpt lat="45.80045" lon="4.95787">
        <ele>174.8</ele>
        <time>2012-10-14T10:17:38Z</time>
      </trkpt>
      <trkpt lat="45.80046" lon="4.95794">
        <ele>174.6</ele>
        <time>2012-10-14T10:17:45Z</time>
      </trkpt>
      <trkpt lat="45.80046" lon="4.95795">
        <ele>174.6</ele>
        <time>2012-10-14T10:17:46Z</time>
      </trkpt>
      <trkpt lat="45.80046" lon="4.95802">
        <ele>174.4</ele>
        <time>2012-10-14T10:17:53Z</time>
      </trkpt>
      <trkpt lat="45.80046" lon="4.95811">
        <ele>174.4</ele>
        <time>2012-10-14T10:17:59Z</time>
      </trkpt>
      <trkpt lat="45.80048" lon="4.95821">
        <ele>174.8</ele>
        <time>2012-10-14T10:18:05Z</time>
      </trkpt>
      <trkpt lat="45.8005" lon="4.95822">
        <ele>174.8</ele>
        <time>2012-10-14T10:18:07Z</time>
      </trkpt>
      <trkpt lat="45.80053" lon="4.95823">
        <ele>174.8</ele>
        <time>2012-10-14T10:18:09Z</time>
      </trkpt>
      <trkpt lat="45.80056" lon="4.95822">
        <ele>174.8</ele>
        <time>2012-10-14T10:18:11Z</time>
      </trkpt>
      <trkpt lat="45.8006" lon="4.95821">
        <ele>175</ele>
        <time>2012-10-14T10:18:13Z</time>
      </trkpt>
      <trkpt lat="45.80065" lon="4.95823">
        <ele>174.8</ele>
        <time>2012-10-14T10:18:15Z</time>
      </trkpt>
      <trkpt lat="45.80077" lon="4.95836">
        <ele>174.8</ele>
        <time>2012-10-14T10:18:20Z</time>
      </trkpt>
      <trkpt lat="45.80084" lon="4.95855">
        <ele>174.8</ele>
        <time>2012-10-14T10:18:25Z</time>
      </trkpt>
      <trkpt lat="45.80087" lon="4.95865">
        <ele>174.8</ele>
        <time>2012-10-14T10:18:28Z</time>
      </trkpt>
      <trkpt lat="45.80087" lon="4.95875">
        <ele>175</ele>
        <time>2012-10-14T10:18:31Z</time>
      </trkpt>
      <trkpt lat="45.80087" lon="4.95891">
        <ele>175</ele>
        <time>2012-10-14T10:18:35Z</time>
      </trkpt>
      <trkpt lat="45.80087" lon="4.95909">
        <ele>175</ele>
        <time>2012-10-14T10:18:40Z</time>
      </trkpt>
      <trkpt lat="45.80087" lon="4.95917">
        <ele>175</ele>
        <time>2012-10-14T10:18:42Z</time>
      </trkpt>
      <trkpt lat="45.80087" lon="4.95935">
        <ele>175</ele>
        <time>2012-10-14T10:18:46Z</time>
      </trkpt>
      <trkpt lat="45.80086" lon="4.9595">
        <ele>175.2</ele>
        <time>2012-10-14T10:18:51Z</time>
      </trkpt>
      <trkpt lat="45.80087" lon="4.95952">
        <ele>175.6</ele>
        <time>2012-10-14T10:18:53Z</time>
      </trkpt>
      <trkpt lat="45.80087" lon="4.95962">
        <ele>176</ele>
        <time>2012-10-14T10:18:56Z</time>
      </trkpt>
      <trkpt lat="45.80088" lon="4.95971">
        <ele>176.2</ele>
        <time>2012-10-14T10:18:58Z</time>
      </trkpt>
      <trkpt lat="45.8009" lon="4.95988">
        <ele>176.4</ele>
        <time>2012-10-14T10:19:02Z</time>
      </trkpt>
      <trkpt lat="45.80093" lon="4.96011">
        <ele>176.8</ele>
        <time>2012-10-14T10:19:08Z</time>
      </trkpt>
      <trkpt lat="45.80096" lon="4.96022">
        <ele>177</ele>
        <time>2012-10-14T10:19:11Z</time>
      </trkpt>
      <trkpt lat="45.80098" lon="4.96033">
        <ele>177.2</ele>
        <time>2012-10-14T10:19:14Z</time>
      </trkpt>
      <trkpt lat="45.80104" lon="4.96058">
        <ele>177.8</ele>
        <time>2012-10-14T10:19:21Z</time>
      </trkpt>
      <trkpt lat="45.80106" lon="4.96073">
        <ele>178</ele>
        <time>2012-10-14T10:19:25Z</time>
      </trkpt>
      <trkpt lat="45.80108" lon="4.96082">
        <ele>178</ele>
        <time>2012-10-14T10:19:28Z</time>
      </trkpt>
      <trkpt lat="45.80107" lon="4.96095">
        <ele>178.2</ele>
        <time>2012-10-14T10:19:34Z</time>
      </trkpt>
      <trkpt lat="45.80108" lon="4.96097">
        <ele>178.2</ele>
        <time>2012-10-14T10:19:35Z</time>
      </trkpt>
      <trkpt lat="45.8011" lon="4.96103">
        <ele>178.2</ele>
        <time>2012-10-14T10:19:39Z</time>
      </trkpt>
      <trkpt lat="45.80112" lon="4.96111">
        <ele>178</ele>
        <time>2012-10-14T10:19:43Z</time>
      </trkpt>
      <trkpt lat="45.80116" lon="4.96116">
        <ele>178</ele>
        <time>2012-10-14T10:19:46Z</time>
      </trkpt>
      <trkpt lat="45.80119" lon="4.96123">
        <ele>178</ele>
        <time>2012-10-14T10:19:49Z</time>
      </trkpt>
      <trkpt lat="45.80121" lon="4.96129">
        <ele>178</ele>
        <time>2012-10-14T10:19:51Z</time>
      </trkpt>
      <trkpt lat="45.80131" lon="4.96153">
        <ele>177.8</ele>
        <time>2012-10-14T10:19:58Z</time>
      </trkpt>
      <trkpt lat="45.80137" lon="4.96169">
        <ele>177.6</ele>
        <time>2012-10-14T10:20:03Z</time>
      </trkpt>
      <trkpt lat="45.80138" lon="4.96172">
        <ele>177.6</ele>
        <time>2012-10-14T10:20:04Z</time>
      </trkpt>
      <trkpt lat="45.80143" lon="4.96187">
        <ele>177.4</ele>
        <time>2012-10-14T10:20:09Z</time>
      </trkpt>
      <trkpt lat="45.80147" lon="4.96198">
        <ele>177</ele>
        <time>2012-10-14T10:20:15Z</time>
      </trkpt>
      <trkpt lat="45.80154" lon="4.9621">
        <ele>176.8</ele>
        <time>2012-10-14T10:20:22Z</time>
      </trkpt>
      <trkpt lat="45.80154" lon="4.96211">
        <ele>176.4</ele>
        <time>2012-10-14T10:20:27Z</time>
      </trkpt>
      <trkpt lat="45.80153" lon="4.9621">
        <ele>176.4</ele>
        <time>2012-10-14T10:20:29Z</time>
      </trkpt>
      <trkpt lat="45.80153" lon="4.96208">
        <ele>176.2</ele>
        <time>2012-10-14T10:20:30Z</time>
      </trkpt>
      <trkpt lat="45.80156" lon="4.96205">
        <ele>176.2</ele>
        <time>2012-10-14T10:20:32Z</time>
      </trkpt>
      <trkpt lat="45.80157" lon="4.96201">
        <ele>176</ele>
        <time>2012-10-14T10:20:34Z</time>
      </trkpt>
      <trkpt lat="45.80159" lon="4.96199">
        <ele>175.8</ele>
        <time>2012-10-14T10:20:37Z</time>
      </trkpt>
      <trkpt lat="45.80161" lon="4.96199">
        <ele>175.8</ele>
        <time>2012-10-14T10:20:38Z</time>
      </trkpt>
      <trkpt lat="45.80163" lon="4.96198">
        <ele>175.6</ele>
        <time>2012-10-14T10:20:42Z</time>
      </trkpt>
      <trkpt lat="45.80165" lon="4.96199">
        <ele>175.6</ele>
        <time>2012-10-14T10:20:50Z</time>
      </trkpt>
      <trkpt lat="45.80162" lon="4.96199">
        <ele>176</ele>
        <time>2012-10-14T10:20:53Z</time>
      </trkpt>
      <trkpt lat="45.80159" lon="4.96204">
        <ele>177.2</ele>
        <time>2012-10-14T10:20:59Z</time>
      </trkpt>
      <trkpt lat="45.80158" lon="4.9621">
        <ele>177.4</ele>
        <time>2012-10-14T10:21:03Z</time>
      </trkpt>
      <trkpt lat="45.80159" lon="4.96212">
        <ele>177.6</ele>
        <time>2012-10-14T10:21:04Z</time>
      </trkpt>
      <trkpt lat="45.80163" lon="4.96216">
        <ele>177.8</ele>
        <time>2012-10-14T10:21:09Z</time>
      </trkpt>
      <trkpt lat="45.80166" lon="4.96217">
        <ele>177.8</ele>
        <time>2012-10-14T10:21:11Z</time>
      </trkpt>
      <trkpt lat="45.80173" lon="4.96224">
        <ele>178</ele>
        <time>2012-10-14T10:21:16Z</time>
      </trkpt>
      <trkpt lat="45.8018" lon="4.96228">
        <ele>177.8</ele>
        <time>2012-10-14T10:21:21Z</time>
      </trkpt>
      <trkpt lat="45.80182" lon="4.9623">
        <ele>177.8</ele>
        <time>2012-10-14T10:21:23Z</time>
      </trkpt>
      <trkpt lat="45.80189" lon="4.96232">
        <ele>177.8</ele>
        <time>2012-10-14T10:21:27Z</time>
      </trkpt>
      <trkpt lat="45.80198" lon="4.96237">
        <ele>177.6</ele>
        <time>2012-10-14T10:21:34Z</time>
      </trkpt>
      <trkpt lat="45.80199" lon="4.96237">
        <ele>177.6</ele>
        <time>2012-10-14T10:21:35Z</time>
      </trkpt>
      <trkpt lat="45.80202" lon="4.9624">
        <ele>177.4</ele>
        <time>2012-10-14T10:21:38Z</time>
      </trkpt>
      <trkpt lat="45.80204" lon="4.96241">
        <ele>177.4</ele>
        <time>2012-10-14T10:21:40Z</time>
      </trkpt>
      <trkpt lat="45.8021" lon="4.96247">
        <ele>177</ele>
        <time>2012-10-14T10:21:44Z</time>
      </trkpt>
      <trkpt lat="45.80212" lon="4.96248">
        <ele>177</ele>
        <time>2012-10-14T10:21:45Z</time>
      </trkpt>
      <trkpt lat="45.8022" lon="4.96257">
        <ele>176.6</ele>
        <time>2012-10-14T10:21:50Z</time>
      </trkpt>
      <trkpt lat="45.80223" lon="4.96261">
        <ele>176.4</ele>
        <time>2012-10-14T10:21:55Z</time>
      </trkpt>
      <trkpt lat="45.80224" lon="4.96258">
        <ele>176.8</ele>
        <time>2012-10-14T10:22:01Z</time>
      </trkpt>
      <trkpt lat="45.80223" lon="4.96257">
        <ele>176.8</ele>
        <time>2012-10-14T10:22:02Z</time>
      </trkpt>
      <trkpt lat="45.8022" lon="4.96254">
        <ele>176.6</ele>
        <time>2012-10-14T10:22:05Z</time>
      </trkpt>
      <trkpt lat="45.80218" lon="4.96252">
        <ele>176.6</ele>
        <time>2012-10-14T10:22:06Z</time>
      </trkpt>
      <trkpt lat="45.80205" lon="4.96239">
        <ele>176.8</ele>
        <time>2012-10-14T10:22:11Z</time>
      </trkpt>
      <trkpt lat="45.80201" lon="4.96233">
        <ele>177</ele>
        <time>2012-10-14T10:22:14Z</time>
      </trkpt>
      <trkpt lat="45.80203" lon="4.96228">
        <ele>177.4</ele>
        <time>2012-10-14T10:22:18Z</time>
      </trkpt>
      <trkpt lat="45.80204" lon="4.96226">
        <ele>177.2</ele>
        <time>2012-10-14T10:22:20Z</time>
      </trkpt>
      <trkpt lat="45.80207" lon="4.96222">
        <ele>177.2</ele>
        <time>2012-10-14T10:22:25Z</time>
      </trkpt>
      <trkpt lat="45.80208" lon="4.9622">
        <ele>177.2</ele>
        <time>2012-10-14T10:22:26Z</time>
      </trkpt>
      <trkpt lat="45.80209" lon="4.96218">
        <ele>177.2</ele>
        <time>2012-10-14T10:22:27Z</time>
      </trkpt>
      <trkpt lat="45.8021" lon="4.96208">
        <ele>177</ele>
        <time>2012-10-14T10:22:33Z</time>
      </trkpt>
      <trkpt lat="45.8021" lon="4.96206">
        <ele>177</ele>
        <time>2012-10-14T10:22:34Z</time>
      </trkpt>
      <trkpt lat="45.80208" lon="4.96205">
        <ele>176.8</ele>
        <time>2012-10-14T10:22:36Z</time>
      </trkpt>
      <trkpt lat="45.80205" lon="4.96206">
        <ele>176.6</ele>
        <time>2012-10-14T10:22:38Z</time>
      </trkpt>
      <trkpt lat="45.80198" lon="4.96204">
        <ele>176.6</ele>
        <time>2012-10-14T10:22:42Z</time>
      </trkpt>
      <trkpt lat="45.80192" lon="4.96201">
        <ele>176.4</ele>
        <time>2012-10-14T10:22:46Z</time>
      </trkpt>
      <trkpt lat="45.80189" lon="4.96199">
        <ele>176.2</ele>
        <time>2012-10-14T10:22:51Z</time>
      </trkpt>
      <trkpt lat="45.80191" lon="4.96197">
        <ele>175.6</ele>
        <time>2012-10-14T10:23:03Z</time>
      </trkpt>
      <trkpt lat="45.80191" lon="4.96196">
        <ele>175.6</ele>
        <time>2012-10-14T10:23:07Z</time>
      </trkpt>
      <trkpt lat="45.80189" lon="4.9619">
        <ele>175.2</ele>
        <time>2012-10-14T10:23:18Z</time>
      </trkpt>
      <trkpt lat="45.80189" lon="4.96189">
        <ele>175.2</ele>
        <time>2012-10-14T10:23:19Z</time>
      </trkpt>
      <trkpt lat="45.80189" lon="4.96177">
        <ele>175</ele>
        <time>2012-10-14T10:23:23Z</time>
      </trkpt>
      <trkpt lat="45.80176" lon="4.9617">
        <ele>174.8</ele>
        <time>2012-10-14T10:23:28Z</time>
      </trkpt>
      <trkpt lat="45.8017" lon="4.96169">
        <ele>174.6</ele>
        <time>2012-10-14T10:23:30Z</time>
      </trkpt>
      <trkpt lat="45.80161" lon="4.96167">
        <ele>174.6</ele>
        <time>2012-10-14T10:23:33Z</time>
      </trkpt>
      <trkpt lat="45.80148" lon="4.96161">
        <ele>174.4</ele>
        <time>2012-10-14T10:23:38Z</time>
      </trkpt>
      <trkpt lat="45.80137" lon="4.96157">
        <ele>174.2</ele>
        <time>2012-10-14T10:23:43Z</time>
      </trkpt>
      <trkpt lat="45.80133" lon="4.96154">
        <ele>174.2</ele>
        <time>2012-10-14T10:23:45Z</time>
      </trkpt>
      <trkpt lat="45.80126" lon="4.96147">
        <ele>174.2</ele>
        <time>2012-10-14T10:23:49Z</time>
      </trkpt>
      <trkpt lat="45.80122" lon="4.9614">
        <ele>174.2</ele>
        <time>2012-10-14T10:23:54Z</time>
      </trkpt>
      <trkpt lat="45.80116" lon="4.96129">
        <ele>174.4</ele>
        <time>2012-10-14T10:24:01Z</time>
      </trkpt>
      <trkpt lat="45.80107" lon="4.96127">
        <ele>174.2</ele>
        <time>2012-10-14T10:24:08Z</time>
      </trkpt>
      <trkpt lat="45.80104" lon="4.96128">
        <ele>174.2</ele>
        <time>2012-10-14T10:24:10Z</time>
      </trkpt>
      <trkpt lat="45.80099" lon="4.96129">
        <ele>174.6</ele>
        <time>2012-10-14T10:24:15Z</time>
      </trkpt>
      <trkpt lat="45.80085" lon="4.96131">
        <ele>174.4</ele>
        <time>2012-10-14T10:24:21Z</time>
      </trkpt>
      <trkpt lat="45.80074" lon="4.96123">
        <ele>174.4</ele>
        <time>2012-10-14T10:24:25Z</time>
      </trkpt>
      <trkpt lat="45.80071" lon="4.9612">
        <ele>174.4</ele>
        <time>2012-10-14T10:24:26Z</time>
      </trkpt>
      <trkpt lat="45.8006" lon="4.96101">
        <ele>174.2</ele>
        <time>2012-10-14T10:24:31Z</time>
      </trkpt>
      <trkpt lat="45.80048" lon="4.96084">
        <ele>173.8</ele>
        <time>2012-10-14T10:24:36Z</time>
      </trkpt>
      <trkpt lat="45.80045" lon="4.96082">
        <ele>174</ele>
        <time>2012-10-14T10:24:37Z</time>
      </trkpt>
      <trkpt lat="45.80034" lon="4.96081">
        <ele>173.8</ele>
        <time>2012-10-14T10:24:40Z</time>
      </trkpt>
      <trkpt lat="45.80016" lon="4.96084">
        <ele>173.8</ele>
        <time>2012-10-14T10:24:45Z</time>
      </trkpt>
      <trkpt lat="45.80006" lon="4.96085">
        <ele>173.8</ele>
        <time>2012-10-14T10:24:48Z</time>
      </trkpt>
      <trkpt lat="45.79998" lon="4.96089">
        <ele>173.6</ele>
        <time>2012-10-14T10:24:51Z</time>
      </trkpt>
      <trkpt lat="45.79981" lon="4.96108">
        <ele>173.4</ele>
        <time>2012-10-14T10:24:58Z</time>
      </trkpt>
      <trkpt lat="45.79976" lon="4.96114">
        <ele>173.4</ele>
        <time>2012-10-14T10:25:00Z</time>
      </trkpt>
      <trkpt lat="45.79968" lon="4.96121">
        <ele>173.2</ele>
        <time>2012-10-14T10:25:03Z</time>
      </trkpt>
      <trkpt lat="45.79957" lon="4.96127">
        <ele>173.2</ele>
        <time>2012-10-14T10:25:09Z</time>
      </trkpt>
      <trkpt lat="45.79946" lon="4.96118">
        <ele>173.2</ele>
        <time>2012-10-14T10:25:16Z</time>
      </trkpt>
      <trkpt lat="45.79943" lon="4.96115">
        <ele>173.2</ele>
        <time>2012-10-14T10:25:17Z</time>
      </trkpt>
      <trkpt lat="45.79933" lon="4.96101">
        <ele>173.2</ele>
        <time>2012-10-14T10:25:22Z</time>
      </trkpt>
      <trkpt lat="45.7992" lon="4.9609">
        <ele>173</ele>
        <time>2012-10-14T10:25:27Z</time>
      </trkpt>
      <trkpt lat="45.79912" lon="4.96086">
        <ele>173</ele>
        <time>2012-10-14T10:25:30Z</time>
      </trkpt>
      <trkpt lat="45.79904" lon="4.96086">
        <ele>173</ele>
        <time>2012-10-14T10:25:33Z</time>
      </trkpt>
      <trkpt lat="45.79887" lon="4.96093">
        <ele>172.8</ele>
        <time>2012-10-14T10:25:40Z</time>
      </trkpt>
      <trkpt lat="45.79879" lon="4.96096">
        <ele>172.8</ele>
        <time>2012-10-14T10:25:45Z</time>
      </trkpt>
      <trkpt lat="45.79876" lon="4.96097">
        <ele>173</ele>
        <time>2012-10-14T10:25:48Z</time>
      </trkpt>
      <trkpt lat="45.7987" lon="4.96099">
        <ele>173</ele>
        <time>2012-10-14T10:25:53Z</time>
      </trkpt>
      <trkpt lat="45.79869" lon="4.96101">
        <ele>173.4</ele>
        <time>2012-10-14T10:26:00Z</time>
      </trkpt>
      <trkpt lat="45.79869" lon="4.96102">
        <ele>173.6</ele>
        <time>2012-10-14T10:26:03Z</time>
      </trkpt>
      <trkpt lat="45.79865" lon="4.961">
        <ele>173.8</ele>
        <time>2012-10-14T10:26:06Z</time>
      </trkpt>
      <trkpt lat="45.79857" lon="4.96098">
        <ele>174.4</ele>
        <time>2012-10-14T10:26:12Z</time>
      </trkpt>
      <trkpt lat="45.79854" lon="4.96099">
        <ele>174.6</ele>
        <time>2012-10-14T10:26:15Z</time>
      </trkpt>
      <trkpt lat="45.79853" lon="4.96103">
        <ele>174.6</ele>
        <time>2012-10-14T10:26:18Z</time>
      </trkpt>
      <trkpt lat="45.79853" lon="4.96105">
        <ele>174.6</ele>
        <time>2012-10-14T10:26:19Z</time>
      </trkpt>
      <trkpt lat="45.79853" lon="4.96116">
        <ele>175</ele>
        <time>2012-10-14T10:26:25Z</time>
      </trkpt>
      <trkpt lat="45.79853" lon="4.96119">
        <ele>175</ele>
        <time>2012-10-14T10:26:26Z</time>
      </trkpt>
      <trkpt lat="45.79853" lon="4.96138">
        <ele>175.4</ele>
        <time>2012-10-14T10:26:32Z</time>
      </trkpt>
      <trkpt lat="45.79853" lon="4.96164">
        <ele>175.8</ele>
        <time>2012-10-14T10:26:38Z</time>
      </trkpt>
      <trkpt lat="45.79853" lon="4.96168">
        <ele>176</ele>
        <time>2012-10-14T10:26:39Z</time>
      </trkpt>
      <trkpt lat="45.79855" lon="4.96189">
        <ele>176.6</ele>
        <time>2012-10-14T10:26:44Z</time>
      </trkpt>
      <trkpt lat="45.79861" lon="4.96214">
        <ele>176.8</ele>
        <time>2012-10-14T10:26:50Z</time>
      </trkpt>
      <trkpt lat="45.79861" lon="4.96218">
        <ele>176.8</ele>
        <time>2012-10-14T10:26:51Z</time>
      </trkpt>
      <trkpt lat="45.79859" lon="4.9623">
        <ele>177</ele>
        <time>2012-10-14T10:26:54Z</time>
      </trkpt>
      <trkpt lat="45.79845" lon="4.96246">
        <ele>177</ele>
        <time>2012-10-14T10:27:00Z</time>
      </trkpt>
      <trkpt lat="45.79835" lon="4.96254">
        <ele>177</ele>
        <time>2012-10-14T10:27:04Z</time>
      </trkpt>
      <trkpt lat="45.79833" lon="4.96256">
        <ele>177</ele>
        <time>2012-10-14T10:27:05Z</time>
      </trkpt>
      <trkpt lat="45.7982" lon="4.96266">
        <ele>176.8</ele>
        <time>2012-10-14T10:27:10Z</time>
      </trkpt>
      <trkpt lat="45.79809" lon="4.9628">
        <ele>176.8</ele>
        <time>2012-10-14T10:27:15Z</time>
      </trkpt>
      <trkpt lat="45.79808" lon="4.96284">
        <ele>176.6</ele>
        <time>2012-10-14T10:27:16Z</time>
      </trkpt>
      <trkpt lat="45.79802" lon="4.96304">
        <ele>176.6</ele>
        <time>2012-10-14T10:27:21Z</time>
      </trkpt>
      <trkpt lat="45.79794" lon="4.96314">
        <ele>176.6</ele>
        <time>2012-10-14T10:27:25Z</time>
      </trkpt>
      <trkpt lat="45.79783" lon="4.96316">
        <ele>176.6</ele>
        <time>2012-10-14T10:27:29Z</time>
      </trkpt>
      <trkpt lat="45.79769" lon="4.96314">
        <ele>176.4</ele>
        <time>2012-10-14T10:27:34Z</time>
      </trkpt>
      <trkpt lat="45.79758" lon="4.96302">
        <ele>176.2</ele>
        <time>2012-10-14T10:27:39Z</time>
      </trkpt>
      <trkpt lat="45.79751" lon="4.96292">
        <ele>176</ele>
        <time>2012-10-14T10:27:45Z</time>
      </trkpt>
      <trkpt lat="45.79751" lon="4.96292">
        <ele>176</ele>
        <time>2012-10-14T10:27:46Z</time>
      </trkpt>
      <trkpt lat="45.79751" lon="4.96292">
        <ele>176</ele>
        <time>2012-10-14T10:27:54Z</time>
      </trkpt>
      <trkpt lat="45.7975" lon="4.96291">
        <ele>175.8</ele>
        <time>2012-10-14T10:27:56Z</time>
      </trkpt>
      <trkpt lat="45.79747" lon="4.96287">
        <ele>175.8</ele>
        <time>2012-10-14T10:27:59Z</time>
      </trkpt>
      <trkpt lat="45.7974" lon="4.9628">
        <ele>176</ele>
        <time>2012-10-14T10:28:06Z</time>
      </trkpt>
      <trkpt lat="45.79733" lon="4.96264">
        <ele>176.6</ele>
        <time>2012-10-14T10:28:12Z</time>
      </trkpt>
      <trkpt lat="45.79733" lon="4.96254">
        <ele>176.8</ele>
        <time>2012-10-14T10:28:14Z</time>
      </trkpt>
      <trkpt lat="45.79731" lon="4.96241">
        <ele>177</ele>
        <time>2012-10-14T10:28:17Z</time>
      </trkpt>
      <trkpt lat="45.79728" lon="4.96219">
        <ele>177.2</ele>
        <time>2012-10-14T10:28:22Z</time>
      </trkpt>
      <trkpt lat="45.79727" lon="4.96202">
        <ele>177.2</ele>
        <time>2012-10-14T10:28:26Z</time>
      </trkpt>
      <trkpt lat="45.79727" lon="4.96198">
        <ele>177.2</ele>
        <time>2012-10-14T10:28:27Z</time>
      </trkpt>
      <trkpt lat="45.79728" lon="4.96171">
        <ele>177.4</ele>
        <time>2012-10-14T10:28:32Z</time>
      </trkpt>
      <trkpt lat="45.7973" lon="4.96151">
        <ele>177.2</ele>
        <time>2012-10-14T10:28:37Z</time>
      </trkpt>
      <trkpt lat="45.79731" lon="4.96147">
        <ele>177.2</ele>
        <time>2012-10-14T10:28:38Z</time>
      </trkpt>
      <trkpt lat="45.79733" lon="4.96133">
        <ele>177</ele>
        <time>2012-10-14T10:28:42Z</time>
      </trkpt>
      <trkpt lat="45.79739" lon="4.96119">
        <ele>176.8</ele>
        <time>2012-10-14T10:28:46Z</time>
      </trkpt>
      <trkpt lat="45.7974" lon="4.96111">
        <ele>176.8</ele>
        <time>2012-10-14T10:28:48Z</time>
      </trkpt>
      <trkpt lat="45.79744" lon="4.96096">
        <ele>176.6</ele>
        <time>2012-10-14T10:28:52Z</time>
      </trkpt>
      <trkpt lat="45.79746" lon="4.96093">
        <ele>176.6</ele>
        <time>2012-10-14T10:28:53Z</time>
      </trkpt>
      <trkpt lat="45.79754" lon="4.96071">
        <ele>176.2</ele>
        <time>2012-10-14T10:28:59Z</time>
      </trkpt>
      <trkpt lat="45.79758" lon="4.96051">
        <ele>175.8</ele>
        <time>2012-10-14T10:29:05Z</time>
      </trkpt>
      <trkpt lat="45.79758" lon="4.96047">
        <ele>175.8</ele>
        <time>2012-10-14T10:29:06Z</time>
      </trkpt>
      <trkpt lat="45.79752" lon="4.96031">
        <ele>175.6</ele>
        <time>2012-10-14T10:29:10Z</time>
      </trkpt>
      <trkpt lat="45.79744" lon="4.96013">
        <ele>175.2</ele>
        <time>2012-10-14T10:29:15Z</time>
      </trkpt>
      <trkpt lat="45.79739" lon="4.96004">
        <ele>175</ele>
        <time>2012-10-14T10:29:18Z</time>
      </trkpt>
      <trkpt lat="45.79735" lon="4.95997">
        <ele>175</ele>
        <time>2012-10-14T10:29:20Z</time>
      </trkpt>
      <trkpt lat="45.79724" lon="4.95978">
        <ele>174.6</ele>
        <time>2012-10-14T10:29:26Z</time>
      </trkpt>
      <trkpt lat="45.79715" lon="4.95963">
        <ele>174.4</ele>
        <time>2012-10-14T10:29:31Z</time>
      </trkpt>
      <trkpt lat="45.79709" lon="4.95944">
        <ele>174.4</ele>
        <time>2012-10-14T10:29:36Z</time>
      </trkpt>
      <trkpt lat="45.79701" lon="4.95921">
        <ele>174.2</ele>
        <time>2012-10-14T10:29:43Z</time>
      </trkpt>
      <trkpt lat="45.79698" lon="4.95915">
        <ele>174.2</ele>
        <time>2012-10-14T10:29:45Z</time>
      </trkpt>
      <trkpt lat="45.79691" lon="4.95906">
        <ele>174.2</ele>
        <time>2012-10-14T10:29:49Z</time>
      </trkpt>
      <trkpt lat="45.79681" lon="4.9589">
        <ele>174.6</ele>
        <time>2012-10-14T10:29:55Z</time>
      </trkpt>
      <trkpt lat="45.79672" lon="4.95876">
        <ele>175</ele>
        <time>2012-10-14T10:30:00Z</time>
      </trkpt>
      <trkpt lat="45.79671" lon="4.95873">
        <ele>175</ele>
        <time>2012-10-14T10:30:01Z</time>
      </trkpt>
      <trkpt lat="45.79659" lon="4.95852">
        <ele>175.4</ele>
        <time>2012-10-14T10:30:08Z</time>
      </trkpt>
      <trkpt lat="45.79649" lon="4.95833">
        <ele>175.6</ele>
        <time>2012-10-14T10:30:14Z</time>
      </trkpt>
      <trkpt lat="45.79647" lon="4.9583">
        <ele>175.6</ele>
        <time>2012-10-14T10:30:15Z</time>
      </trkpt>
      <trkpt lat="45.79636" lon="4.95809">
        <ele>175.8</ele>
        <time>2012-10-14T10:30:22Z</time>
      </trkpt>
      <trkpt lat="45.79626" lon="4.95791">
        <ele>175.6</ele>
        <time>2012-10-14T10:30:28Z</time>
      </trkpt>
      <trkpt lat="45.79624" lon="4.95788">
        <ele>175.6</ele>
        <time>2012-10-14T10:30:29Z</time>
      </trkpt>
      <trkpt lat="45.79614" lon="4.9577">
        <ele>175.8</ele>
        <time>2012-10-14T10:30:35Z</time>
      </trkpt>
      <trkpt lat="45.79605" lon="4.95751">
        <ele>175.8</ele>
        <time>2012-10-14T10:30:41Z</time>
      </trkpt>
      <trkpt lat="45.79604" lon="4.95748">
        <ele>175.8</ele>
        <time>2012-10-14T10:30:42Z</time>
      </trkpt>
      <trkpt lat="45.79595" lon="4.95731">
        <ele>176</ele>
        <time>2012-10-14T10:30:48Z</time>
      </trkpt>
      <trkpt lat="45.79587" lon="4.95716">
        <ele>176</ele>
        <time>2012-10-14T10:30:53Z</time>
      </trkpt>
      <trkpt lat="45.79583" lon="4.95707">
        <ele>176</ele>
        <time>2012-10-14T10:30:56Z</time>
      </trkpt>
      <trkpt lat="45.79578" lon="4.95698">
        <ele>176</ele>
        <time>2012-10-14T10:30:59Z</time>
      </trkpt>
      <trkpt lat="45.79576" lon="4.95681">
        <ele>176</ele>
        <time>2012-10-14T10:31:04Z</time>
      </trkpt>
      <trkpt lat="45.7957" lon="4.95673">
        <ele>176</ele>
        <time>2012-10-14T10:31:08Z</time>
      </trkpt>
      <trkpt lat="45.79563" lon="4.95667">
        <ele>176</ele>
        <time>2012-10-14T10:31:12Z</time>
      </trkpt>
      <trkpt lat="45.79558" lon="4.95663">
        <ele>176</ele>
        <time>2012-10-14T10:31:14Z</time>
      </trkpt>
      <trkpt lat="45.79548" lon="4.95654">
        <ele>175.8</ele>
        <time>2012-10-14T10:31:19Z</time>
      </trkpt>
      <trkpt lat="45.79535" lon="4.95645">
        <ele>175.8</ele>
        <time>2012-10-14T10:31:25Z</time>
      </trkpt>
      <trkpt lat="45.7953" lon="4.95643">
        <ele>175.6</ele>
        <time>2012-10-14T10:31:27Z</time>
      </trkpt>
      <trkpt lat="45.79521" lon="4.95639">
        <ele>175.6</ele>
        <time>2012-10-14T10:31:31Z</time>
      </trkpt>
      <trkpt lat="45.79512" lon="4.95641">
        <ele>175.4</ele>
        <time>2012-10-14T10:31:36Z</time>
      </trkpt>
      <trkpt lat="45.79511" lon="4.95641">
        <ele>175.4</ele>
        <time>2012-10-14T10:31:37Z</time>
      </trkpt>
      <trkpt lat="45.79509" lon="4.95642">
        <ele>175.4</ele>
        <time>2012-10-14T10:31:41Z</time>
      </trkpt>
      <trkpt lat="45.79509" lon="4.95642">
        <ele>175.4</ele>
        <time>2012-10-14T10:31:49Z</time>
      </trkpt>
      <trkpt lat="45.79513" lon="4.95638">
        <ele>175.4</ele>
        <time>2012-10-14T10:31:53Z</time>
      </trkpt>
      <trkpt lat="45.79516" lon="4.95633">
        <ele>175.4</ele>
        <time>2012-10-14T10:31:57Z</time>
      </trkpt>
      <trkpt lat="45.79518" lon="4.95629">
        <ele>175.4</ele>
        <time>2012-10-14T10:32:00Z</time>
      </trkpt>
      <trkpt lat="45.79519" lon="4.95627">
        <ele>175.4</ele>
        <time>2012-10-14T10:32:01Z</time>
      </trkpt>
      <trkpt lat="45.79523" lon="4.95616">
        <ele>175.6</ele>
        <time>2012-10-14T10:32:06Z</time>
      </trkpt>
      <trkpt lat="45.79532" lon="4.95602">
        <ele>175.8</ele>
        <time>2012-10-14T10:32:11Z</time>
      </trkpt>
      <trkpt lat="45.79541" lon="4.95592">
        <ele>175.8</ele>
        <time>2012-10-14T10:32:15Z</time>
      </trkpt>
      <trkpt lat="45.79543" lon="4.9559">
        <ele>175.8</ele>
        <time>2012-10-14T10:32:16Z</time>
      </trkpt>
      <trkpt lat="45.79553" lon="4.9558">
        <ele>175.8</ele>
        <time>2012-10-14T10:32:21Z</time>
      </trkpt>
      <trkpt lat="45.79565" lon="4.95566">
        <ele>175.6</ele>
        <time>2012-10-14T10:32:26Z</time>
      </trkpt>
      <trkpt lat="45.79566" lon="4.95555">
        <ele>175.4</ele>
        <time>2012-10-14T10:32:29Z</time>
      </trkpt>
      <trkpt lat="45.79566" lon="4.95551">
        <ele>175.4</ele>
        <time>2012-10-14T10:32:30Z</time>
      </trkpt>
      <trkpt lat="45.79567" lon="4.95543">
        <ele>175.4</ele>
        <time>2012-10-14T10:32:33Z</time>
      </trkpt>
      <trkpt lat="45.7957" lon="4.95538">
        <ele>175.4</ele>
        <time>2012-10-14T10:32:35Z</time>
      </trkpt>
      <trkpt lat="45.79583" lon="4.95514">
        <ele>176.2</ele>
        <time>2012-10-14T10:32:43Z</time>
      </trkpt>
      <trkpt lat="45.79584" lon="4.95511">
        <ele>176.4</ele>
        <time>2012-10-14T10:32:44Z</time>
      </trkpt>
      <trkpt lat="45.79596" lon="4.95487">
        <ele>178</ele>
        <time>2012-10-14T10:32:52Z</time>
      </trkpt>
      <trkpt lat="45.79603" lon="4.95471">
        <ele>178.4</ele>
        <time>2012-10-14T10:32:58Z</time>
      </trkpt>
      <trkpt lat="45.79604" lon="4.95468">
        <ele>178.6</ele>
        <time>2012-10-14T10:32:59Z</time>
      </trkpt>
      <trkpt lat="45.79608" lon="4.95456">
        <ele>179</ele>
        <time>2012-10-14T10:33:05Z</time>
      </trkpt>
      <trkpt lat="45.79613" lon="4.95448">
        <ele>178.8</ele>
        <time>2012-10-14T10:33:11Z</time>
      </trkpt>
      <trkpt lat="45.7962" lon="4.95439">
        <ele>178.8</ele>
        <time>2012-10-14T10:33:15Z</time>
      </trkpt>
      <trkpt lat="45.79624" lon="4.95425">
        <ele>178.6</ele>
        <time>2012-10-14T10:33:19Z</time>
      </trkpt>
      <trkpt lat="45.79626" lon="4.95414">
        <ele>178.4</ele>
        <time>2012-10-14T10:33:22Z</time>
      </trkpt>
      <trkpt lat="45.79633" lon="4.95398">
        <ele>178</ele>
        <time>2012-10-14T10:33:27Z</time>
      </trkpt>
      <trkpt lat="45.79641" lon="4.95379">
        <ele>177.6</ele>
        <time>2012-10-14T10:33:33Z</time>
      </trkpt>
      <trkpt lat="45.79647" lon="4.95354">
        <ele>177.2</ele>
        <time>2012-10-14T10:33:39Z</time>
      </trkpt>
      <trkpt lat="45.79654" lon="4.95329">
        <ele>177.2</ele>
        <time>2012-10-14T10:33:45Z</time>
      </trkpt>
      <trkpt lat="45.7966" lon="4.95306">
        <ele>177</ele>
        <time>2012-10-14T10:33:51Z</time>
      </trkpt>
      <trkpt lat="45.79667" lon="4.95293">
        <ele>177</ele>
        <time>2012-10-14T10:33:56Z</time>
      </trkpt>
      <trkpt lat="45.79674" lon="4.95286">
        <ele>176.8</ele>
        <time>2012-10-14T10:34:00Z</time>
      </trkpt>
      <trkpt lat="45.79675" lon="4.95284">
        <ele>176.8</ele>
        <time>2012-10-14T10:34:01Z</time>
      </trkpt>
      <trkpt lat="45.79679" lon="4.95276">
        <ele>176.8</ele>
        <time>2012-10-14T10:34:04Z</time>
      </trkpt>
      <trkpt lat="45.7968" lon="4.95273">
        <ele>177</ele>
        <time>2012-10-14T10:34:05Z</time>
      </trkpt>
      <trkpt lat="45.79684" lon="4.95264">
        <ele>177</ele>
        <time>2012-10-14T10:34:08Z</time>
      </trkpt>
      <trkpt lat="45.79694" lon="4.95247">
        <ele>177</ele>
        <time>2012-10-14T10:34:14Z</time>
      </trkpt>
      <trkpt lat="45.79695" lon="4.95244">
        <ele>177</ele>
        <time>2012-10-14T10:34:15Z</time>
      </trkpt>
      <trkpt lat="45.79702" lon="4.95229">
        <ele>177</ele>
        <time>2012-10-14T10:34:20Z</time>
      </trkpt>
      <trkpt lat="45.79712" lon="4.95212">
        <ele>177.2</ele>
        <time>2012-10-14T10:34:26Z</time>
      </trkpt>
      <trkpt lat="45.79718" lon="4.952">
        <ele>177.2</ele>
        <time>2012-10-14T10:34:30Z</time>
      </trkpt>
      <trkpt lat="45.79725" lon="4.9519">
        <ele>177.2</ele>
        <time>2012-10-14T10:34:33Z</time>
      </trkpt>
      <trkpt lat="45.79736" lon="4.95174">
        <ele>177.2</ele>
        <time>2012-10-14T10:34:38Z</time>
      </trkpt>
      <trkpt lat="45.79745" lon="4.95161">
        <ele>177</ele>
        <time>2012-10-14T10:34:42Z</time>
      </trkpt>
      <trkpt lat="45.79749" lon="4.95155">
        <ele>177</ele>
        <time>2012-10-14T10:34:44Z</time>
      </trkpt>
      <trkpt lat="45.7975" lon="4.95151">
        <ele>177</ele>
        <time>2012-10-14T10:34:45Z</time>
      </trkpt>
      <trkpt lat="45.79759" lon="4.95135">
        <ele>176.8</ele>
        <time>2012-10-14T10:34:50Z</time>
      </trkpt>
      <trkpt lat="45.79764" lon="4.95126">
        <ele>176.8</ele>
        <time>2012-10-14T10:34:53Z</time>
      </trkpt>
      <trkpt lat="45.79766" lon="4.95123">
        <ele>176.6</ele>
        <time>2012-10-14T10:34:54Z</time>
      </trkpt>
      <trkpt lat="45.79767" lon="4.95119">
        <ele>176.6</ele>
        <time>2012-10-14T10:34:55Z</time>
      </trkpt>
      <trkpt lat="45.79775" lon="4.95105">
        <ele>176.6</ele>
        <time>2012-10-14T10:34:59Z</time>
      </trkpt>
      <trkpt lat="45.79787" lon="4.95087">
        <ele>176.6</ele>
        <time>2012-10-14T10:35:05Z</time>
      </trkpt>
      <trkpt lat="45.79793" lon="4.95079">
        <ele>176.6</ele>
        <time>2012-10-14T10:35:08Z</time>
      </trkpt>
      <trkpt lat="45.79796" lon="4.95074">
        <ele>176.6</ele>
        <time>2012-10-14T10:35:10Z</time>
      </trkpt>
      <trkpt lat="45.79805" lon="4.95061">
        <ele>176.6</ele>
        <time>2012-10-14T10:35:15Z</time>
      </trkpt>
      <trkpt lat="45.79815" lon="4.95046">
        <ele>176.6</ele>
        <time>2012-10-14T10:35:20Z</time>
      </trkpt>
      <trkpt lat="45.79819" lon="4.9504">
        <ele>176.6</ele>
        <time>2012-10-14T10:35:22Z</time>
      </trkpt>
      <trkpt lat="45.79825" lon="4.9503">
        <ele>176.6</ele>
        <time>2012-10-14T10:35:25Z</time>
      </trkpt>
      <trkpt lat="45.79834" lon="4.95012">
        <ele>176.4</ele>
        <time>2012-10-14T10:35:31Z</time>
      </trkpt>
      <trkpt lat="45.79839" lon="4.94998">
        <ele>176.4</ele>
        <time>2012-10-14T10:35:35Z</time>
      </trkpt>
      <trkpt lat="45.79841" lon="4.94993">
        <ele>176.4</ele>
        <time>2012-10-14T10:35:36Z</time>
      </trkpt>
      <trkpt lat="45.7985" lon="4.94974">
        <ele>176.4</ele>
        <time>2012-10-14T10:35:42Z</time>
      </trkpt>
      <trkpt lat="45.79859" lon="4.94958">
        <ele>176.4</ele>
        <time>2012-10-14T10:35:47Z</time>
      </trkpt>
      <trkpt lat="45.79861" lon="4.94955">
        <ele>176.4</ele>
        <time>2012-10-14T10:35:48Z</time>
      </trkpt>
      <trkpt lat="45.79868" lon="4.94946">
        <ele>176.2</ele>
        <time>2012-10-14T10:35:52Z</time>
      </trkpt>
      <trkpt lat="45.79873" lon="4.94941">
        <ele>176.2</ele>
        <time>2012-10-14T10:35:55Z</time>
      </trkpt>
      <trkpt lat="45.79877" lon="4.94938">
        <ele>176.2</ele>
        <time>2012-10-14T10:35:57Z</time>
      </trkpt>
      <trkpt lat="45.79886" lon="4.94929">
        <ele>176.2</ele>
        <time>2012-10-14T10:36:01Z</time>
      </trkpt>
      <trkpt lat="45.79888" lon="4.94927">
        <ele>176.2</ele>
        <time>2012-10-14T10:36:02Z</time>
      </trkpt>
      <trkpt lat="45.79892" lon="4.94921">
        <ele>176</ele>
        <time>2012-10-14T10:36:04Z</time>
      </trkpt>
      <trkpt lat="45.79898" lon="4.94914">
        <ele>176</ele>
        <time>2012-10-14T10:36:07Z</time>
      </trkpt>
      <trkpt lat="45.79902" lon="4.94907">
        <ele>176</ele>
        <time>2012-10-14T10:36:10Z</time>
      </trkpt>
      <trkpt lat="45.79905" lon="4.94904">
        <ele>176</ele>
        <time>2012-10-14T10:36:12Z</time>
      </trkpt>
      <trkpt lat="45.79905" lon="4.94902">
        <ele>176</ele>
        <time>2012-10-14T10:36:17Z</time>
      </trkpt>
      <trkpt lat="45.79908" lon="4.94903">
        <ele>176</ele>
        <time>2012-10-14T10:36:57Z</time>
      </trkpt>
      <trkpt lat="45.7991" lon="4.94902">
        <ele>176.2</ele>
        <time>2012-10-14T10:37:00Z</time>
      </trkpt>
      <trkpt lat="45.79914" lon="4.94901">
        <ele>176</ele>
        <time>2012-10-14T10:37:03Z</time>
      </trkpt>
      <trkpt lat="45.7992" lon="4.94897">
        <ele>176</ele>
        <time>2012-10-14T10:37:06Z</time>
      </trkpt>
      <trkpt lat="45.79922" lon="4.94894">
        <ele>176</ele>
        <time>2012-10-14T10:37:07Z</time>
      </trkpt>
      <trkpt lat="45.79924" lon="4.94891">
        <ele>176</ele>
        <time>2012-10-14T10:37:08Z</time>
      </trkpt>
      <trkpt lat="45.79934" lon="4.94878">
        <ele>175.6</ele>
        <time>2012-10-14T10:37:13Z</time>
      </trkpt>
      <trkpt lat="45.79941" lon="4.94862">
        <ele>175.6</ele>
        <time>2012-10-14T10:37:17Z</time>
      </trkpt>
      <trkpt lat="45.79942" lon="4.94858">
        <ele>175.6</ele>
        <time>2012-10-14T10:37:18Z</time>
      </trkpt>
      <trkpt lat="45.79945" lon="4.94841">
        <ele>175.4</ele>
        <time>2012-10-14T10:37:23Z</time>
      </trkpt>
      <trkpt lat="45.79947" lon="4.94823">
        <ele>175.2</ele>
        <time>2012-10-14T10:37:27Z</time>
      </trkpt>
      <trkpt lat="45.79949" lon="4.94805">
        <ele>175</ele>
        <time>2012-10-14T10:37:30Z</time>
      </trkpt>
      <trkpt lat="45.7995" lon="4.94793">
        <ele>175</ele>
        <time>2012-10-14T10:37:32Z</time>
      </trkpt>
      <trkpt lat="45.7995" lon="4.94787">
        <ele>175</ele>
        <time>2012-10-14T10:37:33Z</time>
      </trkpt>
      <trkpt lat="45.79951" lon="4.94773">
        <ele>174.8</ele>
        <time>2012-10-14T10:37:35Z</time>
      </trkpt>
      <trkpt lat="45.79954" lon="4.94759">
        <ele>174.6</ele>
        <time>2012-10-14T10:37:37Z</time>
      </trkpt>
      <trkpt lat="45.79954" lon="4.94752">
        <ele>174.6</ele>
        <time>2012-10-14T10:37:38Z</time>
      </trkpt>
      <trkpt lat="45.79956" lon="4.94733">
        <ele>174.4</ele>
        <time>2012-10-14T10:37:41Z</time>
      </trkpt>
      <trkpt lat="45.79958" lon="4.94725">
        <ele>174.4</ele>
        <time>2012-10-14T10:37:42Z</time>
      </trkpt>
      <trkpt lat="45.79963" lon="4.94705">
        <ele>174.4</ele>
        <time>2012-10-14T10:37:45Z</time>
      </trkpt>
      <trkpt lat="45.79965" lon="4.94698">
        <ele>174.2</ele>
        <time>2012-10-14T10:37:46Z</time>
      </trkpt>
      <trkpt lat="45.79969" lon="4.94685">
        <ele>174.2</ele>
        <time>2012-10-14T10:37:48Z</time>
      </trkpt>
      <trkpt lat="45.79979" lon="4.94643">
        <ele>174</ele>
        <time>2012-10-14T10:37:54Z</time>
      </trkpt>
      <trkpt lat="45.7998" lon="4.94635">
        <ele>174</ele>
        <time>2012-10-14T10:37:55Z</time>
      </trkpt>
      <trkpt lat="45.7998" lon="4.94627">
        <ele>174</ele>
        <time>2012-10-14T10:37:56Z</time>
      </trkpt>
      <trkpt lat="45.7998" lon="4.94587">
        <ele>173.8</ele>
        <time>2012-10-14T10:38:01Z</time>
      </trkpt>
      <trkpt lat="45.7998" lon="4.94566">
        <ele>173.6</ele>
        <time>2012-10-14T10:38:04Z</time>
      </trkpt>
      <trkpt lat="45.79982" lon="4.94552">
        <ele>173.6</ele>
        <time>2012-10-14T10:38:06Z</time>
      </trkpt>
      <trkpt lat="45.79983" lon="4.94545">
        <ele>173.4</ele>
        <time>2012-10-14T10:38:07Z</time>
      </trkpt>
      <trkpt lat="45.79988" lon="4.94532">
        <ele>173.4</ele>
        <time>2012-10-14T10:38:09Z</time>
      </trkpt>
      <trkpt lat="45.79993" lon="4.94527">
        <ele>173.4</ele>
        <time>2012-10-14T10:38:10Z</time>
      </trkpt>
      <trkpt lat="45.80005" lon="4.94525">
        <ele>173.2</ele>
        <time>2012-10-14T10:38:13Z</time>
      </trkpt>
      <trkpt lat="45.80008" lon="4.94519">
        <ele>173</ele>
        <time>2012-10-14T10:38:16Z</time>
      </trkpt>
      <trkpt lat="45.80011" lon="4.94513">
        <ele>173</ele>
        <time>2012-10-14T10:38:20Z</time>
      </trkpt>
      <trkpt lat="45.80015" lon="4.94514">
        <ele>173</ele>
        <time>2012-10-14T10:38:22Z</time>
      </trkpt>
      <trkpt lat="45.80017" lon="4.94515">
        <ele>173</ele>
        <time>2012-10-14T10:38:23Z</time>
      </trkpt>
      <trkpt lat="45.80018" lon="4.94516">
        <ele>173</ele>
        <time>2012-10-14T10:38:24Z</time>
      </trkpt>
      <trkpt lat="45.80023" lon="4.94518">
        <ele>173</ele>
        <time>2012-10-14T10:38:26Z</time>
      </trkpt>
      <trkpt lat="45.80028" lon="4.9452">
        <ele>173.2</ele>
        <time>2012-10-14T10:38:28Z</time>
      </trkpt>
      <trkpt lat="45.80039" lon="4.9452">
        <ele>173.4</ele>
        <time>2012-10-14T10:38:32Z</time>
      </trkpt>
      <trkpt lat="45.80052" lon="4.94521">
        <ele>173.6</ele>
        <time>2012-10-14T10:38:37Z</time>
      </trkpt>
      <trkpt lat="45.80066" lon="4.94517">
        <ele>174.4</ele>
        <time>2012-10-14T10:38:42Z</time>
      </trkpt>
      <trkpt lat="45.80083" lon="4.94516">
        <ele>175</ele>
        <time>2012-10-14T10:38:48Z</time>
      </trkpt>
      <trkpt lat="45.8009" lon="4.94514">
        <ele>175.2</ele>
        <time>2012-10-14T10:38:50Z</time>
      </trkpt>
      <trkpt lat="45.801" lon="4.9451">
        <ele>175.8</ele>
        <time>2012-10-14T10:38:53Z</time>
      </trkpt>
      <trkpt lat="45.8011" lon="4.94495">
        <ele>176</ele>
        <time>2012-10-14T10:38:57Z</time>
      </trkpt>
      <trkpt lat="45.80119" lon="4.94481">
        <ele>176.4</ele>
        <time>2012-10-14T10:39:01Z</time>
      </trkpt>
      <trkpt lat="45.80122" lon="4.94462">
        <ele>176.4</ele>
        <time>2012-10-14T10:39:05Z</time>
      </trkpt>
      <trkpt lat="45.80122" lon="4.94457">
        <ele>176.2</ele>
        <time>2012-10-14T10:39:06Z</time>
      </trkpt>
      <trkpt lat="45.80121" lon="4.9444">
        <ele>176.2</ele>
        <time>2012-10-14T10:39:09Z</time>
      </trkpt>
      <trkpt lat="45.8012" lon="4.94435">
        <ele>176.2</ele>
        <time>2012-10-14T10:39:10Z</time>
      </trkpt>
      <trkpt lat="45.80118" lon="4.9443">
        <ele>176.2</ele>
        <time>2012-10-14T10:39:11Z</time>
      </trkpt>
      <trkpt lat="45.80117" lon="4.94425">
        <ele>176.2</ele>
        <time>2012-10-14T10:39:12Z</time>
      </trkpt>
      <trkpt lat="45.80118" lon="4.9442">
        <ele>176</ele>
        <time>2012-10-14T10:39:13Z</time>
      </trkpt>
      <trkpt lat="45.80114" lon="4.94395">
        <ele>176</ele>
        <time>2012-10-14T10:39:17Z</time>
      </trkpt>
      <trkpt lat="45.80111" lon="4.94384">
        <ele>175.8</ele>
        <time>2012-10-14T10:39:19Z</time>
      </trkpt>
      <trkpt lat="45.80109" lon="4.94377">
        <ele>175.8</ele>
        <time>2012-10-14T10:39:20Z</time>
      </trkpt>
      <trkpt lat="45.80107" lon="4.94371">
        <ele>175.6</ele>
        <time>2012-10-14T10:39:21Z</time>
      </trkpt>
      <trkpt lat="45.80103" lon="4.94361">
        <ele>175.4</ele>
        <time>2012-10-14T10:39:24Z</time>
      </trkpt>
      <trkpt lat="45.80108" lon="4.94349">
        <ele>175.2</ele>
        <time>2012-10-14T10:39:28Z</time>
      </trkpt>
      <trkpt lat="45.80105" lon="4.94338">
        <ele>175</ele>
        <time>2012-10-14T10:39:31Z</time>
      </trkpt>
      <trkpt lat="45.80095" lon="4.94329">
        <ele>174.6</ele>
        <time>2012-10-14T10:39:34Z</time>
      </trkpt>
      <trkpt lat="45.8008" lon="4.94319">
        <ele>174.4</ele>
        <time>2012-10-14T10:39:38Z</time>
      </trkpt>
      <trkpt lat="45.80071" lon="4.94314">
        <ele>174.2</ele>
        <time>2012-10-14T10:39:40Z</time>
      </trkpt>
      <trkpt lat="45.80056" lon="4.94307">
        <ele>173.8</ele>
        <time>2012-10-14T10:39:43Z</time>
      </trkpt>
      <trkpt lat="45.80051" lon="4.94303">
        <ele>173.8</ele>
        <time>2012-10-14T10:39:44Z</time>
      </trkpt>
      <trkpt lat="45.80035" lon="4.94292">
        <ele>173.6</ele>
        <time>2012-10-14T10:39:47Z</time>
      </trkpt>
      <trkpt lat="45.80021" lon="4.94283">
        <ele>173.2</ele>
        <time>2012-10-14T10:39:50Z</time>
      </trkpt>
      <trkpt lat="45.80017" lon="4.9428">
        <ele>173</ele>
        <time>2012-10-14T10:39:51Z</time>
      </trkpt>
      <trkpt lat="45.80003" lon="4.94265">
        <ele>172.8</ele>
        <time>2012-10-14T10:39:54Z</time>
      </trkpt>
      <trkpt lat="45.79993" lon="4.94255">
        <ele>172.6</ele>
        <time>2012-10-14T10:39:56Z</time>
      </trkpt>
      <trkpt lat="45.79982" lon="4.94236">
        <ele>172.4</ele>
        <time>2012-10-14T10:39:59Z</time>
      </trkpt>
      <trkpt lat="45.79979" lon="4.94221">
        <ele>172.2</ele>
        <time>2012-10-14T10:40:01Z</time>
      </trkpt>
      <trkpt lat="45.79978" lon="4.94206">
        <ele>172</ele>
        <time>2012-10-14T10:40:03Z</time>
      </trkpt>
      <trkpt lat="45.79984" lon="4.9418">
        <ele>171.8</ele>
        <time>2012-10-14T10:40:06Z</time>
      </trkpt>
      <trkpt lat="45.79986" lon="4.94172">
        <ele>171.8</ele>
        <time>2012-10-14T10:40:07Z</time>
      </trkpt>
      <trkpt lat="45.79994" lon="4.94149">
        <ele>171.6</ele>
        <time>2012-10-14T10:40:10Z</time>
      </trkpt>
      <trkpt lat="45.80003" lon="4.94139">
        <ele>171.6</ele>
        <time>2012-10-14T10:40:12Z</time>
      </trkpt>
      <trkpt lat="45.80014" lon="4.94134">
        <ele>171.4</ele>
        <time>2012-10-14T10:40:14Z</time>
      </trkpt>
      <trkpt lat="45.80021" lon="4.94134">
        <ele>171.4</ele>
        <time>2012-10-14T10:40:15Z</time>
      </trkpt>
      <trkpt lat="45.80027" lon="4.94134">
        <ele>171.4</ele>
        <time>2012-10-14T10:40:16Z</time>
      </trkpt>
      <trkpt lat="45.80054" lon="4.94134">
        <ele>171.2</ele>
        <time>2012-10-14T10:40:21Z</time>
      </trkpt>
      <trkpt lat="45.80059" lon="4.94133">
        <ele>171.2</ele>
        <time>2012-10-14T10:40:22Z</time>
      </trkpt>
      <trkpt lat="45.80067" lon="4.9413">
        <ele>171.2</ele>
        <time>2012-10-14T10:40:26Z</time>
      </trkpt>
      <trkpt lat="45.80067" lon="4.94129">
        <ele>170.8</ele>
        <time>2012-10-14T10:40:34Z</time>
      </trkpt>
      <trkpt lat="45.8007" lon="4.94124">
        <ele>170.8</ele>
        <time>2012-10-14T10:40:36Z</time>
      </trkpt>
      <trkpt lat="45.80068" lon="4.94114">
        <ele>170.8</ele>
        <time>2012-10-14T10:40:39Z</time>
      </trkpt>
      <trkpt lat="45.80057" lon="4.94111">
        <ele>170.8</ele>
        <time>2012-10-14T10:40:41Z</time>
      </trkpt>
      <trkpt lat="45.80051" lon="4.94109">
        <ele>170.8</ele>
        <time>2012-10-14T10:40:42Z</time>
      </trkpt>
      <trkpt lat="45.80039" lon="4.94106">
        <ele>170.8</ele>
        <time>2012-10-14T10:40:44Z</time>
      </trkpt>
      <trkpt lat="45.80033" lon="4.94101">
        <ele>170.8</ele>
        <time>2012-10-14T10:40:46Z</time>
      </trkpt>
      <trkpt lat="45.80038" lon="4.94096">
        <ele>170.8</ele>
        <time>2012-10-14T10:40:48Z</time>
      </trkpt>
      <trkpt lat="45.80044" lon="4.94097">
        <ele>170.8</ele>
        <time>2012-10-14T10:40:49Z</time>
      </trkpt>
      <trkpt lat="45.80051" lon="4.94097">
        <ele>170.8</ele>
        <time>2012-10-14T10:40:50Z</time>
      </trkpt>
      <trkpt lat="45.80058" lon="4.94097">
        <ele>170.8</ele>
        <time>2012-10-14T10:40:51Z</time>
      </trkpt>
      <trkpt lat="45.80073" lon="4.94099">
        <ele>171.2</ele>
        <time>2012-10-14T10:40:54Z</time>
      </trkpt>
      <trkpt lat="45.80078" lon="4.941">
        <ele>171.2</ele>
        <time>2012-10-14T10:40:58Z</time>
      </trkpt>
      <trkpt lat="45.8008" lon="4.941">
        <ele>171.4</ele>
        <time>2012-10-14T10:41:03Z</time>
      </trkpt>
      <trkpt lat="45.80078" lon="4.94101">
        <ele>171.4</ele>
        <time>2012-10-14T10:41:05Z</time>
      </trkpt>
      <trkpt lat="45.80073" lon="4.94102">
        <ele>171.8</ele>
        <time>2012-10-14T10:41:10Z</time>
      </trkpt>
      <trkpt lat="45.80075" lon="4.94104">
        <ele>174.8</ele>
        <time>2012-10-14T10:41:34Z</time>
      </trkpt>
    </trkseg>
  </trk>
</gpx>